Wetterdaten: Donnerstag, 06.10.2022
Datum Zeit Temp. 2m Temp +5 cm Feuchte A. Luftdruck Regen Wind Richtung Richtung Sonnenschein UV Solar Taupunkt Windchill Windben
06.10.2022 00:00 14,2 C 13,3 C 85 % 1022,5 hPa 0,0 l/m 19,3 km/h (3 Bft) S 180 0 min 0,0 UV-I 0 W/m 11,7 C 8,9 C 25,7 km/h (4 Bft)
06.10.2022 00:01 14,2 C 13,3 C 85 % 1022,5 hPa 0,0 l/m 17,7 km/h (3 Bft) S-SW 202 0 min 0,0 UV-I 0 W/m 11,7 C 9,4 C 24,1 km/h (4 Bft)
06.10.2022 00:02 14,2 C 13,3 C 85 % 1022,6 hPa 0,0 l/m 14,5 km/h (3 Bft) S-SW 202 0 min 0,0 UV-I 0 W/m 11,7 C 10,4 C 19,3 km/h (3 Bft)
06.10.2022 00:03 14,2 C 13,3 C 86 % 1022,5 hPa 0,0 l/m 17,7 km/h (3 Bft) S-SW 202 0 min 0,0 UV-I 0 W/m 11,9 C 9,4 C 24,1 km/h (4 Bft)
06.10.2022 00:04 14,2 C 13,3 C 86 % 1022,5 hPa 0,0 l/m 17,7 km/h (3 Bft) S-SW 202 0 min 0,0 UV-I 0 W/m 11,9 C 9,4 C 22,5 km/h (4 Bft)
06.10.2022 00:05 14,2 C 13,3 C 86 % 1022,4 hPa 0,0 l/m 11,3 km/h (2 Bft) S-SW 202 0 min 0,0 UV-I 0 W/m 11,9 C 11,6 C 17,7 km/h (3 Bft)
06.10.2022 00:06 14,2 C 13,3 C 86 % 1022,5 hPa 0,0 l/m 14,5 km/h (3 Bft) S-SW 202 0 min 0,0 UV-I 0 W/m 11,9 C 10,4 C 20,9 km/h (4 Bft)
06.10.2022 00:07 14,2 C 13,3 C 86 % 1022,6 hPa 0,0 l/m 17,7 km/h (3 Bft) S-SW 202 0 min 0,0 UV-I 0 W/m 11,9 C 9,4 C 24,1 km/h (4 Bft)
06.10.2022 00:08 14,2 C 13,3 C 86 % 1022,5 hPa 0,0 l/m 11,3 km/h (2 Bft) S-SW 202 0 min 0,0 UV-I 0 W/m 11,9 C 11,6 C 16,1 km/h (3 Bft)
06.10.2022 00:09 14,2 C 13,3 C 86 % 1022,6 hPa 0,0 l/m 14,5 km/h (3 Bft) S-SW 202 0 min 0,0 UV-I 0 W/m 11,9 C 10,4 C 19,3 km/h (3 Bft)
06.10.2022 00:10 14,2 C 13,3 C 86 % 1022,6 hPa 0,0 l/m 20,9 km/h (4 Bft) S 180 0 min 0,0 UV-I 0 W/m 11,9 C 8,5 C 29,0 km/h (5 Bft)
06.10.2022 00:11 14,3 C 13,9 C 86 % 1022,6 hPa 0,0 l/m 17,7 km/h (3 Bft) S-SW 202 0 min 0,0 UV-I 0 W/m 12,0 C 9,5 C 25,7 km/h (4 Bft)
06.10.2022 00:12 14,3 C 13,9 C 86 % 1022,6 hPa 0,0 l/m 11,3 km/h (2 Bft) S-SW 202 0 min 0,0 UV-I 0 W/m 12,0 C 11,8 C 16,1 km/h (3 Bft)
06.10.2022 00:13 14,3 C 13,9 C 86 % 1022,6 hPa 0,0 l/m 16,1 km/h (3 Bft) S-SW 202 0 min 0,0 UV-I 0 W/m 12,0 C 10,0 C 20,9 km/h (4 Bft)
06.10.2022 00:14 14,3 C 13,9 C 86 % 1022,8 hPa 0,0 l/m 17,7 km/h (3 Bft) SW 225 0 min 0,0 UV-I 0 W/m 12,0 C 9,5 C 30,6 km/h (5 Bft)
06.10.2022 00:15 14,3 C 13,9 C 86 % 1022,7 hPa 0,0 l/m 17,7 km/h (3 Bft) S-SW 202 0 min 0,0 UV-I 0 W/m 12,0 C 9,5 C 25,7 km/h (4 Bft)
06.10.2022 00:16 14,3 C 13,9 C 86 % 1022,7 hPa 0,0 l/m 16,1 km/h (3 Bft) S-SW 202 0 min 0,0 UV-I 0 W/m 12,0 C 10,0 C 20,9 km/h (4 Bft)
06.10.2022 00:17 14,3 C 13,3 C 86 % 1022,7 hPa 0,0 l/m 17,7 km/h (3 Bft) S-SW 202 0 min 0,0 UV-I 0 W/m 12,0 C 9,5 C 25,7 km/h (4 Bft)
06.10.2022 00:18 14,3 C 13,3 C 86 % 1022,7 hPa 0,0 l/m 12,9 km/h (3 Bft) S 180 0 min 0,0 UV-I 0 W/m 12,0 C 11,1 C 17,7 km/h (3 Bft)
06.10.2022 00:19 14,3 C 13,3 C 86 % 1022,8 hPa 0,0 l/m 17,7 km/h (3 Bft) S-SW 202 0 min 0,0 UV-I 0 W/m 12,0 C 9,5 C 27,4 km/h (4 Bft)
06.10.2022 00:20 14,3 C 13,3 C 86 % 1022,7 hPa 0,0 l/m 16,1 km/h (3 Bft) S-SW 202 0 min 0,0 UV-I 0 W/m 12,0 C 10,0 C 30,6 km/h (5 Bft)
06.10.2022 00:21 14,2 C 13,3 C 86 % 1022,8 hPa 0,0 l/m 17,7 km/h (3 Bft) S-SW 202 0 min 0,0 UV-I 0 W/m 11,9 C 9,4 C 25,7 km/h (4 Bft)
06.10.2022 00:22 14,2 C 13,3 C 87 % 1022,8 hPa 0,0 l/m 17,7 km/h (3 Bft) S-SW 202 0 min 0,0 UV-I 0 W/m 12,1 C 9,4 C 20,9 km/h (4 Bft)
06.10.2022 00:23 14,2 C 13,3 C 87 % 1022,7 hPa 0,0 l/m 16,1 km/h (3 Bft) S-SW 202 0 min 0,0 UV-I 0 W/m 12,1 C 9,9 C 24,1 km/h (4 Bft)
06.10.2022 00:24 14,2 C 13,3 C 87 % 1022,7 hPa 0,0 l/m 16,1 km/h (3 Bft) S 180 0 min 0,0 UV-I 0 W/m 12,1 C 9,9 C 20,9 km/h (4 Bft)
06.10.2022 00:25 14,2 C 13,3 C 87 % 1022,8 hPa 0,0 l/m 16,1 km/h (3 Bft) S-SW 202 0 min 0,0 UV-I 0 W/m 12,1 C 9,9 C 22,5 km/h (4 Bft)
06.10.2022 00:26 14,1 C 13,3 C 87 % 1022,7 hPa 0,0 l/m 16,1 km/h (3 Bft) S 180 0 min 0,0 UV-I 0 W/m 12,0 C 9,7 C 25,7 km/h (4 Bft)
06.10.2022 00:27 14,1 C 12,8 C 87 % 1022,7 hPa 0,0 l/m 19,3 km/h (3 Bft) S-SW 202 0 min 0,0 UV-I 0 W/m 12,0 C 8,8 C 25,7 km/h (4 Bft)
06.10.2022 00:28 14,1 C 12,8 C 87 % 1022,8 hPa 0,0 l/m 17,7 km/h (3 Bft) S-SW 202 0 min 0,0 UV-I 0 W/m 12,0 C 9,2 C 22,5 km/h (4 Bft)
06.10.2022 00:29 14,1 C 12,8 C 88 % 1022,8 hPa 0,0 l/m 14,5 km/h (3 Bft) S-SW 202 0 min 0,0 UV-I 0 W/m 12,1 C 10,3 C 19,3 km/h (3 Bft)
06.10.2022 00:30 14,1 C 12,8 C 88 % 1022,8 hPa 0,0 l/m 17,7 km/h (3 Bft) S-SW 202 0 min 0,0 UV-I 0 W/m 12,1 C 9,2 C 22,5 km/h (4 Bft)
06.10.2022 00:31 14,0 C 12,8 C 88 % 1022,9 hPa 0,0 l/m 19,3 km/h (3 Bft) S-SW 202 0 min 0,0 UV-I 0 W/m 12,0 C 8,6 C 27,4 km/h (4 Bft)
06.10.2022 00:32 14,0 C 12,8 C 88 % 1022,7 hPa 0,0 l/m 17,7 km/h (3 Bft) S-SW 202 0 min 0,0 UV-I 0 W/m 12,0 C 9,1 C 24,1 km/h (4 Bft)
06.10.2022 00:33 14,0 C 12,8 C 88 % 1022,8 hPa 0,0 l/m 14,5 km/h (3 Bft) S-SW 202 0 min 0,0 UV-I 0 W/m 12,0 C 10,2 C 22,5 km/h (4 Bft)
06.10.2022 00:34 14,0 C 12,8 C 88 % 1022,9 hPa 0,0 l/m 12,9 km/h (3 Bft) S-SW 202 0 min 0,0 UV-I 0 W/m 12,0 C 10,8 C 17,7 km/h (3 Bft)
06.10.2022 00:35 14,1 C 12,8 C 88 % 1022,9 hPa 0,0 l/m 11,3 km/h (2 Bft) S-SW 202 0 min 0,0 UV-I 0 W/m 12,1 C 11,5 C 17,7 km/h (3 Bft)
06.10.2022 00:36 14,0 C 12,8 C 88 % 1023,0 hPa 0,0 l/m 11,3 km/h (2 Bft) S 180 0 min 0,0 UV-I 0 W/m 12,0 C 11,4 C 19,3 km/h (3 Bft)
06.10.2022 00:37 14,0 C 12,8 C 88 % 1022,9 hPa 0,0 l/m 9,7 km/h (2 Bft) S 180 0 min 0,0 UV-I 0 W/m 12,0 C 12,2 C 14,5 km/h (3 Bft)
06.10.2022 00:38 13,9 C 12,8 C 88 % 1023,0 hPa 0,0 l/m 12,9 km/h (3 Bft) W-SW 247 0 min 0,0 UV-I 0 W/m 11,9 C 10,6 C 22,5 km/h (4 Bft)
06.10.2022 00:39 13,9 C 12,8 C 88 % 1023,1 hPa 0,0 l/m 17,7 km/h (3 Bft) W 270 0 min 0,0 UV-I 0 W/m 11,9 C 9,0 C 25,7 km/h (4 Bft)
06.10.2022 00:40 14,0 C 12,8 C 88 % 1023,4 hPa 0,0 l/m 19,3 km/h (3 Bft) SW 225 0 min 0,0 UV-I 0 W/m 12,0 C 8,6 C 25,7 km/h (4 Bft)
06.10.2022 00:41 13,9 C 12,8 C 88 % 1023,4 hPa 0,0 l/m 29,0 km/h (5 Bft) W-SW 247 0 min 0,0 UV-I 0 W/m 11,9 C 6,3 C 45,1 km/h (6 Bft)
06.10.2022 00:42 13,7 C 12,8 C 86 % 1023,4 hPa 0,0 l/m 25,7 km/h (4 Bft) W-SW 247 0 min 0,0 UV-I 0 W/m 11,4 C 6,7 C 45,1 km/h (6 Bft)
06.10.2022 00:43 13,5 C 12,2 C 86 % 1023,4 hPa 0,0 l/m 27,4 km/h (4 Bft) W-SW 247 0 min 0,0 UV-I 0 W/m 11,2 C 6,1 C 45,1 km/h (6 Bft)
06.10.2022 00:44 13,3 C 11,7 C 86 % 1023,4 hPa 0,0 l/m 20,9 km/h (4 Bft) W-SW 247 0 min 0,0 UV-I 0 W/m 11,0 C 7,3 C 32,2 km/h (5 Bft)
06.10.2022 00:45 13,1 C 11,7 C 86 % 1023,5 hPa 0,0 l/m 19,3 km/h (3 Bft) W 270 0 min 0,0 UV-I 0 W/m 10,8 C 7,5 C 27,4 km/h (4 Bft)
06.10.2022 00:46 12,9 C 11,7 C 86 % 1023,6 hPa 0,0 l/m 27,4 km/h (4 Bft) W-SW 247 0 min 0,0 UV-I 0 W/m 10,6 C 5,2 C 46,7 km/h (6 Bft)
06.10.2022 00:47 12,8 C 11,7 C 86 % 1023,6 hPa 0,0 l/m 24,1 km/h (4 Bft) W-SW 247 0 min 0,0 UV-I 0 W/m 10,5 C 5,8 C 46,7 km/h (6 Bft)
06.10.2022 00:48 12,8 C 11,7 C 86 % 1023,6 hPa 0,0 l/m 20,9 km/h (4 Bft) W 270 0 min 0,0 UV-I 0 W/m 10,5 C 6,7 C 32,2 km/h (5 Bft)
06.10.2022 00:49 12,7 C 11,1 C 86 % 1023,7 hPa 0,0 l/m 33,8 km/h (5 Bft) W 270 0 min 0,0 UV-I 0 W/m 10,4 C 3,8 C 48,3 km/h (6 Bft)
06.10.2022 00:50 12,6 C 11,1 C 86 % 1023,7 hPa 0,0 l/m 22,5 km/h (4 Bft) SW 225 0 min 0,0 UV-I 0 W/m 10,3 C 6,0 C 30,6 km/h (5 Bft)
06.10.2022 00:51 12,5 C 11,1 C 86 % 1023,7 hPa 0,0 l/m 19,3 km/h (3 Bft) W-SW 247 0 min 0,0 UV-I 0 W/m 10,2 C 6,7 C 35,4 km/h (5 Bft)
06.10.2022 00:52 12,4 C 11,1 C 86 % 1023,8 hPa 0,0 l/m 20,9 km/h (4 Bft) W 270 0 min 0,0 UV-I 0 W/m 10,1 C 6,1 C 41,8 km/h (6 Bft)
06.10.2022 00:53 12,4 C 11,1 C 86 % 1023,8 hPa 0,0 l/m 24,1 km/h (4 Bft) W-SW 247 0 min 0,0 UV-I 0 W/m 10,1 C 5,3 C 37,0 km/h (5 Bft)
06.10.2022 00:54 12,3 C 11,1 C 86 % 1023,8 hPa 0,0 l/m 17,7 km/h (3 Bft) SW 225 0 min 0,0 UV-I 0 W/m 10,0 C 7,0 C 29,0 km/h (5 Bft)
06.10.2022 00:55 12,2 C 11,1 C 86 % 1023,9 hPa 0,0 l/m 20,9 km/h (4 Bft) W-SW 247 0 min 0,0 UV-I 0 W/m 9,9 C 5,9 C 27,4 km/h (4 Bft)
06.10.2022 00:56 12,2 C 11,1 C 86 % 1023,8 hPa 0,0 l/m 16,1 km/h (3 Bft) W-SW 247 0 min 0,0 UV-I 0 W/m 9,9 C 7,4 C 20,9 km/h (4 Bft)
06.10.2022 00:57 12,2 C 11,1 C 86 % 1023,9 hPa 0,0 l/m 17,7 km/h (3 Bft) W-SW 247 0 min 0,0 UV-I 0 W/m 9,9 C 6,8 C 27,4 km/h (4 Bft)
06.10.2022 00:58 12,1 C 11,1 C 86 % 1023,9 hPa 0,0 l/m 12,9 km/h (3 Bft) W-SW 247 0 min 0,0 UV-I 0 W/m 9,8 C 8,5 C 19,3 km/h (3 Bft)
06.10.2022 00:59 12,1 C 11,1 C 86 % 1023,9 hPa 0,0 l/m 12,9 km/h (3 Bft) W-SW 247 0 min 0,0 UV-I 0 W/m 9,8 C 8,5 C 20,9 km/h (4 Bft)
06.10.2022 01:00 12,1 C 11,1 C 87 % 1023,9 hPa 0,0 l/m 17,7 km/h (3 Bft) W-SW 247 0 min 0,0 UV-I 0 W/m 10,0 C 6,7 C 30,6 km/h (5 Bft)
06.10.2022 01:01 12,1 C 11,1 C 87 % 1024,0 hPa 0,0 l/m 12,9 km/h (3 Bft) W-SW 247 0 min 0,0 UV-I 0 W/m 10,0 C 8,5 C 19,3 km/h (3 Bft)
06.10.2022 01:02 12,0 C 11,1 C 87 % 1023,9 hPa 0,0 l/m 12,9 km/h (3 Bft) SW 225 0 min 0,0 UV-I 0 W/m 9,9 C 8,4 C 22,5 km/h (4 Bft)
06.10.2022 01:03 12,0 C 11,1 C 87 % 1023,9 hPa 0,0 l/m 11,3 km/h (2 Bft) SW 225 0 min 0,0 UV-I 0 W/m 9,9 C 9,1 C 19,3 km/h (3 Bft)
06.10.2022 01:04 12,0 C 11,1 C 87 % 1024,0 hPa 0,0 l/m 11,3 km/h (2 Bft) SW 225 0 min 0,0 UV-I 0 W/m 9,9 C 9,1 C 17,7 km/h (3 Bft)
06.10.2022 01:05 11,9 C 11,1 C 87 % 1024,0 hPa 0,0 l/m 16,1 km/h (3 Bft) W-SW 247 0 min 0,0 UV-I 0 W/m 9,8 C 7,0 C 24,1 km/h (4 Bft)
06.10.2022 01:06 11,9 C 11,1 C 87 % 1024,0 hPa 0,0 l/m 14,5 km/h (3 Bft) SW 225 0 min 0,0 UV-I 0 W/m 9,8 C 7,6 C 17,7 km/h (3 Bft)
06.10.2022 01:07 11,9 C 11,1 C 87 % 1024,0 hPa 0,0 l/m 14,5 km/h (3 Bft) SW 225 0 min 0,0 UV-I 0 W/m 9,8 C 7,6 C 22,5 km/h (4 Bft)
06.10.2022 01:08 11,8 C 10,6 C 87 % 1024,0 hPa 0,0 l/m 8,0 km/h (2 Bft) SW 225 0 min 0,0 UV-I 0 W/m 9,7 C 10,7 C 17,7 km/h (3 Bft)
06.10.2022 01:09 11,8 C 10,6 C 88 % 1023,9 hPa 0,0 l/m 12,9 km/h (3 Bft) W-SW 247 0 min 0,0 UV-I 0 W/m 9,9 C 8,2 C 19,3 km/h (3 Bft)
06.10.2022 01:10 11,8 C 10,6 C 88 % 1024,0 hPa 0,0 l/m 14,5 km/h (3 Bft) SW 225 0 min 0,0 UV-I 0 W/m 9,9 C 7,5 C 24,1 km/h (4 Bft)
06.10.2022 01:11 11,8 C 10,6 C 88 % 1024,1 hPa 0,0 l/m 17,7 km/h (3 Bft) SW 225 0 min 0,0 UV-I 0 W/m 9,9 C 6,3 C 27,4 km/h (4 Bft)
06.10.2022 01:12 11,7 C 10,6 C 88 % 1024,1 hPa 0,0 l/m 9,7 km/h (2 Bft) SW 225 0 min 0,0 UV-I 0 W/m 9,8 C 9,6 C 19,3 km/h (3 Bft)
06.10.2022 01:13 11,7 C 10,6 C 88 % 1024,0 hPa 0,0 l/m 11,3 km/h (2 Bft) W-SW 247 0 min 0,0 UV-I 0 W/m 9,8 C 8,8 C 20,9 km/h (4 Bft)
06.10.2022 01:14 11,7 C 10,6 C 88 % 1024,0 hPa 0,0 l/m 9,7 km/h (2 Bft) SW 225 0 min 0,0 UV-I 0 W/m 9,8 C 9,6 C 19,3 km/h (3 Bft)
06.10.2022 01:15 11,7 C 10,6 C 88 % 1024,0 hPa 0,0 l/m 12,9 km/h (3 Bft) S-SW 202 0 min 0,0 UV-I 0 W/m 9,8 C 8,1 C 17,7 km/h (3 Bft)
06.10.2022 01:16 11,7 C 10,6 C 88 % 1024,1 hPa 0,0 l/m 11,3 km/h (2 Bft) S-SW 202 0 min 0,0 UV-I 0 W/m 9,8 C 8,8 C 16,1 km/h (3 Bft)
06.10.2022 01:17 11,6 C 10,6 C 89 % 1024,1 hPa 0,0 l/m 6,4 km/h (2 Bft) W-SW 247 0 min 0,0 UV-I 0 W/m 9,8 C 11,6 C 9,7 km/h (2 Bft)
06.10.2022 01:18 11,6 C 10,6 C 89 % 1024,0 hPa 0,0 l/m 11,3 km/h (2 Bft) SW 225 0 min 0,0 UV-I 0 W/m 9,8 C 8,7 C 17,7 km/h (3 Bft)
06.10.2022 01:19 11,6 C 10,6 C 89 % 1024,1 hPa 0,0 l/m 11,3 km/h (2 Bft) SW 225 0 min 0,0 UV-I 0 W/m 9,8 C 8,7 C 17,7 km/h (3 Bft)
06.10.2022 01:20 11,6 C 10,6 C 89 % 1024,0 hPa 0,0 l/m 9,7 km/h (2 Bft) SW 225 0 min 0,0 UV-I 0 W/m 9,8 C 9,5 C 12,9 km/h (3 Bft)
06.10.2022 01:21 11,6 C 10,6 C 89 % 1024,1 hPa 0,0 l/m 9,7 km/h (2 Bft) SW 225 0 min 0,0 UV-I 0 W/m 9,8 C 9,5 C 14,5 km/h (3 Bft)
06.10.2022 01:22 11,5 C 10,6 C 89 % 1024,1 hPa 0,0 l/m 12,9 km/h (3 Bft) S-SW 202 0 min 0,0 UV-I 0 W/m 9,8 C 7,8 C 14,5 km/h (3 Bft)
06.10.2022 01:23 11,5 C 10,6 C 89 % 1024,1 hPa 0,0 l/m 9,7 km/h (2 Bft) S-SW 202 0 min 0,0 UV-I 0 W/m 9,8 C 9,4 C 16,1 km/h (3 Bft)
06.10.2022 01:24 11,5 C 10,6 C 89 % 1024,1 hPa 0,0 l/m 12,9 km/h (3 Bft) S-SW 202 0 min 0,0 UV-I 0 W/m 9,8 C 7,8 C 17,7 km/h (3 Bft)
06.10.2022 01:25 11,5 C 10,6 C 89 % 1024,1 hPa 0,0 l/m 9,7 km/h (2 Bft) S-SW 202 0 min 0,0 UV-I 0 W/m 9,8 C 9,4 C 16,1 km/h (3 Bft)
06.10.2022 01:26 11,5 C 10,6 C 90 % 1024,1 hPa 0,0 l/m 9,7 km/h (2 Bft) S-SW 202 0 min 0,0 UV-I 0 W/m 9,9 C 9,4 C 16,1 km/h (3 Bft)
06.10.2022 01:27 11,4 C 10,6 C 89 % 1024,1 hPa 0,0 l/m 12,9 km/h (3 Bft) S-SW 202 0 min 0,0 UV-I 0 W/m 9,7 C 7,7 C 19,3 km/h (3 Bft)
06.10.2022 01:28 11,4 C 10,6 C 89 % 1024,1 hPa 0,0 l/m 8,0 km/h (2 Bft) S-SW 202 0 min 0,0 UV-I 0 W/m 9,7 C 10,3 C 12,9 km/h (3 Bft)
06.10.2022 01:29 11,4 C 10,6 C 90 % 1024,2 hPa 0,0 l/m 9,7 km/h (2 Bft) SW 225 0 min 0,0 UV-I 0 W/m 9,8 C 9,3 C 11,3 km/h (2 Bft)
06.10.2022 01:30 11,4 C 10,6 C 90 % 1024,2 hPa 0,0 l/m 9,7 km/h (2 Bft) SW 225 0 min 0,0 UV-I 0 W/m 9,8 C 9,3 C 16,1 km/h (3 Bft)
06.10.2022 01:31 11,5 C 10,6 C 90 % 1024,2 hPa 0,0 l/m 12,9 km/h (3 Bft) S-SW 202 0 min 0,0 UV-I 0 W/m 9,9 C 7,8 C 20,9 km/h (4 Bft)
06.10.2022 01:32 11,4 C 10,6 C 90 % 1024,2 hPa 0,0 l/m 8,0 km/h (2 Bft) SW 225 0 min 0,0 UV-I 0 W/m 9,8 C 10,3 C 12,9 km/h (3 Bft)
06.10.2022 01:33 11,5 C 10,6 C 90 % 1024,2 hPa 0,0 l/m 6,4 km/h (2 Bft) SW 225 0 min 0,0 UV-I 0 W/m 9,9 C 11,5 C 11,3 km/h (2 Bft)
06.10.2022 01:34 11,4 C 10,6 C 90 % 1024,2 hPa 0,0 l/m 4,8 km/h (1 Bft) S 180 0 min 0,0 UV-I 0 W/m 9,8 C 11,4 C 6,4 km/h (2 Bft)
06.10.2022 01:35 11,4 C 10,6 C 90 % 1024,2 hPa 0,0 l/m 8,0 km/h (2 Bft) SW 225 0 min 0,0 UV-I 0 W/m 9,8 C 10,3 C 16,1 km/h (3 Bft)
06.10.2022 01:36 11,4 C 10,6 C 90 % 1024,2 hPa 0,0 l/m 6,4 km/h (2 Bft) S 180 0 min 0,0 UV-I 0 W/m 9,8 C 11,4 C 11,3 km/h (2 Bft)
06.10.2022 01:37 11,4 C 10,6 C 90 % 1024,1 hPa 0,0 l/m 4,8 km/h (1 Bft) S 180 0 min 0,0 UV-I 0 W/m 9,8 C 11,4 C 6,4 km/h (2 Bft)
06.10.2022 01:38 11,4 C 10,6 C 90 % 1024,2 hPa 0,0 l/m 9,7 km/h (2 Bft) SW 225 0 min 0,0 UV-I 0 W/m 9,8 C 9,3 C 14,5 km/h (3 Bft)
06.10.2022 01:39 11,4 C 10,6 C 90 % 1024,2 hPa 0,0 l/m 12,9 km/h (3 Bft) S-SW 202 0 min 0,0 UV-I 0 W/m 9,8 C 7,7 C 19,3 km/h (3 Bft)
06.10.2022 01:40 11,4 C 10,6 C 90 % 1024,2 hPa 0,0 l/m 11,3 km/h (2 Bft) S-SW 202 0 min 0,0 UV-I 0 W/m 9,8 C 8,5 C 14,5 km/h (3 Bft)
06.10.2022 01:41 11,4 C 10,6 C 90 % 1024,1 hPa 0,0 l/m 11,3 km/h (2 Bft) S-SW 202 0 min 0,0 UV-I 0 W/m 9,8 C 8,5 C 14,5 km/h (3 Bft)
06.10.2022 01:42 11,4 C 10,6 C 90 % 1024,2 hPa 0,0 l/m 12,9 km/h (3 Bft) S-SW 202 0 min 0,0 UV-I 0 W/m 9,8 C 7,7 C 17,7 km/h (3 Bft)
06.10.2022 01:43 11,4 C 10,6 C 90 % 1024,3 hPa 0,0 l/m 9,7 km/h (2 Bft) S-SW 202 0 min 0,0 UV-I 0 W/m 9,8 C 9,3 C 12,9 km/h (3 Bft)
06.10.2022 01:44 11,4 C 10,6 C 90 % 1024,4 hPa 0,0 l/m 8,0 km/h (2 Bft) S 180 0 min 0,0 UV-I 0 W/m 9,8 C 10,3 C 11,3 km/h (2 Bft)
06.10.2022 01:45 11,4 C 10,6 C 90 % 1024,4 hPa 0,0 l/m 11,3 km/h (2 Bft) S-SW 202 0 min 0,0 UV-I 0 W/m 9,8 C 8,5 C 17,7 km/h (3 Bft)
06.10.2022 01:46 11,4 C 10,6 C 90 % 1024,4 hPa 0,0 l/m 9,7 km/h (2 Bft) S-SW 202 0 min 0,0 UV-I 0 W/m 9,8 C 9,3 C 11,3 km/h (2 Bft)
06.10.2022 01:47 11,4 C 10,6 C 90 % 1024,3 hPa 0,0 l/m 6,4 km/h (2 Bft) SW 225 0 min 0,0 UV-I 0 W/m 9,8 C 11,4 C 9,7 km/h (2 Bft)
06.10.2022 01:48 11,4 C 10,6 C 90 % 1024,4 hPa 0,0 l/m 8,0 km/h (2 Bft) S-SW 202 0 min 0,0 UV-I 0 W/m 9,8 C 10,3 C 12,9 km/h (3 Bft)
06.10.2022 01:49 11,4 C 10,6 C 90 % 1024,4 hPa 0,0 l/m 8,0 km/h (2 Bft) S-SW 202 0 min 0,0 UV-I 0 W/m 9,8 C 10,3 C 9,7 km/h (2 Bft)
06.10.2022 01:50 11,4 C 10,6 C 90 % 1024,3 hPa 0,0 l/m 8,0 km/h (2 Bft) S-SW 202 0 min 0,0 UV-I 0 W/m 9,8 C 10,3 C 9,7 km/h (2 Bft)
06.10.2022 01:51 11,4 C 10,6 C 90 % 1024,4 hPa 0,0 l/m 9,7 km/h (2 Bft) S-SW 202 0 min 0,0 UV-I 0 W/m 9,8 C 9,3 C 11,3 km/h (2 Bft)
06.10.2022 01:52 11,4 C 10,6 C 90 % 1024,4 hPa 0,0 l/m 9,7 km/h (2 Bft) S-SW 202 0 min 0,0 UV-I 0 W/m 9,8 C 9,3 C 14,5 km/h (3 Bft)
06.10.2022 01:53 11,4 C 10,6 C 90 % 1024,4 hPa 0,0 l/m 12,9 km/h (3 Bft) S-SW 202 0 min 0,0 UV-I 0 W/m 9,8 C 7,7 C 16,1 km/h (3 Bft)
06.10.2022 01:54 11,4 C 10,6 C 90 % 1024,4 hPa 0,0 l/m 11,3 km/h (2 Bft) S-SW 202 0 min 0,0 UV-I 0 W/m 9,8 C 8,5 C 16,1 km/h (3 Bft)
06.10.2022 01:55 11,4 C 10,6 C 90 % 1024,5 hPa 0,0 l/m 9,7 km/h (2 Bft) S-SW 202 0 min 0,0 UV-I 0 W/m 9,8 C 9,3 C 12,9 km/h (3 Bft)
06.10.2022 01:56 11,5 C 10,6 C 90 % 1024,5 hPa 0,0 l/m 9,7 km/h (2 Bft) S-SW 202 0 min 0,0 UV-I 0 W/m 9,9 C 9,4 C 12,9 km/h (3 Bft)
06.10.2022 01:57 11,5 C 10,6 C 90 % 1024,6 hPa 0,0 l/m 8,0 km/h (2 Bft) SW 225 0 min 0,0 UV-I 0 W/m 9,9 C 10,4 C 14,5 km/h (3 Bft)
06.10.2022 01:58 11,5 C 10,6 C 90 % 1024,5 hPa 0,0 l/m 4,8 km/h (1 Bft) SW 225 0 min 0,0 UV-I 0 W/m 9,9 C 11,5 C 8,0 km/h (2 Bft)
06.10.2022 01:59 11,5 C 10,6 C 90 % 1024,6 hPa 0,0 l/m 9,7 km/h (2 Bft) S-SW 202 0 min 0,0 UV-I 0 W/m 9,9 C 9,4 C 14,5 km/h (3 Bft)
06.10.2022 02:00 11,5 C 10,6 C 90 % 1024,6 hPa 0,0 l/m 9,7 km/h (2 Bft) S-SW 202 0 min 0,0 UV-I 0 W/m 9,9 C 9,4 C 12,9 km/h (3 Bft)
06.10.2022 02:01 11,5 C 10,6 C 90 % 1024,5 hPa 0,0 l/m 6,4 km/h (2 Bft) SW 225 0 min 0,0 UV-I 0 W/m 9,9 C 11,5 C 11,3 km/h (2 Bft)
06.10.2022 02:02 11,5 C 10,6 C 90 % 1024,5 hPa 0,0 l/m 8,0 km/h (2 Bft) SW 225 0 min 0,0 UV-I 0 W/m 9,9 C 10,4 C 12,9 km/h (3 Bft)
06.10.2022 02:03 11,5 C 10,6 C 90 % 1024,6 hPa 0,0 l/m 8,0 km/h (2 Bft) S-SW 202 0 min 0,0 UV-I 0 W/m 9,9 C 10,4 C 12,9 km/h (3 Bft)
06.10.2022 02:04 11,5 C 10,6 C 90 % 1024,6 hPa 0,0 l/m 9,7 km/h (2 Bft) SW 225 0 min 0,0 UV-I 0 W/m 9,9 C 9,4 C 14,5 km/h (3 Bft)
06.10.2022 02:05 11,6 C 10,6 C 90 % 1024,6 hPa 0,0 l/m 9,7 km/h (2 Bft) SW 225 0 min 0,0 UV-I 0 W/m 10,0 C 9,5 C 14,5 km/h (3 Bft)
06.10.2022 02:06 11,6 C 10,6 C 90 % 1024,6 hPa 0,0 l/m 9,7 km/h (2 Bft) S-SW 202 0 min 0,0 UV-I 0 W/m 10,0 C 9,5 C 14,5 km/h (3 Bft)
06.10.2022 02:07 11,6 C 10,6 C 90 % 1024,6 hPa 0,0 l/m 11,3 km/h (2 Bft) S-SW 202 0 min 0,0 UV-I 0 W/m 10,0 C 8,7 C 14,5 km/h (3 Bft)
06.10.2022 02:08 11,6 C 10,6 C 90 % 1024,6 hPa 0,0 l/m 9,7 km/h (2 Bft) S-SW 202 0 min 0,0 UV-I 0 W/m 10,0 C 9,5 C 14,5 km/h (3 Bft)
06.10.2022 02:09 11,6 C 11,1 C 90 % 1024,6 hPa 0,0 l/m 9,7 km/h (2 Bft) SW 225 0 min 0,0 UV-I 0 W/m 10,0 C 9,5 C 17,7 km/h (3 Bft)
06.10.2022 02:10 11,7 C 11,1 C 90 % 1024,6 hPa 0,0 l/m 11,3 km/h (2 Bft) SW 225 0 min 0,0 UV-I 0 W/m 10,1 C 8,8 C 20,9 km/h (4 Bft)
06.10.2022 02:11 11,7 C 11,1 C 90 % 1024,7 hPa 0,2 l/m 19,3 km/h (3 Bft) SW 225 0 min 0,0 UV-I 0 W/m 10,1 C 5,7 C 29,0 km/h (5 Bft)
06.10.2022 02:12 11,7 C 11,1 C 90 % 1024,7 hPa 0,0 l/m 12,9 km/h (3 Bft) SW 225 0 min 0,0 UV-I 0 W/m 10,1 C 8,1 C 19,3 km/h (3 Bft)
06.10.2022 02:13 11,7 C 11,1 C 90 % 1024,8 hPa 0,0 l/m 16,1 km/h (3 Bft) SW 225 0 min 0,0 UV-I 0 W/m 10,1 C 6,8 C 27,4 km/h (4 Bft)
06.10.2022 02:14 11,7 C 11,1 C 90 % 1024,7 hPa 0,0 l/m 9,7 km/h (2 Bft) S-SW 202 0 min 0,0 UV-I 0 W/m 10,1 C 9,6 C 16,1 km/h (3 Bft)
06.10.2022 02:15 11,7 C 11,1 C 90 % 1024,7 hPa 0,0 l/m 11,3 km/h (2 Bft) S-SW 202 0 min 0,0 UV-I 0 W/m 10,1 C 8,8 C 16,1 km/h (3 Bft)
06.10.2022 02:16 11,7 C 11,1 C 90 % 1024,7 hPa 0,0 l/m 9,7 km/h (2 Bft) S-SW 202 0 min 0,0 UV-I 0 W/m 10,1 C 9,6 C 14,5 km/h (3 Bft)
06.10.2022 02:17 11,7 C 11,1 C 90 % 1024,7 hPa 0,0 l/m 9,7 km/h (2 Bft) SW 225 0 min 0,0 UV-I 0 W/m 10,1 C 9,6 C 14,5 km/h (3 Bft)
06.10.2022 02:18 11,7 C 11,1 C 90 % 1024,7 hPa 0,0 l/m 9,7 km/h (2 Bft) SW 225 0 min 0,0 UV-I 0 W/m 10,1 C 9,6 C 14,5 km/h (3 Bft)
06.10.2022 02:19 11,7 C 11,1 C 90 % 1024,6 hPa 0,0 l/m 8,0 km/h (2 Bft) SW 225 0 min 0,0 UV-I 0 W/m 10,1 C 10,6 C 14,5 km/h (3 Bft)
06.10.2022 02:20 11,7 C 11,1 C 90 % 1024,6 hPa 0,0 l/m 12,9 km/h (3 Bft) W 270 0 min 0,0 UV-I 0 W/m 10,1 C 8,1 C 19,3 km/h (3 Bft)
06.10.2022 02:21 11,8 C 11,1 C 90 % 1024,8 hPa 0,0 l/m 14,5 km/h (3 Bft) SW 225 0 min 0,0 UV-I 0 W/m 10,2 C 7,5 C 22,5 km/h (4 Bft)
06.10.2022 02:22 11,8 C 11,1 C 90 % 1024,7 hPa 0,0 l/m 9,7 km/h (2 Bft) W-SW 247 0 min 0,0 UV-I 0 W/m 10,2 C 9,7 C 19,3 km/h (3 Bft)
06.10.2022 02:23 11,8 C 11,1 C 90 % 1024,9 hPa 0,0 l/m 12,9 km/h (3 Bft) W-SW 247 0 min 0,0 UV-I 0 W/m 10,2 C 8,2 C 20,9 km/h (4 Bft)
06.10.2022 02:24 11,8 C 11,1 C 90 % 1025,0 hPa 0,0 l/m 12,9 km/h (3 Bft) SW 225 0 min 0,0 UV-I 0 W/m 10,2 C 8,2 C 19,3 km/h (3 Bft)
06.10.2022 02:25 11,8 C 11,1 C 90 % 1025,0 hPa 0,0 l/m 19,3 km/h (3 Bft) W 270 0 min 0,0 UV-I 0 W/m 10,2 C 5,8 C 27,4 km/h (4 Bft)
06.10.2022 02:26 11,7 C 11,1 C 90 % 1025,1 hPa 0,0 l/m 14,5 km/h (3 Bft) W 270 0 min 0,0 UV-I 0 W/m 10,1 C 7,4 C 19,3 km/h (3 Bft)
06.10.2022 02:27 11,7 C 10,6 C 90 % 1025,1 hPa 0,0 l/m 12,9 km/h (3 Bft) W 270 0 min 0,0 UV-I 0 W/m 10,1 C 8,1 C 17,7 km/h (3 Bft)
06.10.2022 02:28 11,6 C 10,6 C 90 % 1025,1 hPa 0,0 l/m 19,3 km/h (3 Bft) W 270 0 min 0,0 UV-I 0 W/m 10,0 C 5,6 C 37,0 km/h (5 Bft)
06.10.2022 02:29 11,4 C 10,6 C 89 % 1025,1 hPa 0,0 l/m 19,3 km/h (3 Bft) W 270 0 min 0,0 UV-I 0 W/m 9,7 C 5,3 C 30,6 km/h (5 Bft)
06.10.2022 02:30 11,3 C 10,0 C 89 % 1025,1 hPa 0,0 l/m 16,1 km/h (3 Bft) W-SW 247 0 min 0,0 UV-I 0 W/m 9,6 C 6,3 C 29,0 km/h (5 Bft)
06.10.2022 02:31 11,2 C 10,0 C 89 % 1025,2 hPa 0,0 l/m 16,1 km/h (3 Bft) W-SW 247 0 min 0,0 UV-I 0 W/m 9,5 C 6,2 C 27,4 km/h (4 Bft)
06.10.2022 02:32 11,1 C 10,0 C 89 % 1025,2 hPa 0,0 l/m 12,9 km/h (3 Bft) SW 225 0 min 0,0 UV-I 0 W/m 9,4 C 7,4 C 19,3 km/h (3 Bft)
06.10.2022 02:33 11,1 C 10,0 C 89 % 1025,3 hPa 0,0 l/m 14,5 km/h (3 Bft) SW 225 0 min 0,0 UV-I 0 W/m 9,4 C 6,7 C 25,7 km/h (4 Bft)
06.10.2022 02:34 10,9 C 10,0 C 88 % 1025,4 hPa 0,0 l/m 11,3 km/h (2 Bft) SW 225 0 min 0,0 UV-I 0 W/m 9,0 C 7,9 C 19,3 km/h (3 Bft)
06.10.2022 02:35 10,9 C 10,0 C 88 % 1025,3 hPa 0,0 l/m 9,7 km/h (2 Bft) SW 225 0 min 0,0 UV-I 0 W/m 9,0 C 8,8 C 17,7 km/h (3 Bft)
06.10.2022 02:36 10,9 C 10,0 C 88 % 1025,4 hPa 0,0 l/m 12,9 km/h (3 Bft) SW 225 0 min 0,0 UV-I 0 W/m 9,0 C 7,1 C 17,7 km/h (3 Bft)
06.10.2022 02:37 10,9 C 10,0 C 88 % 1025,3 hPa 0,0 l/m 12,9 km/h (3 Bft) SW 225 0 min 0,0 UV-I 0 W/m 9,0 C 7,1 C 20,9 km/h (4 Bft)
06.10.2022 02:38 10,9 C 10,0 C 88 % 1025,3 hPa 0,0 l/m 11,3 km/h (2 Bft) W-SW 247 0 min 0,0 UV-I 0 W/m 9,0 C 7,9 C 17,7 km/h (3 Bft)
06.10.2022 02:39 10,9 C 10,0 C 88 % 1025,3 hPa 0,0 l/m 8,0 km/h (2 Bft) W 270 0 min 0,0 UV-I 0 W/m 9,0 C 9,8 C 16,1 km/h (3 Bft)
06.10.2022 02:40 10,9 C 10,0 C 88 % 1025,4 hPa 0,0 l/m 8,0 km/h (2 Bft) W-SW 247 0 min 0,0 UV-I 0 W/m 9,0 C 9,8 C 12,9 km/h (3 Bft)
06.10.2022 02:41 10,9 C 10,0 C 88 % 1025,4 hPa 0,0 l/m 8,0 km/h (2 Bft) SW 225 0 min 0,0 UV-I 0 W/m 9,0 C 9,8 C 12,9 km/h (3 Bft)
06.10.2022 02:42 10,9 C 10,0 C 88 % 1025,5 hPa 0,0 l/m 8,0 km/h (2 Bft) SW 225 0 min 0,0 UV-I 0 W/m 9,0 C 9,8 C 12,9 km/h (3 Bft)
06.10.2022 02:43 10,9 C 10,0 C 88 % 1025,4 hPa 0,0 l/m 12,9 km/h (3 Bft) SW 225 0 min 0,0 UV-I 0 W/m 9,0 C 7,1 C 17,7 km/h (3 Bft)
06.10.2022 02:44 11,0 C 10,0 C 88 % 1025,5 hPa 0,0 l/m 9,7 km/h (2 Bft) W-SW 247 0 min 0,0 UV-I 0 W/m 9,1 C 8,9 C 16,1 km/h (3 Bft)
06.10.2022 02:45 11,1 C 10,0 C 88 % 1025,5 hPa 0,0 l/m 12,9 km/h (3 Bft) W-SW 247 0 min 0,0 UV-I 0 W/m 9,2 C 7,4 C 22,5 km/h (4 Bft)
06.10.2022 02:46 11,1 C 10,0 C 88 % 1025,5 hPa 0,0 l/m 11,3 km/h (2 Bft) W-SW 247 0 min 0,0 UV-I 0 W/m 9,2 C 8,1 C 16,1 km/h (3 Bft)
06.10.2022 02:47 11,1 C 10,0 C 88 % 1025,5 hPa 0,0 l/m 8,0 km/h (2 Bft) W-SW 247 0 min 0,0 UV-I 0 W/m 9,2 C 10,0 C 14,5 km/h (3 Bft)
06.10.2022 02:48 11,1 C 10,0 C 88 % 1025,5 hPa 0,0 l/m 6,4 km/h (2 Bft) W-SW 247 0 min 0,0 UV-I 0 W/m 9,2 C 11,1 C 16,1 km/h (3 Bft)
06.10.2022 02:49 11,1 C 10,0 C 88 % 1025,6 hPa 0,0 l/m 12,9 km/h (3 Bft) SW 225 0 min 0,0 UV-I 0 W/m 9,2 C 7,4 C 20,9 km/h (4 Bft)
06.10.2022 02:50 11,1 C 10,0 C 88 % 1025,5 hPa 0,0 l/m 9,7 km/h (2 Bft) S-SW 202 0 min 0,0 UV-I 0 W/m 9,2 C 9,0 C 14,5 km/h (3 Bft)
06.10.2022 02:51 11,1 C 10,0 C 88 % 1025,5 hPa 0,0 l/m 6,4 km/h (2 Bft) W-SW 247 0 min 0,0 UV-I 0 W/m 9,2 C 11,1 C 11,3 km/h (2 Bft)
06.10.2022 02:52 11,1 C 10,0 C 88 % 1025,6 hPa 0,0 l/m 6,4 km/h (2 Bft) W-SW 247 0 min 0,0 UV-I 0 W/m 9,2 C 11,1 C 11,3 km/h (2 Bft)
06.10.2022 02:53 11,1 C 10,0 C 88 % 1025,6 hPa 0,0 l/m 9,7 km/h (2 Bft) SW 225 0 min 0,0 UV-I 0 W/m 9,2 C 9,0 C 14,5 km/h (3 Bft)
06.10.2022 02:54 11,1 C 10,0 C 88 % 1025,5 hPa 0,0 l/m 9,7 km/h (2 Bft) W-SW 247 0 min 0,0 UV-I 0 W/m 9,2 C 9,0 C 17,7 km/h (3 Bft)
06.10.2022 02:55 11,1 C 10,0 C 88 % 1025,5 hPa 0,0 l/m 6,4 km/h (2 Bft) SW 225 0 min 0,0 UV-I 0 W/m 9,2 C 11,1 C 9,7 km/h (2 Bft)
06.10.2022 02:56 11,1 C 10,0 C 88 % 1025,5 hPa 0,0 l/m 6,4 km/h (2 Bft) W-SW 247 0 min 0,0 UV-I 0 W/m 9,2 C 11,1 C 11,3 km/h (2 Bft)
06.10.2022 02:57 11,1 C 10,0 C 88 % 1025,6 hPa 0,0 l/m 9,7 km/h (2 Bft) SW 225 0 min 0,0 UV-I 0 W/m 9,2 C 9,0 C 12,9 km/h (3 Bft)
06.10.2022 02:58 11,1 C 10,0 C 88 % 1025,5 hPa 0,0 l/m 12,9 km/h (3 Bft) W-SW 247 0 min 0,0 UV-I 0 W/m 9,2 C 7,4 C 22,5 km/h (4 Bft)
06.10.2022 02:59 11,1 C 10,0 C 88 % 1025,6 hPa 0,0 l/m 11,3 km/h (2 Bft) W-SW 247 0 min 0,0 UV-I 0 W/m 9,2 C 8,1 C 14,5 km/h (3 Bft)
06.10.2022 03:00 11,2 C 10,0 C 88 % 1025,5 hPa 0,0 l/m 12,9 km/h (3 Bft) SW 225 0 min 0,0 UV-I 0 W/m 9,3 C 7,5 C 17,7 km/h (3 Bft)
06.10.2022 03:01 11,1 C 10,0 C 88 % 1025,6 hPa 0,0 l/m 9,7 km/h (2 Bft) W-SW 247 0 min 0,0 UV-I 0 W/m 9,2 C 9,0 C 19,3 km/h (3 Bft)
06.10.2022 03:02 11,2 C 10,0 C 88 % 1025,6 hPa 0,0 l/m 9,7 km/h (2 Bft) W-SW 247 0 min 0,0 UV-I 0 W/m 9,3 C 9,1 C 12,9 km/h (3 Bft)
06.10.2022 03:03 11,2 C 10,0 C 88 % 1025,6 hPa 0,0 l/m 12,9 km/h (3 Bft) W 270 0 min 0,0 UV-I 0 W/m 9,3 C 7,5 C 19,3 km/h (3 Bft)
06.10.2022 03:04 11,2 C 10,0 C 88 % 1025,6 hPa 0,0 l/m 11,3 km/h (2 Bft) W-SW 247 0 min 0,0 UV-I 0 W/m 9,3 C 8,2 C 19,3 km/h (3 Bft)
06.10.2022 03:05 11,1 C 10,0 C 88 % 1025,6 hPa 0,0 l/m 16,1 km/h (3 Bft) W-SW 247 0 min 0,0 UV-I 0 W/m 9,2 C 6,0 C 24,1 km/h (4 Bft)
06.10.2022 03:06 11,2 C 10,0 C 88 % 1025,6 hPa 0,0 l/m 9,7 km/h (2 Bft) W-SW 247 0 min 0,0 UV-I 0 W/m 9,3 C 9,1 C 14,5 km/h (3 Bft)
06.10.2022 03:07 11,2 C 10,6 C 88 % 1025,6 hPa 0,0 l/m 8,0 km/h (2 Bft) S 180 0 min 0,0 UV-I 0 W/m 9,3 C 10,1 C 19,3 km/h (3 Bft)
06.10.2022 03:08 11,2 C 10,6 C 88 % 1025,5 hPa 0,0 l/m 14,5 km/h (3 Bft) W-SW 247 0 min 0,0 UV-I 0 W/m 9,3 C 6,8 C 19,3 km/h (3 Bft)
06.10.2022 03:09 11,2 C 10,6 C 88 % 1025,5 hPa 0,0 l/m 16,1 km/h (3 Bft) W-SW 247 0 min 0,0 UV-I 0 W/m 9,3 C 6,2 C 22,5 km/h (4 Bft)
06.10.2022 03:10 11,1 C 10,6 C 88 % 1025,6 hPa 0,0 l/m 9,7 km/h (2 Bft) SW 225 0 min 0,0 UV-I 0 W/m 9,2 C 9,0 C 16,1 km/h (3 Bft)
06.10.2022 03:11 11,2 C 10,0 C 88 % 1025,6 hPa 0,0 l/m 9,7 km/h (2 Bft) W-SW 247 0 min 0,0 UV-I 0 W/m 9,3 C 9,1 C 16,1 km/h (3 Bft)
06.10.2022 03:12 11,1 C 10,0 C 88 % 1025,6 hPa 0,0 l/m 11,3 km/h (2 Bft) SW 225 0 min 0,0 UV-I 0 W/m 9,2 C 8,1 C 16,1 km/h (3 Bft)
06.10.2022 03:13 11,1 C 10,0 C 88 % 1025,6 hPa 0,0 l/m 14,5 km/h (3 Bft) W-SW 247 0 min 0,0 UV-I 0 W/m 9,2 C 6,7 C 17,7 km/h (3 Bft)
06.10.2022 03:14 11,2 C 10,0 C 88 % 1025,7 hPa 0,0 l/m 9,7 km/h (2 Bft) SW 225 0 min 0,0 UV-I 0 W/m 9,3 C 9,1 C 16,1 km/h (3 Bft)
06.10.2022 03:15 11,2 C 10,0 C 88 % 1025,8 hPa 0,0 l/m 14,5 km/h (3 Bft) W-SW 247 0 min 0,0 UV-I 0 W/m 9,3 C 6,8 C 19,3 km/h (3 Bft)
06.10.2022 03:16 11,1 C 10,6 C 88 % 1025,6 hPa 0,0 l/m 17,7 km/h (3 Bft) W-SW 247 0 min 0,0 UV-I 0 W/m 9,2 C 5,5 C 27,4 km/h (4 Bft)
06.10.2022 03:17 11,2 C 10,6 C 88 % 1025,7 hPa 0,0 l/m 14,5 km/h (3 Bft) W 270 0 min 0,0 UV-I 0 W/m 9,3 C 6,8 C 25,7 km/h (4 Bft)
06.10.2022 03:18 11,2 C 10,6 C 88 % 1025,7 hPa 0,0 l/m 14,5 km/h (3 Bft) SW 225 0 min 0,0 UV-I 0 W/m 9,3 C 6,8 C 19,3 km/h (3 Bft)
06.10.2022 03:19 11,2 C 10,6 C 88 % 1025,8 hPa 0,0 l/m 9,7 km/h (2 Bft) SW 225 0 min 0,0 UV-I 0 W/m 9,3 C 9,1 C 17,7 km/h (3 Bft)
06.10.2022 03:20 11,2 C 10,6 C 88 % 1025,7 hPa 0,0 l/m 16,1 km/h (3 Bft) W-SW 247 0 min 0,0 UV-I 0 W/m 9,3 C 6,2 C 25,7 km/h (4 Bft)
06.10.2022 03:21 11,2 C 10,6 C 88 % 1025,7 hPa 0,0 l/m 9,7 km/h (2 Bft) W-SW 247 0 min 0,0 UV-I 0 W/m 9,3 C 9,1 C 17,7 km/h (3 Bft)
06.10.2022 03:22 11,2 C 10,6 C 88 % 1025,8 hPa 0,0 l/m 14,5 km/h (3 Bft) W 270 0 min 0,0 UV-I 0 W/m 9,3 C 6,8 C 24,1 km/h (4 Bft)
06.10.2022 03:23 11,2 C 10,6 C 88 % 1025,8 hPa 0,0 l/m 9,7 km/h (2 Bft) SW 225 0 min 0,0 UV-I 0 W/m 9,3 C 9,1 C 14,5 km/h (3 Bft)
06.10.2022 03:24 11,2 C 10,6 C 88 % 1025,7 hPa 0,0 l/m 11,3 km/h (2 Bft) W 270 0 min 0,0 UV-I 0 W/m 9,3 C 8,2 C 19,3 km/h (3 Bft)
06.10.2022 03:25 11,2 C 10,6 C 88 % 1025,8 hPa 0,0 l/m 11,3 km/h (2 Bft) W-SW 247 0 min 0,0 UV-I 0 W/m 9,3 C 8,2 C 16,1 km/h (3 Bft)
06.10.2022 03:26 11,2 C 10,6 C 88 % 1025,9 hPa 0,0 l/m 6,4 km/h (2 Bft) SW 225 0 min 0,0 UV-I 0 W/m 9,3 C 11,2 C 16,1 km/h (3 Bft)
06.10.2022 03:27 11,2 C 10,6 C 88 % 1025,9 hPa 0,0 l/m 17,7 km/h (3 Bft) W-SW 247 0 min 0,0 UV-I 0 W/m 9,3 C 5,6 C 27,4 km/h (4 Bft)
06.10.2022 03:28 11,2 C 10,6 C 88 % 1025,9 hPa 0,0 l/m 16,1 km/h (3 Bft) W-SW 247 0 min 0,0 UV-I 0 W/m 9,3 C 6,2 C 22,5 km/h (4 Bft)
06.10.2022 03:29 11,2 C 10,6 C 88 % 1025,9 hPa 0,0 l/m 11,3 km/h (2 Bft) SW 225 0 min 0,0 UV-I 0 W/m 9,3 C 8,2 C 16,1 km/h (3 Bft)
06.10.2022 03:30 11,2 C 10,6 C 88 % 1025,8 hPa 0,0 l/m 9,7 km/h (2 Bft) SW 225 0 min 0,0 UV-I 0 W/m 9,3 C 9,1 C 14,5 km/h (3 Bft)
06.10.2022 03:31 11,2 C 10,6 C 88 % 1025,8 hPa 0,0 l/m 9,7 km/h (2 Bft) W 270 0 min 0,0 UV-I 0 W/m 9,3 C 9,1 C 16,1 km/h (3 Bft)
06.10.2022 03:32 11,2 C 10,6 C 88 % 1025,8 hPa 0,0 l/m 12,9 km/h (3 Bft) W 270 0 min 0,0 UV-I 0 W/m 9,3 C 7,5 C 19,3 km/h (3 Bft)
06.10.2022 03:33 11,2 C 10,6 C 88 % 1025,9 hPa 0,0 l/m 11,3 km/h (2 Bft) SW 225 0 min 0,0 UV-I 0 W/m 9,3 C 8,2 C 16,1 km/h (3 Bft)
06.10.2022 03:34 11,2 C 10,6 C 88 % 1025,8 hPa 0,0 l/m 8,0 km/h (2 Bft) SW 225 0 min 0,0 UV-I 0 W/m 9,3 C 10,1 C 14,5 km/h (3 Bft)
06.10.2022 03:35 11,2 C 10,0 C 88 % 1025,9 hPa 0,0 l/m 11,3 km/h (2 Bft) W-SW 247 0 min 0,0 UV-I 0 W/m 9,3 C 8,2 C 14,5 km/h (3 Bft)
06.10.2022 03:36 11,2 C 10,0 C 88 % 1025,9 hPa 0,0 l/m 9,7 km/h (2 Bft) W-SW 247 0 min 0,0 UV-I 0 W/m 9,3 C 9,1 C 12,9 km/h (3 Bft)
06.10.2022 03:37 11,1 C 10,0 C 88 % 1025,9 hPa 0,0 l/m 9,7 km/h (2 Bft) W-SW 247 0 min 0,0 UV-I 0 W/m 9,2 C 9,0 C 16,1 km/h (3 Bft)
06.10.2022 03:38 11,1 C 10,0 C 88 % 1025,9 hPa 0,0 l/m 8,0 km/h (2 Bft) SW 225 0 min 0,0 UV-I 0 W/m 9,2 C 10,0 C 12,9 km/h (3 Bft)
06.10.2022 03:39 11,1 C 10,0 C 88 % 1026,0 hPa 0,0 l/m 12,9 km/h (3 Bft) W-SW 247 0 min 0,0 UV-I 0 W/m 9,2 C 7,4 C 17,7 km/h (3 Bft)
06.10.2022 03:40 11,1 C 10,0 C 88 % 1025,9 hPa 0,0 l/m 6,4 km/h (2 Bft) SW 225 0 min 0,0 UV-I 0 W/m 9,2 C 11,1 C 9,7 km/h (2 Bft)
06.10.2022 03:41 11,1 C 10,0 C 88 % 1026,0 hPa 0,0 l/m 6,4 km/h (2 Bft) W-SW 247 0 min 0,0 UV-I 0 W/m 9,2 C 11,1 C 11,3 km/h (2 Bft)
06.10.2022 03:42 11,1 C 10,0 C 88 % 1025,9 hPa 0,0 l/m 9,7 km/h (2 Bft) W-SW 247 0 min 0,0 UV-I 0 W/m 9,2 C 9,0 C 14,5 km/h (3 Bft)
06.10.2022 03:43 11,1 C 10,0 C 88 % 1025,9 hPa 0,0 l/m 12,9 km/h (3 Bft) SW 225 0 min 0,0 UV-I 0 W/m 9,2 C 7,4 C 25,7 km/h (4 Bft)
06.10.2022 03:44 11,1 C 10,0 C 88 % 1026,0 hPa 0,0 l/m 12,9 km/h (3 Bft) W-SW 247 0 min 0,0 UV-I 0 W/m 9,2 C 7,4 C 17,7 km/h (3 Bft)
06.10.2022 03:45 11,1 C 10,0 C 88 % 1026,0 hPa 0,0 l/m 11,3 km/h (2 Bft) W-SW 247 0 min 0,0 UV-I 0 W/m 9,2 C 8,1 C 16,1 km/h (3 Bft)
06.10.2022 03:46 11,1 C 10,0 C 88 % 1026,0 hPa 0,0 l/m 9,7 km/h (2 Bft) W-SW 247 0 min 0,0 UV-I 0 W/m 9,2 C 9,0 C 12,9 km/h (3 Bft)
06.10.2022 03:47 11,1 C 10,0 C 88 % 1025,9 hPa 0,0 l/m 8,0 km/h (2 Bft) SW 225 0 min 0,0 UV-I 0 W/m 9,2 C 10,0 C 11,3 km/h (2 Bft)
06.10.2022 03:48 11,0 C 10,0 C 88 % 1026,0 hPa 0,0 l/m 6,4 km/h (2 Bft) SW 225 0 min 0,0 UV-I 0 W/m 9,1 C 11,0 C 11,3 km/h (2 Bft)
06.10.2022 03:49 11,0 C 10,0 C 88 % 1026,0 hPa 0,0 l/m 6,4 km/h (2 Bft) SW 225 0 min 0,0 UV-I 0 W/m 9,1 C 11,0 C 11,3 km/h (2 Bft)
06.10.2022 03:50 10,9 C 9,4 C 88 % 1025,9 hPa 0,0 l/m 9,7 km/h (2 Bft) W-SW 247 0 min 0,0 UV-I 0 W/m 9,0 C 8,8 C 17,7 km/h (3 Bft)
06.10.2022 03:51 10,9 C 9,4 C 88 % 1026,0 hPa 0,0 l/m 17,7 km/h (3 Bft) W 270 0 min 0,0 UV-I 0 W/m 9,0 C 5,2 C 24,1 km/h (4 Bft)
06.10.2022 03:52 10,9 C 9,4 C 88 % 1026,0 hPa 0,0 l/m 14,5 km/h (3 Bft) W 270 0 min 0,0 UV-I 0 W/m 9,0 C 6,4 C 20,9 km/h (4 Bft)
06.10.2022 03:53 10,9 C 9,4 C 88 % 1026,0 hPa 0,0 l/m 8,0 km/h (2 Bft) SW 225 0 min 0,0 UV-I 0 W/m 9,0 C 9,8 C 14,5 km/h (3 Bft)
06.10.2022 03:54 10,8 C 9,4 C 88 % 1026,1 hPa 0,0 l/m 4,8 km/h (1 Bft) SW 225 0 min 0,0 UV-I 0 W/m 8,9 C 10,8 C 6,4 km/h (2 Bft)
06.10.2022 03:55 10,8 C 9,4 C 88 % 1026,1 hPa 0,0 l/m 9,7 km/h (2 Bft) S-SW 202 0 min 0,0 UV-I 0 W/m 8,9 C 8,6 C 14,5 km/h (3 Bft)
06.10.2022 03:56 10,8 C 9,4 C 87 % 1026,0 hPa 0,0 l/m 8,0 km/h (2 Bft) W 270 0 min 0,0 UV-I 0 W/m 8,7 C 9,7 C 12,9 km/h (3 Bft)
06.10.2022 03:57 10,8 C 9,4 C 87 % 1026,0 hPa 0,0 l/m 6,4 km/h (2 Bft) W-SW 247 0 min 0,0 UV-I 0 W/m 8,7 C 10,8 C 8,0 km/h (2 Bft)
06.10.2022 03:58 10,7 C 9,4 C 88 % 1026,0 hPa 0,0 l/m 8,0 km/h (2 Bft) W-SW 247 0 min 0,0 UV-I 0 W/m 8,8 C 9,6 C 11,3 km/h (2 Bft)
06.10.2022 03:59 10,7 C 9,4 C 88 % 1026,1 hPa 0,0 l/m 12,9 km/h (3 Bft) W-SW 247 0 min 0,0 UV-I 0 W/m 8,8 C 6,9 C 19,3 km/h (3 Bft)
06.10.2022 04:00 10,8 C 9,4 C 88 % 1026,1 hPa 0,0 l/m 9,7 km/h (2 Bft) SW 225 0 min 0,0 UV-I 0 W/m 8,9 C 8,6 C 14,5 km/h (3 Bft)
06.10.2022 04:01 10,7 C 9,4 C 88 % 1026,1 hPa 0,0 l/m 8,0 km/h (2 Bft) W-SW 247 0 min 0,0 UV-I 0 W/m 8,8 C 9,6 C 14,5 km/h (3 Bft)
06.10.2022 04:02 10,8 C 9,4 C 88 % 1026,0 hPa 0,0 l/m 8,0 km/h (2 Bft) SW 225 0 min 0,0 UV-I 0 W/m 8,9 C 9,7 C 16,1 km/h (3 Bft)
06.10.2022 04:03 10,8 C 10,0 C 88 % 1026,0 hPa 0,0 l/m 9,7 km/h (2 Bft) W-SW 247 0 min 0,0 UV-I 0 W/m 8,9 C 8,6 C 12,9 km/h (3 Bft)
06.10.2022 04:04 10,8 C 10,0 C 88 % 1026,0 hPa 0,0 l/m 6,4 km/h (2 Bft) W-SW 247 0 min 0,0 UV-I 0 W/m 8,9 C 10,8 C 11,3 km/h (2 Bft)
06.10.2022 04:05 10,8 C 10,0 C 88 % 1026,1 hPa 0,0 l/m 4,8 km/h (1 Bft) W-SW 247 0 min 0,0 UV-I 0 W/m 8,9 C 10,8 C 8,0 km/h (2 Bft)
06.10.2022 04:06 10,8 C 10,0 C 88 % 1026,0 hPa 0,0 l/m 3,2 km/h (1 Bft) W-SW 247 0 min 0,0 UV-I 0 W/m 8,9 C 10,8 C 6,4 km/h (2 Bft)
06.10.2022 04:07 10,8 C 10,0 C 88 % 1026,1 hPa 0,0 l/m 4,8 km/h (1 Bft) W-SW 247 0 min 0,0 UV-I 0 W/m 8,9 C 10,8 C 8,0 km/h (2 Bft)
06.10.2022 04:08 10,8 C 10,0 C 88 % 1026,1 hPa 0,0 l/m 4,8 km/h (1 Bft) SW 225 0 min 0,0 UV-I 0 W/m 8,9 C 10,8 C 8,0 km/h (2 Bft)
06.10.2022 04:09 10,8 C 10,0 C 88 % 1026,1 hPa 0,0 l/m 6,4 km/h (2 Bft) SW 225 0 min 0,0 UV-I 0 W/m 8,9 C 10,8 C 14,5 km/h (3 Bft)
06.10.2022 04:10 10,8 C 10,0 C 88 % 1026,1 hPa 0,0 l/m 4,8 km/h (1 Bft) SW 225 0 min 0,0 UV-I 0 W/m 8,9 C 10,8 C 8,0 km/h (2 Bft)
06.10.2022 04:11 10,8 C 10,0 C 88 % 1026,1 hPa 0,0 l/m 8,0 km/h (2 Bft) W-SW 247 0 min 0,0 UV-I 0 W/m 8,9 C 9,7 C 14,5 km/h (3 Bft)
06.10.2022 04:12 10,8 C 10,0 C 88 % 1026,1 hPa 0,0 l/m 9,7 km/h (2 Bft) SW 225 0 min 0,0 UV-I 0 W/m 8,9 C 8,6 C 16,1 km/h (3 Bft)
06.10.2022 04:13 10,8 C 10,0 C 88 % 1026,2 hPa 0,0 l/m 4,8 km/h (1 Bft) SW 225 0 min 0,0 UV-I 0 W/m 8,9 C 10,8 C 6,4 km/h (2 Bft)
06.10.2022 04:14 10,8 C 10,0 C 88 % 1026,1 hPa 0,0 l/m 3,2 km/h (1 Bft) SW 225 0 min 0,0 UV-I 0 W/m 8,9 C 10,8 C 4,8 km/h (1 Bft)
06.10.2022 04:15 10,8 C 10,0 C 88 % 1026,1 hPa 0,0 l/m 3,2 km/h (1 Bft) SW 225 0 min 0,0 UV-I 0 W/m 8,9 C 10,8 C 4,8 km/h (1 Bft)
06.10.2022 04:16 10,8 C 10,0 C 88 % 1026,2 hPa 0,0 l/m 9,7 km/h (2 Bft) SW 225 0 min 0,0 UV-I 0 W/m 8,9 C 8,6 C 19,3 km/h (3 Bft)
06.10.2022 04:17 10,8 C 10,0 C 88 % 1026,2 hPa 0,0 l/m 9,7 km/h (2 Bft) W-NW 292 0 min 0,0 UV-I 0 W/m 8,9 C 8,6 C 16,1 km/h (3 Bft)
06.10.2022 04:18 10,8 C 10,0 C 88 % 1026,3 hPa 0,0 l/m 8,0 km/h (2 Bft) S-SW 202 0 min 0,0 UV-I 0 W/m 8,9 C 9,7 C 9,7 km/h (2 Bft)
06.10.2022 04:19 10,8 C 10,0 C 88 % 1026,3 hPa 0,0 l/m 8,0 km/h (2 Bft) W-SW 247 0 min 0,0 UV-I 0 W/m 8,9 C 9,7 C 11,3 km/h (2 Bft)
06.10.2022 04:20 10,8 C 10,0 C 88 % 1026,3 hPa 0,0 l/m 6,4 km/h (2 Bft) S-SW 202 0 min 0,0 UV-I 0 W/m 8,9 C 10,8 C 9,7 km/h (2 Bft)
06.10.2022 04:21 10,8 C 10,0 C 88 % 1026,2 hPa 0,0 l/m 8,0 km/h (2 Bft) SW 225 0 min 0,0 UV-I 0 W/m 8,9 C 9,7 C 9,7 km/h (2 Bft)
06.10.2022 04:22 10,8 C 9,4 C 88 % 1026,3 hPa 0,0 l/m 8,0 km/h (2 Bft) SW 225 0 min 0,0 UV-I 0 W/m 8,9 C 9,7 C 11,3 km/h (2 Bft)
06.10.2022 04:23 10,8 C 9,4 C 88 % 1026,3 hPa 0,0 l/m 6,4 km/h (2 Bft) SW 225 0 min 0,0 UV-I 0 W/m 8,9 C 10,8 C 9,7 km/h (2 Bft)
06.10.2022 04:24 10,8 C 9,4 C 88 % 1026,2 hPa 0,0 l/m 9,7 km/h (2 Bft) W-SW 247 0 min 0,0 UV-I 0 W/m 8,9 C 8,6 C 20,9 km/h (4 Bft)
06.10.2022 04:25 10,7 C 9,4 C 88 % 1026,3 hPa 0,0 l/m 8,0 km/h (2 Bft) SW 225 0 min 0,0 UV-I 0 W/m 8,8 C 9,6 C 11,3 km/h (2 Bft)
06.10.2022 04:26 10,7 C 9,4 C 88 % 1026,3 hPa 0,0 l/m 9,7 km/h (2 Bft) W-SW 247 0 min 0,0 UV-I 0 W/m 8,8 C 8,5 C 16,1 km/h (3 Bft)
06.10.2022 04:27 10,7 C 9,4 C 88 % 1026,3 hPa 0,0 l/m 12,9 km/h (3 Bft) SW 225 0 min 0,0 UV-I 0 W/m 8,8 C 6,9 C 19,3 km/h (3 Bft)
06.10.2022 04:28 10,6 C 9,4 C 88 % 1026,3 hPa 0,0 l/m 11,3 km/h (2 Bft) S-SW 202 0 min 0,0 UV-I 0 W/m 8,7 C 7,6 C 17,7 km/h (3 Bft)
06.10.2022 04:29 10,6 C 9,4 C 87 % 1026,3 hPa 0,0 l/m 9,7 km/h (2 Bft) W-SW 247 0 min 0,0 UV-I 0 W/m 8,5 C 8,4 C 16,1 km/h (3 Bft)
06.10.2022 04:30 10,6 C 9,4 C 87 % 1026,4 hPa 0,0 l/m 6,4 km/h (2 Bft) W-SW 247 0 min 0,0 UV-I 0 W/m 8,5 C 10,6 C 9,7 km/h (2 Bft)
06.10.2022 04:31 10,6 C 9,4 C 87 % 1026,4 hPa 0,0 l/m 11,3 km/h (2 Bft) W-SW 247 0 min 0,0 UV-I 0 W/m 8,5 C 7,6 C 14,5 km/h (3 Bft)
06.10.2022 04:32 10,6 C 8,9 C 87 % 1026,3 hPa 0,0 l/m 9,7 km/h (2 Bft) W 270 0 min 0,0 UV-I 0 W/m 8,5 C 8,4 C 16,1 km/h (3 Bft)
06.10.2022 04:33 10,5 C 8,9 C 87 % 1026,5 hPa 0,0 l/m 11,3 km/h (2 Bft) W-SW 247 0 min 0,0 UV-I 0 W/m 8,4 C 7,4 C 16,1 km/h (3 Bft)
06.10.2022 04:34 10,4 C 8,9 C 87 % 1026,6 hPa 0,0 l/m 9,7 km/h (2 Bft) SW 225 0 min 0,0 UV-I 0 W/m 8,3 C 8,2 C 17,7 km/h (3 Bft)
06.10.2022 04:35 10,4 C 8,9 C 87 % 1026,5 hPa 0,0 l/m 9,7 km/h (2 Bft) W 270 0 min 0,0 UV-I 0 W/m 8,3 C 8,2 C 16,1 km/h (3 Bft)
06.10.2022 04:36 10,4 C 8,9 C 87 % 1026,5 hPa 0,0 l/m 8,0 km/h (2 Bft) W-SW 247 0 min 0,0 UV-I 0 W/m 8,3 C 9,3 C 11,3 km/h (2 Bft)
06.10.2022 04:37 10,3 C 8,9 C 87 % 1026,5 hPa 0,0 l/m 6,4 km/h (2 Bft) W-SW 247 0 min 0,0 UV-I 0 W/m 8,2 C 10,3 C 11,3 km/h (2 Bft)
06.10.2022 04:38 10,3 C 8,9 C 87 % 1026,4 hPa 0,0 l/m 8,0 km/h (2 Bft) W-SW 247 0 min 0,0 UV-I 0 W/m 8,2 C 9,2 C 20,9 km/h (4 Bft)
06.10.2022 04:39 10,2 C 8,9 C 87 % 1026,4 hPa 0,0 l/m 16,1 km/h (3 Bft) W-SW 247 0 min 0,0 UV-I 0 W/m 8,1 C 4,9 C 22,5 km/h (4 Bft)
06.10.2022 04:40 10,2 C 8,9 C 86 % 1026,5 hPa 0,0 l/m 11,3 km/h (2 Bft) SW 225 0 min 0,0 UV-I 0 W/m 8,0 C 7,1 C 17,7 km/h (3 Bft)
06.10.2022 04:41 10,2 C 8,9 C 86 % 1026,5 hPa 0,0 l/m 11,3 km/h (2 Bft) SW 225 0 min 0,0 UV-I 0 W/m 8,0 C 7,1 C 16,1 km/h (3 Bft)
06.10.2022 04:42 10,2 C 8,9 C 86 % 1026,4 hPa 0,0 l/m 9,7 km/h (2 Bft) W-SW 247 0 min 0,0 UV-I 0 W/m 8,0 C 8,0 C 17,7 km/h (3 Bft)
06.10.2022 04:43 10,2 C 8,9 C 86 % 1026,4 hPa 0,0 l/m 11,3 km/h (2 Bft) SW 225 0 min 0,0 UV-I 0 W/m 8,0 C 7,1 C 17,7 km/h (3 Bft)
06.10.2022 04:44 10,2 C 8,9 C 86 % 1026,5 hPa 0,0 l/m 6,4 km/h (2 Bft) W-SW 247 0 min 0,0 UV-I 0 W/m 8,0 C 10,2 C 9,7 km/h (2 Bft)
06.10.2022 04:45 10,1 C 8,9 C 86 % 1026,5 hPa 0,0 l/m 6,4 km/h (2 Bft) W-SW 247 0 min 0,0 UV-I 0 W/m 7,9 C 10,1 C 9,7 km/h (2 Bft)
06.10.2022 04:46 10,1 C 8,3 C 86 % 1026,5 hPa 0,0 l/m 12,9 km/h (3 Bft) W-SW 247 0 min 0,0 UV-I 0 W/m 7,9 C 6,2 C 19,3 km/h (3 Bft)
06.10.2022 04:47 10,1 C 8,9 C 86 % 1026,5 hPa 0,0 l/m 8,0 km/h (2 Bft) SW 225 0 min 0,0 UV-I 0 W/m 7,9 C 9,0 C 14,5 km/h (3 Bft)
06.10.2022 04:48 10,1 C 8,3 C 86 % 1026,7 hPa 0,0 l/m 8,0 km/h (2 Bft) SW 225 0 min 0,0 UV-I 0 W/m 7,9 C 9,0 C 14,5 km/h (3 Bft)
06.10.2022 04:49 10,1 C 8,3 C 86 % 1026,7 hPa 0,0 l/m 8,0 km/h (2 Bft) W-SW 247 0 min 0,0 UV-I 0 W/m 7,9 C 9,0 C 12,9 km/h (3 Bft)
06.10.2022 04:50 10,1 C 8,3 C 86 % 1026,7 hPa 0,0 l/m 8,0 km/h (2 Bft) W-SW 247 0 min 0,0 UV-I 0 W/m 7,9 C 9,0 C 11,3 km/h (2 Bft)
06.10.2022 04:51 10,1 C 8,3 C 86 % 1026,7 hPa 0,0 l/m 8,0 km/h (2 Bft) SW 225 0 min 0,0 UV-I 0 W/m 7,9 C 9,0 C 12,9 km/h (3 Bft)
06.10.2022 04:52 10,1 C 8,3 C 86 % 1026,7 hPa 0,0 l/m 14,5 km/h (3 Bft) W-SW 247 0 min 0,0 UV-I 0 W/m 7,9 C 5,5 C 17,7 km/h (3 Bft)
06.10.2022 04:53 10,1 C 8,3 C 86 % 1026,6 hPa 0,0 l/m 9,7 km/h (2 Bft) SW 225 0 min 0,0 UV-I 0 W/m 7,9 C 7,9 C 14,5 km/h (3 Bft)
06.10.2022 04:54 10,1 C 8,9 C 86 % 1026,6 hPa 0,0 l/m 4,8 km/h (1 Bft) SW 225 0 min 0,0 UV-I 0 W/m 7,9 C 10,1 C 9,7 km/h (2 Bft)
06.10.2022 04:55 10,1 C 8,3 C 86 % 1026,6 hPa 0,0 l/m 6,4 km/h (2 Bft) SW 225 0 min 0,0 UV-I 0 W/m 7,9 C 10,1 C 9,7 km/h (2 Bft)
06.10.2022 04:56 10,0 C 8,3 C 86 % 1026,8 hPa 0,0 l/m 9,7 km/h (2 Bft) SW 225 0 min 0,0 UV-I 0 W/m 7,8 C 7,8 C 16,1 km/h (3 Bft)
06.10.2022 04:57 9,9 C 8,3 C 86 % 1026,7 hPa 0,0 l/m 14,5 km/h (3 Bft) W-SW 247 0 min 0,0 UV-I 0 W/m 7,7 C 5,2 C 24,1 km/h (4 Bft)
06.10.2022 04:58 9,9 C 8,3 C 86 % 1026,9 hPa 0,0 l/m 6,4 km/h (2 Bft) W-SW 247 0 min 0,0 UV-I 0 W/m 7,7 C 9,9 C 11,3 km/h (2 Bft)
06.10.2022 04:59 9,9 C 8,3 C 86 % 1026,9 hPa 0,0 l/m 6,4 km/h (2 Bft) W-SW 247 0 min 0,0 UV-I 0 W/m 7,7 C 9,9 C 11,3 km/h (2 Bft)
06.10.2022 05:00 9,9 C 8,3 C 86 % 1027,0 hPa 0,0 l/m 4,8 km/h (1 Bft) W-SW 247 0 min 0,0 UV-I 0 W/m 7,7 C 9,9 C 6,4 km/h (2 Bft)
06.10.2022 05:01 9,9 C 8,3 C 86 % 1026,8 hPa 0,0 l/m 4,8 km/h (1 Bft) S 180 0 min 0,0 UV-I 0 W/m 7,7 C 9,9 C 11,3 km/h (2 Bft)
06.10.2022 05:02 9,8 C 8,3 C 86 % 1026,8 hPa 0,0 l/m 9,7 km/h (2 Bft) W 270 0 min 0,0 UV-I 0 W/m 7,6 C 7,6 C 14,5 km/h (3 Bft)
06.10.2022 05:03 9,8 C 8,3 C 86 % 1026,9 hPa 0,0 l/m 9,7 km/h (2 Bft) SW 225 0 min 0,0 UV-I 0 W/m 7,6 C 7,6 C 11,3 km/h (2 Bft)
06.10.2022 05:04 9,8 C 8,3 C 86 % 1026,8 hPa 0,0 l/m 9,7 km/h (2 Bft) W-SW 247 0 min 0,0 UV-I 0 W/m 7,6 C 7,6 C 16,1 km/h (3 Bft)
06.10.2022 05:05 9,8 C 8,3 C 86 % 1026,8 hPa 0,0 l/m 8,0 km/h (2 Bft) SW 225 0 min 0,0 UV-I 0 W/m 7,6 C 8,6 C 12,9 km/h (3 Bft)
06.10.2022 05:06 9,8 C 8,3 C 86 % 1026,9 hPa 0,0 l/m 6,4 km/h (2 Bft) SW 225 0 min 0,0 UV-I 0 W/m 7,6 C 9,8 C 14,5 km/h (3 Bft)
06.10.2022 05:07 9,8 C 8,3 C 86 % 1026,9 hPa 0,0 l/m 6,4 km/h (2 Bft) W-SW 247 0 min 0,0 UV-I 0 W/m 7,6 C 9,8 C 12,9 km/h (3 Bft)
06.10.2022 05:08 9,8 C 8,3 C 86 % 1026,9 hPa 0,0 l/m 14,5 km/h (3 Bft) W-SW 247 0 min 0,0 UV-I 0 W/m 7,6 C 5,1 C 19,3 km/h (3 Bft)
06.10.2022 05:09 9,8 C 8,3 C 85 % 1026,9 hPa 0,0 l/m 8,0 km/h (2 Bft) W-SW 247 0 min 0,0 UV-I 0 W/m 7,4 C 8,6 C 14,5 km/h (3 Bft)
06.10.2022 05:10 9,8 C 8,3 C 85 % 1026,9 hPa 0,0 l/m 6,4 km/h (2 Bft) W-SW 247 0 min 0,0 UV-I 0 W/m 7,4 C 9,8 C 9,7 km/h (2 Bft)
06.10.2022 05:11 9,8 C 8,3 C 85 % 1027,0 hPa 0,0 l/m 11,3 km/h (2 Bft) W 270 0 min 0,0 UV-I 0 W/m 7,4 C 6,6 C 17,7 km/h (3 Bft)
06.10.2022 05:12 9,7 C 8,3 C 85 % 1027,0 hPa 0,0 l/m 14,5 km/h (3 Bft) W-SW 247 0 min 0,0 UV-I 0 W/m 7,3 C 5,0 C 22,5 km/h (4 Bft)
06.10.2022 05:13 9,8 C 8,3 C 85 % 1026,9 hPa 0,0 l/m 9,7 km/h (2 Bft) W 270 0 min 0,0 UV-I 0 W/m 7,4 C 7,6 C 14,5 km/h (3 Bft)
06.10.2022 05:14 9,8 C 8,3 C 85 % 1027,1 hPa 0,0 l/m 11,3 km/h (2 Bft) W 270 0 min 0,0 UV-I 0 W/m 7,4 C 6,6 C 20,9 km/h (4 Bft)
06.10.2022 05:15 9,7 C 8,3 C 85 % 1027,1 hPa 0,0 l/m 11,3 km/h (2 Bft) SW 225 0 min 0,0 UV-I 0 W/m 7,3 C 6,5 C 19,3 km/h (3 Bft)
06.10.2022 05:16 9,7 C 8,3 C 85 % 1027,1 hPa 0,0 l/m 6,4 km/h (2 Bft) W-SW 247 0 min 0,0 UV-I 0 W/m 7,3 C 9,7 C 11,3 km/h (2 Bft)
06.10.2022 05:17 9,7 C 8,3 C 85 % 1027,1 hPa 0,0 l/m 8,0 km/h (2 Bft) W-SW 247 0 min 0,0 UV-I 0 W/m 7,3 C 8,5 C 16,1 km/h (3 Bft)
06.10.2022 05:18 9,7 C 7,8 C 84 % 1027,0 hPa 0,0 l/m 4,8 km/h (1 Bft) S-SW 202 0 min 0,0 UV-I 0 W/m 7,1 C 9,7 C 9,7 km/h (2 Bft)
06.10.2022 05:19 9,7 C 7,8 C 84 % 1027,1 hPa 0,0 l/m 6,4 km/h (2 Bft) S-SW 202 0 min 0,0 UV-I 0 W/m 7,1 C 9,7 C 8,0 km/h (2 Bft)
06.10.2022 05:20 9,6 C 7,8 C 84 % 1027,1 hPa 0,0 l/m 9,7 km/h (2 Bft) W-SW 247 0 min 0,0 UV-I 0 W/m 7,0 C 7,3 C 19,3 km/h (3 Bft)
06.10.2022 05:21 9,6 C 7,8 C 84 % 1027,1 hPa 0,0 l/m 4,8 km/h (1 Bft) W-SW 247 0 min 0,0 UV-I 0 W/m 7,0 C 9,6 C 14,5 km/h (3 Bft)
06.10.2022 05:22 9,6 C 7,8 C 84 % 1027,2 hPa 0,0 l/m 4,8 km/h (1 Bft) W-SW 247 0 min 0,0 UV-I 0 W/m 7,0 C 9,6 C 12,9 km/h (3 Bft)
06.10.2022 05:23 9,4 C 7,8 C 85 % 1027,2 hPa 0,0 l/m 4,8 km/h (1 Bft) SW 225 0 min 0,0 UV-I 0 W/m 7,0 C 9,4 C 11,3 km/h (2 Bft)
06.10.2022 05:24 9,4 C 7,2 C 85 % 1027,2 hPa 0,0 l/m 6,4 km/h (2 Bft) W-SW 247 0 min 0,0 UV-I 0 W/m 7,0 C 9,4 C 9,7 km/h (2 Bft)
06.10.2022 05:25 9,4 C 7,2 C 85 % 1027,2 hPa 0,0 l/m 8,0 km/h (2 Bft) W-SW 247 0 min 0,0 UV-I 0 W/m 7,0 C 8,2 C 12,9 km/h (3 Bft)
06.10.2022 05:26 9,4 C 7,2 C 85 % 1027,3 hPa 0,0 l/m 8,0 km/h (2 Bft) W-SW 247 0 min 0,0 UV-I 0 W/m 7,0 C 8,2 C 12,9 km/h (3 Bft)
06.10.2022 05:27 9,3 C 7,2 C 85 % 1027,3 hPa 0,0 l/m 11,3 km/h (2 Bft) W-SW 247 0 min 0,0 UV-I 0 W/m 6,9 C 6,1 C 17,7 km/h (3 Bft)
06.10.2022 05:28 9,3 C 7,2 C 85 % 1027,2 hPa 0,0 l/m 14,5 km/h (3 Bft) W-SW 247 0 min 0,0 UV-I 0 W/m 6,9 C 4,5 C 19,3 km/h (3 Bft)
06.10.2022 05:29 9,3 C 7,8 C 85 % 1027,3 hPa 0,0 l/m 9,7 km/h (2 Bft) SW 225 0 min 0,0 UV-I 0 W/m 6,9 C 7,0 C 12,9 km/h (3 Bft)
06.10.2022 05:30 9,3 C 7,8 C 85 % 1027,3 hPa 0,0 l/m 4,8 km/h (1 Bft) SW 225 0 min 0,0 UV-I 0 W/m 6,9 C 9,3 C 6,4 km/h (2 Bft)
06.10.2022 05:31 9,3 C 7,8 C 85 % 1027,3 hPa 0,0 l/m 6,4 km/h (2 Bft) SW 225 0 min 0,0 UV-I 0 W/m 6,9 C 9,3 C 12,9 km/h (3 Bft)
06.10.2022 05:32 9,3 C 7,8 C 85 % 1027,3 hPa 0,0 l/m 6,4 km/h (2 Bft) SW 225 0 min 0,0 UV-I 0 W/m 6,9 C 9,3 C 11,3 km/h (2 Bft)
06.10.2022 05:33 9,3 C 7,8 C 85 % 1027,4 hPa 0,0 l/m 9,7 km/h (2 Bft) SW 225 0 min 0,0 UV-I 0 W/m 6,9 C 7,0 C 16,1 km/h (3 Bft)
06.10.2022 05:34 9,3 C 7,8 C 85 % 1027,4 hPa 0,0 l/m 8,0 km/h (2 Bft) SW 225 0 min 0,0 UV-I 0 W/m 6,9 C 8,1 C 14,5 km/h (3 Bft)
06.10.2022 05:35 9,2 C 7,8 C 85 % 1027,4 hPa 0,0 l/m 11,3 km/h (2 Bft) SW 225 0 min 0,0 UV-I 0 W/m 6,8 C 6,0 C 17,7 km/h (3 Bft)
06.10.2022 05:36 9,3 C 7,8 C 85 % 1027,3 hPa 0,0 l/m 4,8 km/h (1 Bft) SW 225 0 min 0,0 UV-I 0 W/m 6,9 C 9,3 C 9,7 km/h (2 Bft)
06.10.2022 05:37 9,2 C 7,8 C 85 % 1027,5 hPa 0,0 l/m 6,4 km/h (2 Bft) W 270 0 min 0,0 UV-I 0 W/m 6,8 C 9,2 C 12,9 km/h (3 Bft)
06.10.2022 05:38 9,2 C 7,8 C 85 % 1027,5 hPa 0,0 l/m 8,0 km/h (2 Bft) SW 225 0 min 0,0 UV-I 0 W/m 6,8 C 8,0 C 11,3 km/h (2 Bft)
06.10.2022 05:39 9,2 C 7,2 C 85 % 1027,4 hPa 0,0 l/m 8,0 km/h (2 Bft) S-SW 202 0 min 0,0 UV-I 0 W/m 6,8 C 8,0 C 11,3 km/h (2 Bft)
06.10.2022 05:40 9,1 C 7,2 C 85 % 1027,4 hPa 0,0 l/m 9,7 km/h (2 Bft) S-SW 202 0 min 0,0 UV-I 0 W/m 6,7 C 6,8 C 20,9 km/h (4 Bft)
06.10.2022 05:41 9,1 C 7,2 C 85 % 1027,5 hPa 0,0 l/m 11,3 km/h (2 Bft) SW 225 0 min 0,0 UV-I 0 W/m 6,7 C 5,9 C 20,9 km/h (4 Bft)
06.10.2022 05:42 9,1 C 7,2 C 85 % 1027,4 hPa 0,0 l/m 4,8 km/h (1 Bft) SW 225 0 min 0,0 UV-I 0 W/m 6,7 C 9,1 C 8,0 km/h (2 Bft)
06.10.2022 05:43 9,0 C 7,2 C 85 % 1027,4 hPa 0,0 l/m 9,7 km/h (2 Bft) W-SW 247 0 min 0,0 UV-I 0 W/m 6,6 C 6,7 C 16,1 km/h (3 Bft)
06.10.2022 05:44 9,0 C 7,2 C 85 % 1027,5 hPa 0,0 l/m 6,4 km/h (2 Bft) SW 225 0 min 0,0 UV-I 0 W/m 6,6 C 9,0 C 9,7 km/h (2 Bft)
06.10.2022 05:45 8,9 C 7,2 C 85 % 1027,5 hPa 0,0 l/m 8,0 km/h (2 Bft) SW 225 0 min 0,0 UV-I 0 W/m 6,5 C 7,7 C 11,3 km/h (2 Bft)
06.10.2022 05:46 8,9 C 7,2 C 85 % 1027,4 hPa 0,0 l/m 6,4 km/h (2 Bft) W-SW 247 0 min 0,0 UV-I 0 W/m 6,5 C 8,9 C 9,7 km/h (2 Bft)
06.10.2022 05:47 8,9 C 7,2 C 85 % 1027,4 hPa 0,0 l/m 4,8 km/h (1 Bft) W-SW 247 0 min 0,0 UV-I 0 W/m 6,5 C 8,9 C 8,0 km/h (2 Bft)
06.10.2022 05:48 8,9 C 7,2 C 85 % 1027,5 hPa 0,0 l/m 4,8 km/h (1 Bft) W-SW 247 0 min 0,0 UV-I 0 W/m 6,5 C 8,9 C 8,0 km/h (2 Bft)
06.10.2022 05:49 8,8 C 7,2 C 85 % 1027,4 hPa 0,0 l/m 4,8 km/h (1 Bft) W-SW 247 0 min 0,0 UV-I 0 W/m 6,4 C 8,8 C 6,4 km/h (2 Bft)
06.10.2022 05:50 8,8 C 7,2 C 85 % 1027,4 hPa 0,0 l/m 6,4 km/h (2 Bft) SW 225 0 min 0,0 UV-I 0 W/m 6,4 C 8,8 C 11,3 km/h (2 Bft)
06.10.2022 05:51 8,8 C 7,2 C 85 % 1027,5 hPa 0,0 l/m 6,4 km/h (2 Bft) SW 225 0 min 0,0 UV-I 0 W/m 6,4 C 8,8 C 9,7 km/h (2 Bft)
06.10.2022 05:52 8,8 C 7,2 C 86 % 1027,5 hPa 0,0 l/m 4,8 km/h (1 Bft) SW 225 0 min 0,0 UV-I 0 W/m 6,6 C 8,8 C 8,0 km/h (2 Bft)
06.10.2022 05:53 8,7 C 7,2 C 85 % 1027,4 hPa 0,0 l/m 4,8 km/h (1 Bft) SW 225 0 min 0,0 UV-I 0 W/m 6,3 C 8,7 C 11,3 km/h (2 Bft)
06.10.2022 05:54 8,7 C 7,2 C 86 % 1027,5 hPa 0,0 l/m 8,0 km/h (2 Bft) SW 225 0 min 0,0 UV-I 0 W/m 6,5 C 7,5 C 11,3 km/h (2 Bft)
06.10.2022 05:55 8,8 C 7,2 C 85 % 1027,6 hPa 0,0 l/m 4,8 km/h (1 Bft) SW 225 0 min 0,0 UV-I 0 W/m 6,4 C 8,8 C 8,0 km/h (2 Bft)
06.10.2022 05:56 8,7 C 7,2 C 85 % 1027,6 hPa 0,0 l/m 4,8 km/h (1 Bft) SW 225 0 min 0,0 UV-I 0 W/m 6,3 C 8,7 C 8,0 km/h (2 Bft)
06.10.2022 05:57 8,7 C 7,2 C 86 % 1027,6 hPa 0,0 l/m 6,4 km/h (2 Bft) SW 225 0 min 0,0 UV-I 0 W/m 6,5 C 8,7 C 8,0 km/h (2 Bft)
06.10.2022 05:58 8,7 C 7,2 C 86 % 1027,5 hPa 0,0 l/m 4,8 km/h (1 Bft) SW 225 0 min 0,0 UV-I 0 W/m 6,5 C 8,7 C 9,7 km/h (2 Bft)
06.10.2022 05:59 8,7 C 7,2 C 86 % 1027,6 hPa 0,0 l/m 6,4 km/h (2 Bft) SW 225 0 min 0,0 UV-I 0 W/m 6,5 C 8,7 C 8,0 km/h (2 Bft)
06.10.2022 06:00 8,7 C 7,2 C 86 % 1027,5 hPa 0,0 l/m 3,2 km/h (1 Bft) SW 225 0 min 0,0 UV-I 0 W/m 6,5 C 8,7 C 6,4 km/h (2 Bft)
06.10.2022 06:01 8,7 C 7,2 C 86 % 1027,6 hPa 0,0 l/m 3,2 km/h (1 Bft) SW 225 0 min 0,0 UV-I 0 W/m 6,5 C 8,7 C 6,4 km/h (2 Bft)
06.10.2022 06:02 8,6 C 7,2 C 86 % 1027,6 hPa 0,0 l/m 1,6 km/h (1 Bft) SW 225 0 min 0,0 UV-I 0 W/m 6,4 C 8,6 C 4,8 km/h (1 Bft)
06.10.2022 06:03 8,6 C 6,7 C 86 % 1027,6 hPa 0,0 l/m 1,6 km/h (1 Bft) SW 225 0 min 0,0 UV-I 0 W/m 6,4 C 8,6 C 6,4 km/h (2 Bft)
06.10.2022 06:04 8,5 C 6,7 C 86 % 1027,7 hPa 0,0 l/m 3,2 km/h (1 Bft) SW 225 0 min 0,0 UV-I 0 W/m 6,3 C 8,5 C 4,8 km/h (1 Bft)
06.10.2022 06:05 8,5 C 6,7 C 86 % 1027,7 hPa 0,0 l/m 1,6 km/h (1 Bft) SW 225 0 min 0,0 UV-I 0 W/m 6,3 C 8,5 C 3,2 km/h (1 Bft)
06.10.2022 06:06 8,4 C 6,7 C 86 % 1027,7 hPa 0,0 l/m 4,8 km/h (1 Bft) SW 225 0 min 0,0 UV-I 0 W/m 6,2 C 8,4 C 11,3 km/h (2 Bft)
06.10.2022 06:07 8,4 C 6,7 C 87 % 1027,8 hPa 0,0 l/m 6,4 km/h (2 Bft) W-SW 247 0 min 0,0 UV-I 0 W/m 6,4 C 8,4 C 9,7 km/h (2 Bft)
06.10.2022 06:08 8,4 C 6,7 C 87 % 1027,9 hPa 0,0 l/m 6,4 km/h (2 Bft) W-SW 247 0 min 0,0 UV-I 0 W/m 6,4 C 8,4 C 11,3 km/h (2 Bft)
06.10.2022 06:09 8,5 C 6,7 C 87 % 1027,8 hPa 0,0 l/m 6,4 km/h (2 Bft) W-SW 247 0 min 0,0 UV-I 0 W/m 6,5 C 8,5 C 11,3 km/h (2 Bft)
06.10.2022 06:10 8,6 C 6,7 C 87 % 1027,8 hPa 0,0 l/m 6,4 km/h (2 Bft) S-SW 202 0 min 0,0 UV-I 0 W/m 6,6 C 8,6 C 9,7 km/h (2 Bft)
06.10.2022 06:11 8,6 C 6,7 C 87 % 1027,7 hPa 0,0 l/m 3,2 km/h (1 Bft) SW 225 0 min 0,0 UV-I 0 W/m 6,6 C 8,6 C 6,4 km/h (2 Bft)
06.10.2022 06:12 8,6 C 6,7 C 87 % 1027,8 hPa 0,0 l/m 4,8 km/h (1 Bft) W-SW 247 0 min 0,0 UV-I 0 W/m 6,6 C 8,6 C 9,7 km/h (2 Bft)
06.10.2022 06:13 8,6 C 6,7 C 87 % 1027,9 hPa 0,0 l/m 4,8 km/h (1 Bft) SW 225 0 min 0,0 UV-I 0 W/m 6,6 C 8,6 C 6,4 km/h (2 Bft)
06.10.2022 06:14 8,6 C 6,7 C 87 % 1027,9 hPa 0,0 l/m 3,2 km/h (1 Bft) SW 225 0 min 0,0 UV-I 0 W/m 6,6 C 8,6 C 4,8 km/h (1 Bft)
06.10.2022 06:15 8,6 C 6,7 C 87 % 1027,8 hPa 0,0 l/m 3,2 km/h (1 Bft) SW 225 0 min 0,0 UV-I 0 W/m 6,6 C 8,6 C 4,8 km/h (1 Bft)
06.10.2022 06:16 8,5 C 6,7 C 87 % 1027,9 hPa 0,0 l/m 4,8 km/h (1 Bft) SW 225 0 min 0,0 UV-I 0 W/m 6,5 C 8,5 C 8,0 km/h (2 Bft)
06.10.2022 06:17 8,5 C 6,7 C 87 % 1027,9 hPa 0,0 l/m 8,0 km/h (2 Bft) W-SW 247 0 min 0,0 UV-I 0 W/m 6,5 C 7,3 C 11,3 km/h (2 Bft)
06.10.2022 06:18 8,4 C 6,7 C 87 % 1028,0 hPa 0,0 l/m 4,8 km/h (1 Bft) W-SW 247 0 min 0,0 UV-I 0 W/m 6,4 C 8,4 C 8,0 km/h (2 Bft)
06.10.2022 06:19 8,4 C 6,7 C 87 % 1027,9 hPa 0,0 l/m 4,8 km/h (1 Bft) SW 225 0 min 0,0 UV-I 0 W/m 6,4 C 8,4 C 6,4 km/h (2 Bft)
06.10.2022 06:20 8,4 C 6,7 C 87 % 1028,0 hPa 0,0 l/m 4,8 km/h (1 Bft) W-SW 247 0 min 0,0 UV-I 0 W/m 6,4 C 8,4 C 11,3 km/h (2 Bft)
06.10.2022 06:21 8,4 C 6,7 C 87 % 1028,0 hPa 0,0 l/m 4,8 km/h (1 Bft) W 270 0 min 0,0 UV-I 0 W/m 6,4 C 8,4 C 6,4 km/h (2 Bft)
06.10.2022 06:22 8,4 C 6,7 C 87 % 1028,1 hPa 0,0 l/m 4,8 km/h (1 Bft) W-SW 247 0 min 0,0 UV-I 0 W/m 6,4 C 8,4 C 9,7 km/h (2 Bft)
06.10.2022 06:23 8,4 C 6,7 C 87 % 1028,1 hPa 0,0 l/m 3,2 km/h (1 Bft) SW 225 0 min 0,0 UV-I 0 W/m 6,4 C 8,4 C 6,4 km/h (2 Bft)
06.10.2022 06:24 8,4 C 6,7 C 87 % 1028,0 hPa 0,0 l/m 4,8 km/h (1 Bft) SW 225 0 min 0,0 UV-I 0 W/m 6,4 C 8,4 C 8,0 km/h (2 Bft)
06.10.2022 06:25 8,4 C 6,7 C 87 % 1028,2 hPa 0,0 l/m 4,8 km/h (1 Bft) SW 225 0 min 0,0 UV-I 0 W/m 6,4 C 8,4 C 8,0 km/h (2 Bft)
06.10.2022 06:26 8,4 C 6,7 C 87 % 1028,2 hPa 0,0 l/m 4,8 km/h (1 Bft) SW 225 0 min 0,0 UV-I 0 W/m 6,4 C 8,4 C 8,0 km/h (2 Bft)
06.10.2022 06:27 8,4 C 6,7 C 87 % 1028,2 hPa 0,0 l/m 4,8 km/h (1 Bft) SW 225 0 min 0,0 UV-I 0 W/m 6,4 C 8,4 C 6,4 km/h (2 Bft)
06.10.2022 06:28 8,3 C 6,7 C 87 % 1028,2 hPa 0,0 l/m 3,2 km/h (1 Bft) W-SW 247 0 min 0,0 UV-I 0 W/m 6,3 C 8,3 C 6,4 km/h (2 Bft)
06.10.2022 06:29 8,3 C 6,1 C 87 % 1028,2 hPa 0,0 l/m 1,6 km/h (1 Bft) W-SW 247 0 min 0,0 UV-I 0 W/m 6,3 C 8,3 C 3,2 km/h (1 Bft)
06.10.2022 06:30 8,2 C 6,1 C 87 % 1028,2 hPa 0,0 l/m 1,6 km/h (1 Bft) W-SW 247 0 min 0,0 UV-I 0 W/m 6,2 C 8,2 C 3,2 km/h (1 Bft)
06.10.2022 06:31 8,2 C 5,6 C 87 % 1028,2 hPa 0,0 l/m 1,6 km/h (1 Bft) W-SW 247 0 min 0,0 UV-I 0 W/m 6,2 C 8,2 C 3,2 km/h (1 Bft)
06.10.2022 06:32 8,1 C 5,6 C 87 % 1028,3 hPa 0,0 l/m 0,0 km/h (0 Bft) W-SW 247 0 min 0,0 UV-I 0 W/m 6,1 C 8,1 C 1,6 km/h (1 Bft)
06.10.2022 06:33 8,0 C 5,6 C 87 % 1028,3 hPa 0,0 l/m 0,0 km/h (0 Bft) N 0 0 min 0,0 UV-I 0 W/m 6,0 C 8,0 C 0,0 km/h (0 Bft)
06.10.2022 06:34 7,9 C 5,6 C 88 % 1028,2 hPa 0,0 l/m 1,6 km/h (1 Bft) W-SW 247 0 min 0,0 UV-I 0 W/m 6,0 C 7,9 C 3,2 km/h (1 Bft)
06.10.2022 06:35 7,9 C 5,6 C 88 % 1028,3 hPa 0,0 l/m 1,6 km/h (1 Bft) W-SW 247 0 min 0,0 UV-I 0 W/m 6,0 C 7,9 C 3,2 km/h (1 Bft)
06.10.2022 06:36 7,9 C 5,6 C 88 % 1028,1 hPa 0,0 l/m 1,6 km/h (1 Bft) W-SW 247 0 min 0,0 UV-I 0 W/m 6,0 C 7,9 C 1,6 km/h (1 Bft)
06.10.2022 06:37 7,8 C 5,6 C 88 % 1028,3 hPa 0,0 l/m 0,0 km/h (0 Bft) N 0 0 min 0,0 UV-I 0 W/m 5,9 C 7,8 C 0,0 km/h (0 Bft)
06.10.2022 06:38 7,8 C 5,6 C 88 % 1028,3 hPa 0,0 l/m 1,6 km/h (1 Bft) W-SW 247 0 min 0,0 UV-I 0 W/m 5,9 C 7,8 C 3,2 km/h (1 Bft)
06.10.2022 06:39 7,8 C 5,6 C 88 % 1028,3 hPa 0,0 l/m 1,6 km/h (1 Bft) W-SW 247 0 min 0,0 UV-I 0 W/m 5,9 C 7,8 C 3,2 km/h (1 Bft)
06.10.2022 06:40 7,8 C 5,6 C 88 % 1028,4 hPa 0,0 l/m 0,0 km/h (0 Bft) N 0 0 min 0,0 UV-I 0 W/m 5,9 C 7,8 C 0,0 km/h (0 Bft)
06.10.2022 06:41 7,8 C 5,0 C 88 % 1028,4 hPa 0,0 l/m 0,0 km/h (0 Bft) N 0 0 min 0,0 UV-I 0 W/m 5,9 C 7,8 C 0,0 km/h (0 Bft)
06.10.2022 06:42 7,8 C 5,0 C 89 % 1028,3 hPa 0,0 l/m 0,0 km/h (0 Bft) W-SW 247 0 min 0,0 UV-I 0 W/m 6,1 C 7,8 C 1,6 km/h (1 Bft)
06.10.2022 06:43 7,8 C 5,0 C 89 % 1028,3 hPa 0,0 l/m 0,0 km/h (0 Bft) W-SW 247 0 min 0,0 UV-I 0 W/m 6,1 C 7,8 C 1,6 km/h (1 Bft)
06.10.2022 06:44 7,8 C 5,0 C 89 % 1028,3 hPa 0,0 l/m 0,0 km/h (0 Bft) W-SW 247 0 min 0,0 UV-I 0 W/m 6,1 C 7,8 C 1,6 km/h (1 Bft)
06.10.2022 06:45 7,7 C 5,0 C 88 % 1028,3 hPa 0,0 l/m 1,6 km/h (1 Bft) W-SW 247 0 min 0,0 UV-I 0 W/m 5,8 C 7,7 C 3,2 km/h (1 Bft)
06.10.2022 06:46 7,6 C 5,0 C 89 % 1028,3 hPa 0,0 l/m 1,6 km/h (1 Bft) W-SW 247 0 min 0,0 UV-I 0 W/m 5,9 C 7,6 C 4,8 km/h (1 Bft)
06.10.2022 06:47 7,6 C 5,0 C 89 % 1028,5 hPa 0,0 l/m 0,0 km/h (0 Bft) W-SW 247 0 min 0,0 UV-I 0 W/m 5,9 C 7,6 C 3,2 km/h (1 Bft)
06.10.2022 06:48 7,6 C 5,0 C 89 % 1028,4 hPa 0,0 l/m 1,6 km/h (1 Bft) SW 225 0 min 0,0 UV-I 0 W/m 5,9 C 7,6 C 4,8 km/h (1 Bft)
06.10.2022 06:49 7,6 C 4,4 C 89 % 1028,4 hPa 0,0 l/m 1,6 km/h (1 Bft) SW 225 0 min 0,0 UV-I 0 W/m 5,9 C 7,6 C 4,8 km/h (1 Bft)
06.10.2022 06:50 7,5 C 5,0 C 89 % 1028,5 hPa 0,0 l/m 0,0 km/h (0 Bft) SW 225 0 min 0,0 UV-I 0 W/m 5,8 C 7,5 C 1,6 km/h (1 Bft)
06.10.2022 06:51 7,5 C 5,0 C 89 % 1028,5 hPa 0,0 l/m 0,0 km/h (0 Bft) N 0 0 min 0,0 UV-I 0 W/m 5,8 C 7,5 C 0,0 km/h (0 Bft)
06.10.2022 06:52 7,5 C 5,0 C 89 % 1028,4 hPa 0,0 l/m 0,0 km/h (0 Bft) N 0 0 min 0,0 UV-I 0 W/m 5,8 C 7,5 C 0,0 km/h (0 Bft)
06.10.2022 06:53 7,6 C 5,0 C 90 % 1028,6 hPa 0,0 l/m 0,0 km/h (0 Bft) N 0 0 min 0,0 UV-I 0 W/m 6,1 C 7,6 C 0,0 km/h (0 Bft)
06.10.2022 06:54 7,6 C 5,0 C 90 % 1028,6 hPa 0,0 l/m 0,0 km/h (0 Bft) SW 225 0 min 0,0 UV-I 0 W/m 6,1 C 7,6 C 4,8 km/h (1 Bft)
06.10.2022 06:55 7,7 C 5,0 C 90 % 1028,5 hPa 0,0 l/m 4,8 km/h (1 Bft) SW 225 0 min 0,0 UV-I 0 W/m 6,2 C 7,7 C 6,4 km/h (2 Bft)
06.10.2022 06:56 7,8 C 5,6 C 90 % 1028,6 hPa 0,0 l/m 4,8 km/h (1 Bft) SW 225 0 min 0,0 UV-I 0 W/m 6,3 C 7,8 C 4,8 km/h (1 Bft)
06.10.2022 06:57 7,8 C 5,6 C 90 % 1028,6 hPa 0,0 l/m 1,6 km/h (1 Bft) SW 225 0 min 0,0 UV-I 0 W/m 6,3 C 7,8 C 4,8 km/h (1 Bft)
06.10.2022 06:58 7,8 C 5,6 C 90 % 1028,6 hPa 0,0 l/m 1,6 km/h (1 Bft) SW 225 0 min 0,0 UV-I 0 W/m 6,3 C 7,8 C 3,2 km/h (1 Bft)
06.10.2022 06:59 7,8 C 5,6 C 90 % 1028,6 hPa 0,0 l/m 1,6 km/h (1 Bft) SW 225 0 min 0,0 UV-I 0 W/m 6,3 C 7,8 C 3,2 km/h (1 Bft)
06.10.2022 07:00 7,8 C 5,6 C 89 % 1028,7 hPa 0,0 l/m 1,6 km/h (1 Bft) SW 225 0 min 0,0 UV-I 0 W/m 6,1 C 7,8 C 3,2 km/h (1 Bft)
06.10.2022 07:01 7,8 C 5,0 C 89 % 1028,7 hPa 0,0 l/m 1,6 km/h (1 Bft) SW 225 0 min 0,0 UV-I 0 W/m 6,1 C 7,8 C 1,6 km/h (1 Bft)
06.10.2022 07:02 7,8 C 5,0 C 89 % 1028,7 hPa 0,0 l/m 1,6 km/h (1 Bft) SW 225 0 min 0,0 UV-I 0 W/m 6,1 C 7,8 C 1,6 km/h (1 Bft)
06.10.2022 07:03 7,7 C 5,0 C 89 % 1028,9 hPa 0,0 l/m 1,6 km/h (1 Bft) SW 225 0 min 0,0 UV-I 0 W/m 6,0 C 7,7 C 1,6 km/h (1 Bft)
06.10.2022 07:04 7,6 C 5,0 C 89 % 1028,8 hPa 0,0 l/m 1,6 km/h (1 Bft) SW 225 0 min 0,0 UV-I 0 W/m 5,9 C 7,6 C 3,2 km/h (1 Bft)
06.10.2022 07:05 7,5 C 5,0 C 89 % 1028,7 hPa 0,0 l/m 1,6 km/h (1 Bft) SW 225 0 min 0,0 UV-I 0 W/m 5,8 C 7,5 C 3,2 km/h (1 Bft)
06.10.2022 07:06 7,5 C 5,0 C 89 % 1028,8 hPa 0,0 l/m 0,0 km/h (0 Bft) SW 225 0 min 0,0 UV-I 0 W/m 5,8 C 7,5 C 1,6 km/h (1 Bft)
06.10.2022 07:07 7,4 C 5,0 C 89 % 1028,8 hPa 0,0 l/m 0,0 km/h (0 Bft) SW 225 0 min 0,0 UV-I 0 W/m 5,7 C 7,4 C 1,6 km/h (1 Bft)
06.10.2022 07:08 7,4 C 5,0 C 90 % 1028,8 hPa 0,0 l/m 0,0 km/h (0 Bft) SW 225 0 min 0,0 UV-I 0 W/m 5,9 C 7,4 C 1,6 km/h (1 Bft)
06.10.2022 07:09 7,4 C 5,0 C 90 % 1028,9 hPa 0,0 l/m 1,6 km/h (1 Bft) SW 225 0 min 0,0 UV-I 0 W/m 5,9 C 7,4 C 3,2 km/h (1 Bft)
06.10.2022 07:10 7,4 C 4,4 C 90 % 1029,0 hPa 0,0 l/m 3,2 km/h (1 Bft) SW 225 0 min 0,0 UV-I 0 W/m 5,9 C 7,4 C 3,2 km/h (1 Bft)
06.10.2022 07:11 7,4 C 5,0 C 90 % 1028,9 hPa 0,0 l/m 1,6 km/h (1 Bft) SW 225 0 min 0,0 UV-I 0 W/m 5,9 C 7,4 C 3,2 km/h (1 Bft)
06.10.2022 07:12 7,4 C 5,0 C 90 % 1028,9 hPa 0,0 l/m 1,6 km/h (1 Bft) SW 225 0 min 0,0 UV-I 0 W/m 5,9 C 7,4 C 3,2 km/h (1 Bft)
06.10.2022 07:13 7,4 C 4,4 C 90 % 1028,9 hPa 0,0 l/m 3,2 km/h (1 Bft) SW 225 0 min 0,0 UV-I 0 W/m 5,9 C 7,4 C 4,8 km/h (1 Bft)
06.10.2022 07:14 7,4 C 4,4 C 90 % 1028,9 hPa 0,0 l/m 3,2 km/h (1 Bft) SW 225 0 min 0,0 UV-I 0 W/m 5,9 C 7,4 C 3,2 km/h (1 Bft)
06.10.2022 07:15 7,4 C 4,4 C 90 % 1028,9 hPa 0,0 l/m 1,6 km/h (1 Bft) SW 225 0 min 0,0 UV-I 0 W/m 5,9 C 7,4 C 3,2 km/h (1 Bft)
06.10.2022 07:16 7,4 C 5,0 C 90 % 1029,0 hPa 0,0 l/m 1,6 km/h (1 Bft) SW 225 0 min 0,0 UV-I 0 W/m 5,9 C 7,4 C 3,2 km/h (1 Bft)
06.10.2022 07:17 7,3 C 5,0 C 90 % 1029,0 hPa 0,0 l/m 3,2 km/h (1 Bft) SW 225 0 min 0,0 UV-I 0 W/m 5,8 C 7,3 C 3,2 km/h (1 Bft)
06.10.2022 07:18 7,4 C 5,0 C 90 % 1029,1 hPa 0,0 l/m 3,2 km/h (1 Bft) SW 225 0 min 0,0 UV-I 0 W/m 5,9 C 7,4 C 3,2 km/h (1 Bft)
06.10.2022 07:19 7,3 C 5,0 C 90 % 1029,1 hPa 0,0 l/m 3,2 km/h (1 Bft) SW 225 0 min 0,0 UV-I 0 W/m 5,8 C 7,3 C 3,2 km/h (1 Bft)
06.10.2022 07:20 7,3 C 4,4 C 90 % 1029,1 hPa 0,0 l/m 1,6 km/h (1 Bft) SW 225 0 min 0,0 UV-I 0 W/m 5,8 C 7,3 C 3,2 km/h (1 Bft)
06.10.2022 07:21 7,3 C 5,0 C 90 % 1029,1 hPa 0,0 l/m 3,2 km/h (1 Bft) SW 225 0 min 0,0 UV-I 0 W/m 5,8 C 7,3 C 4,8 km/h (1 Bft)
06.10.2022 07:22 7,3 C 5,0 C 90 % 1029,1 hPa 0,0 l/m 1,6 km/h (1 Bft) SW 225 0 min 0,0 UV-I 0 W/m 5,8 C 7,3 C 3,2 km/h (1 Bft)
06.10.2022 07:23 7,3 C 5,0 C 90 % 1029,2 hPa 0,0 l/m 3,2 km/h (1 Bft) SW 225 0 min 0,0 UV-I 0 W/m 5,8 C 7,3 C 4,8 km/h (1 Bft)
06.10.2022 07:24 7,3 C 5,0 C 90 % 1029,2 hPa 0,0 l/m 4,8 km/h (1 Bft) SW 225 0 min 0,0 UV-I 0 W/m 5,8 C 7,3 C 6,4 km/h (2 Bft)
06.10.2022 07:25 7,3 C 4,4 C 90 % 1029,2 hPa 0,0 l/m 4,8 km/h (1 Bft) SW 225 0 min 0,0 UV-I 0 W/m 5,8 C 7,3 C 6,4 km/h (2 Bft)
06.10.2022 07:26 7,3 C 5,0 C 90 % 1029,2 hPa 0,0 l/m 3,2 km/h (1 Bft) W-SW 247 0 min 0,0 UV-I 0 W/m 5,8 C 7,3 C 6,4 km/h (2 Bft)
06.10.2022 07:27 7,2 C 5,0 C 90 % 1029,2 hPa 0,0 l/m 3,2 km/h (1 Bft) W-SW 247 0 min 0,0 UV-I 0 W/m 5,7 C 7,2 C 4,8 km/h (1 Bft)
06.10.2022 07:28 7,2 C 4,4 C 90 % 1029,3 hPa 0,0 l/m 3,2 km/h (1 Bft) W-SW 247 0 min 0,0 UV-I 0 W/m 5,7 C 7,2 C 3,2 km/h (1 Bft)
06.10.2022 07:29 7,1 C 4,4 C 90 % 1029,2 hPa 0,0 l/m 3,2 km/h (1 Bft) W-SW 247 0 min 0,0 UV-I 0 W/m 5,6 C 7,1 C 4,8 km/h (1 Bft)
06.10.2022 07:30 6,9 C 4,4 C 90 % 1029,2 hPa 0,0 l/m 3,2 km/h (1 Bft) W-SW 247 0 min 0,0 UV-I 0 W/m 5,4 C 6,9 C 4,8 km/h (1 Bft)
06.10.2022 07:31 6,8 C 4,4 C 89 % 1029,2 hPa 0,0 l/m 3,2 km/h (1 Bft) W-SW 247 0 min 0,0 UV-I 0 W/m 5,1 C 6,8 C 3,2 km/h (1 Bft)
06.10.2022 07:32 6,8 C 4,4 C 90 % 1029,2 hPa 0,0 l/m 3,2 km/h (1 Bft) W-SW 247 0 min 0,0 UV-I 0 W/m 5,3 C 6,8 C 4,8 km/h (1 Bft)
06.10.2022 07:33 6,6 C 4,4 C 89 % 1029,2 hPa 0,0 l/m 3,2 km/h (1 Bft) W-SW 247 0 min 0,0 UV-I 0 W/m 4,9 C 6,6 C 4,8 km/h (1 Bft)
06.10.2022 07:34 6,5 C 3,9 C 89 % 1029,2 hPa 0,0 l/m 3,2 km/h (1 Bft) W-SW 247 0 min 0,0 UV-I 0 W/m 4,8 C 6,5 C 4,8 km/h (1 Bft)
06.10.2022 07:35 6,4 C 3,9 C 90 % 1029,3 hPa 0,0 l/m 3,2 km/h (1 Bft) W-SW 247 0 min 0,0 UV-I 0 W/m 4,9 C 6,4 C 4,8 km/h (1 Bft)
06.10.2022 07:36 6,3 C 3,9 C 90 % 1029,3 hPa 0,0 l/m 3,2 km/h (1 Bft) W-SW 247 0 min 0,0 UV-I 0 W/m 4,8 C 6,3 C 4,8 km/h (1 Bft)
06.10.2022 07:37 6,3 C 3,9 C 90 % 1029,3 hPa 0,0 l/m 3,2 km/h (1 Bft) W-SW 247 0 min 0,0 UV-I 0 W/m 4,8 C 6,3 C 4,8 km/h (1 Bft)
06.10.2022 07:38 6,2 C 3,9 C 90 % 1029,4 hPa 0,0 l/m 3,2 km/h (1 Bft) W-SW 247 0 min 0,0 UV-I 0 W/m 4,7 C 6,2 C 4,8 km/h (1 Bft)
06.10.2022 07:39 6,2 C 3,9 C 90 % 1029,4 hPa 0,0 l/m 3,2 km/h (1 Bft) W-SW 247 0 min 0,0 UV-I 0 W/m 4,7 C 6,2 C 4,8 km/h (1 Bft)
06.10.2022 07:40 6,2 C 3,3 C 90 % 1029,4 hPa 0,0 l/m 3,2 km/h (1 Bft) W-SW 247 0 min 0,0 UV-I 0 W/m 4,7 C 6,2 C 4,8 km/h (1 Bft)
06.10.2022 07:41 6,2 C 3,9 C 90 % 1029,5 hPa 0,0 l/m 3,2 km/h (1 Bft) W-SW 247 0 min 0,0 UV-I 0 W/m 4,7 C 6,2 C 4,8 km/h (1 Bft)
06.10.2022 07:42 6,2 C 3,9 C 90 % 1029,5 hPa 0,0 l/m 3,2 km/h (1 Bft) W-SW 247 0 min 0,0 UV-I 0 W/m 4,7 C 6,2 C 4,8 km/h (1 Bft)
06.10.2022 07:43 6,1 C 3,9 C 90 % 1029,5 hPa 0,0 l/m 1,6 km/h (1 Bft) W-SW 247 0 min 0,0 UV-I 0 W/m 4,6 C 6,1 C 3,2 km/h (1 Bft)
06.10.2022 07:44 6,1 C 3,9 C 90 % 1029,5 hPa 0,0 l/m 3,2 km/h (1 Bft) W-SW 247 0 min 0,0 UV-I 0 W/m 4,6 C 6,1 C 4,8 km/h (1 Bft)
06.10.2022 07:45 6,2 C 3,9 C 91 % 1029,4 hPa 0,0 l/m 3,2 km/h (1 Bft) W-SW 247 0 min 0,0 UV-I 5 W/m 4,8 C 6,2 C 4,8 km/h (1 Bft)
06.10.2022 07:46 6,1 C 3,3 C 91 % 1029,5 hPa 0,0 l/m 1,6 km/h (1 Bft) W-SW 247 0 min 0,0 UV-I 5 W/m 4,7 C 6,1 C 3,2 km/h (1 Bft)
06.10.2022 07:47 6,1 C 3,9 C 91 % 1029,6 hPa 0,0 l/m 1,6 km/h (1 Bft) W-SW 247 0 min 0,0 UV-I 5 W/m 4,7 C 6,1 C 1,6 km/h (1 Bft)
06.10.2022 07:48 6,1 C 3,3 C 90 % 1029,5 hPa 0,0 l/m 0,0 km/h (0 Bft) W-SW 247 0 min 0,0 UV-I 5 W/m 4,6 C 6,1 C 1,6 km/h (1 Bft)
06.10.2022 07:49 6,1 C 3,3 C 91 % 1029,6 hPa 0,0 l/m 1,6 km/h (1 Bft) W-SW 247 0 min 0,0 UV-I 7 W/m 4,7 C 6,1 C 4,8 km/h (1 Bft)
06.10.2022 07:50 6,0 C 3,3 C 91 % 1029,6 hPa 0,0 l/m 1,6 km/h (1 Bft) W-SW 247 0 min 0,0 UV-I 7 W/m 4,6 C 6,0 C 3,2 km/h (1 Bft)
06.10.2022 07:51 6,0 C 3,3 C 91 % 1029,8 hPa 0,0 l/m 1,6 km/h (1 Bft) W-SW 247 0 min 0,0 UV-I 7 W/m 4,6 C 6,0 C 3,2 km/h (1 Bft)
06.10.2022 07:52 6,0 C 3,3 C 91 % 1029,8 hPa 0,0 l/m 1,6 km/h (1 Bft) W-SW 247 0 min 0,0 UV-I 8 W/m 4,6 C 6,0 C 4,8 km/h (1 Bft)
06.10.2022 07:53 6,0 C 3,3 C 91 % 1029,7 hPa 0,0 l/m 0,0 km/h (0 Bft) W-SW 247 0 min 0,0 UV-I 9 W/m 4,6 C 6,0 C 1,6 km/h (1 Bft)
06.10.2022 07:54 6,1 C 3,3 C 91 % 1029,8 hPa 0,0 l/m 1,6 km/h (1 Bft) W-SW 247 0 min 0,0 UV-I 9 W/m 4,7 C 6,1 C 3,2 km/h (1 Bft)
06.10.2022 07:55 6,1 C 3,3 C 91 % 1029,8 hPa 0,0 l/m 1,6 km/h (1 Bft) W-SW 247 0 min 0,0 UV-I 9 W/m 4,7 C 6,1 C 3,2 km/h (1 Bft)
06.10.2022 07:56 6,1 C 3,3 C 91 % 1029,8 hPa 0,0 l/m 0,0 km/h (0 Bft) W-SW 247 0 min 0,0 UV-I 9 W/m 4,7 C 6,1 C 1,6 km/h (1 Bft)
06.10.2022 07:57 6,1 C 3,3 C 91 % 1029,8 hPa 0,0 l/m 1,6 km/h (1 Bft) W-SW 247 0 min 0,0 UV-I 11 W/m 4,7 C 6,1 C 3,2 km/h (1 Bft)
06.10.2022 07:58 6,1 C 3,9 C 91 % 1029,8 hPa 0,0 l/m 1,6 km/h (1 Bft) W-SW 247 0 min 0,0 UV-I 11 W/m 4,7 C 6,1 C 1,6 km/h (1 Bft)
06.10.2022 07:59 6,1 C 3,9 C 91 % 1029,8 hPa 0,0 l/m 0,0 km/h (0 Bft) W-SW 247 0 min 0,0 UV-I 12 W/m 4,7 C 6,1 C 1,6 km/h (1 Bft)
06.10.2022 08:00 6,1 C 3,9 C 91 % 1029,8 hPa 0,0 l/m 0,0 km/h (0 Bft) N 0 0 min 0,0 UV-I 14 W/m 4,7 C 6,1 C 0,0 km/h (0 Bft)
06.10.2022 08:01 6,1 C 3,9 C 91 % 1029,8 hPa 0,0 l/m 0,0 km/h (0 Bft) W-SW 247 0 min 0,0 UV-I 14 W/m 4,7 C 6,1 C 1,6 km/h (1 Bft)
06.10.2022 08:02 6,1 C 3,9 C 91 % 1029,9 hPa 0,0 l/m 0,0 km/h (0 Bft) W-SW 247 0 min 0,0 UV-I 14 W/m 4,7 C 6,1 C 1,6 km/h (1 Bft)
06.10.2022 08:03 6,2 C 3,9 C 91 % 1029,9 hPa 0,0 l/m 1,6 km/h (1 Bft) W-SW 247 0 min 0,0 UV-I 16 W/m 4,8 C 6,2 C 1,6 km/h (1 Bft)
06.10.2022 08:04 6,2 C 4,4 C 92 % 1029,8 hPa 0,0 l/m 1,6 km/h (1 Bft) W-SW 247 0 min 0,0 UV-I 16 W/m 5,0 C 6,2 C 3,2 km/h (1 Bft)
06.10.2022 08:05 6,2 C 4,4 C 91 % 1030,0 hPa 0,0 l/m 1,6 km/h (1 Bft) W-SW 247 0 min 0,0 UV-I 16 W/m 4,8 C 6,2 C 3,2 km/h (1 Bft)
06.10.2022 08:06 6,2 C 3,9 C 91 % 1029,9 hPa 0,0 l/m 3,2 km/h (1 Bft) W-SW 247 0 min 0,0 UV-I 16 W/m 4,8 C 6,2 C 3,2 km/h (1 Bft)
06.10.2022 08:07 6,2 C 3,9 C 91 % 1029,9 hPa 0,0 l/m 3,2 km/h (1 Bft) W-SW 247 0 min 0,0 UV-I 16 W/m 4,8 C 6,2 C 4,8 km/h (1 Bft)
06.10.2022 08:08 6,1 C 3,9 C 91 % 1029,9 hPa 0,0 l/m 3,2 km/h (1 Bft) W-SW 247 0 min 0,0 UV-I 18 W/m 4,7 C 6,1 C 3,2 km/h (1 Bft)
06.10.2022 08:09 6,1 C 3,9 C 91 % 1029,9 hPa 0,0 l/m 3,2 km/h (1 Bft) W-SW 247 0 min 0,0 UV-I 21 W/m 4,7 C 6,1 C 4,8 km/h (1 Bft)
06.10.2022 08:10 6,1 C 4,4 C 91 % 1030,0 hPa 0,0 l/m 3,2 km/h (1 Bft) W-SW 247 0 min 0,0 UV-I 21 W/m 4,7 C 6,1 C 3,2 km/h (1 Bft)
06.10.2022 08:11 6,1 C 4,4 C 92 % 1030,0 hPa 0,0 l/m 3,2 km/h (1 Bft) W-SW 247 0 min 0,0 UV-I 18 W/m 4,9 C 6,1 C 4,8 km/h (1 Bft)
06.10.2022 08:12 6,1 C 4,4 C 91 % 1030,0 hPa 0,0 l/m 3,2 km/h (1 Bft) W-SW 247 0 min 0,0 UV-I 18 W/m 4,7 C 6,1 C 4,8 km/h (1 Bft)
06.10.2022 08:13 6,1 C 4,4 C 92 % 1029,9 hPa 0,0 l/m 4,8 km/h (1 Bft) W-SW 247 0 min 0,0 UV-I 18 W/m 4,9 C 6,1 C 4,8 km/h (1 Bft)
06.10.2022 08:14 6,2 C 4,4 C 92 % 1030,0 hPa 0,0 l/m 3,2 km/h (1 Bft) W-SW 247 0 min 0,0 UV-I 18 W/m 5,0 C 6,2 C 4,8 km/h (1 Bft)
06.10.2022 08:15 6,2 C 4,4 C 92 % 1030,0 hPa 0,0 l/m 3,2 km/h (1 Bft) W-SW 247 0 min 0,0 UV-I 19 W/m 5,0 C 6,2 C 4,8 km/h (1 Bft)
06.10.2022 08:16 6,2 C 4,4 C 92 % 1030,0 hPa 0,0 l/m 3,2 km/h (1 Bft) W-SW 247 0 min 0,0 UV-I 20 W/m 5,0 C 6,2 C 4,8 km/h (1 Bft)
06.10.2022 08:17 6,2 C 5,0 C 92 % 1030,0 hPa 0,0 l/m 3,2 km/h (1 Bft) W-SW 247 0 min 0,0 UV-I 23 W/m 5,0 C 6,2 C 4,8 km/h (1 Bft)
06.10.2022 08:18 6,3 C 5,0 C 92 % 1030,0 hPa 0,0 l/m 3,2 km/h (1 Bft) W-SW 247 0 min 0,0 UV-I 25 W/m 5,1 C 6,3 C 4,8 km/h (1 Bft)
06.10.2022 08:19 6,4 C 5,0 C 92 % 1030,1 hPa 0,0 l/m 3,2 km/h (1 Bft) W-SW 247 0 min 0,0 UV-I 28 W/m 5,2 C 6,4 C 4,8 km/h (1 Bft)
06.10.2022 08:20 6,4 C 5,0 C 92 % 1030,0 hPa 0,0 l/m 1,6 km/h (1 Bft) W-SW 247 0 min 0,0 UV-I 26 W/m 5,2 C 6,4 C 3,2 km/h (1 Bft)
06.10.2022 08:21 6,5 C 5,0 C 92 % 1030,0 hPa 0,0 l/m 1,6 km/h (1 Bft) W-SW 247 0 min 0,0 UV-I 26 W/m 5,3 C 6,5 C 3,2 km/h (1 Bft)
06.10.2022 08:22 6,6 C 5,0 C 92 % 1030,0 hPa 0,0 l/m 1,6 km/h (1 Bft) W-SW 247 0 min 0,0 UV-I 22 W/m 5,4 C 6,6 C 3,2 km/h (1 Bft)
06.10.2022 08:23 6,6 C 5,0 C 92 % 1030,0 hPa 0,0 l/m 3,2 km/h (1 Bft) W-SW 247 0 min 0,0 UV-I 21 W/m 5,4 C 6,6 C 3,2 km/h (1 Bft)
06.10.2022 08:24 6,6 C 5,0 C 92 % 1030,0 hPa 0,0 l/m 1,6 km/h (1 Bft) W-SW 247 0 min 0,0 UV-I 21 W/m 5,4 C 6,6 C 3,2 km/h (1 Bft)
06.10.2022 08:25 6,6 C 5,6 C 92 % 1030,0 hPa 0,0 l/m 1,6 km/h (1 Bft) W-SW 247 0 min 0,0 UV-I 21 W/m 5,4 C 6,6 C 1,6 km/h (1 Bft)
06.10.2022 08:26 6,6 C 5,0 C 92 % 1030,0 hPa 0,0 l/m 1,6 km/h (1 Bft) W-SW 247 0 min 0,0 UV-I 21 W/m 5,4 C 6,6 C 3,2 km/h (1 Bft)
06.10.2022 08:27 6,7 C 5,0 C 92 % 1030,0 hPa 0,0 l/m 3,2 km/h (1 Bft) W-SW 247 0 min 0,0 UV-I 23 W/m 5,5 C 6,7 C 3,2 km/h (1 Bft)
06.10.2022 08:28 6,7 C 5,0 C 92 % 1030,0 hPa 0,0 l/m 1,6 km/h (1 Bft) W-SW 247 0 min 0,0 UV-I 30 W/m 5,5 C 6,7 C 3,2 km/h (1 Bft)
06.10.2022 08:29 6,7 C 5,0 C 91 % 1030,0 hPa 0,0 l/m 3,2 km/h (1 Bft) W-SW 247 0 min 0,0 UV-I 49 W/m 5,3 C 6,7 C 3,2 km/h (1 Bft)
06.10.2022 08:30 6,8 C 5,0 C 92 % 1030,0 hPa 0,0 l/m 1,6 km/h (1 Bft) W-SW 247 0 min 0,0 UV-I 47 W/m 5,6 C 6,8 C 3,2 km/h (1 Bft)
06.10.2022 08:31 6,8 C 5,6 C 92 % 1030,1 hPa 0,0 l/m 1,6 km/h (1 Bft) W-SW 247 0 min 0,0 UV-I 44 W/m 5,6 C 6,8 C 3,2 km/h (1 Bft)
06.10.2022 08:32 6,8 C 5,6 C 92 % 1030,1 hPa 0,0 l/m 1,6 km/h (1 Bft) W-SW 247 0 min 0,0 UV-I 37 W/m 5,6 C 6,8 C 3,2 km/h (1 Bft)
06.10.2022 08:33 6,9 C 6,1 C 92 % 1030,1 hPa 0,0 l/m 1,6 km/h (1 Bft) W-SW 247 0 min 0,0 UV-I 27 W/m 5,7 C 6,9 C 3,2 km/h (1 Bft)
06.10.2022 08:34 7,1 C 6,1 C 92 % 1030,2 hPa 0,0 l/m 1,6 km/h (1 Bft) W-SW 247 0 min 0,0 UV-I 23 W/m 5,9 C 7,1 C 4,8 km/h (1 Bft)
06.10.2022 08:35 7,1 C 6,1 C 92 % 1030,2 hPa 0,0 l/m 3,2 km/h (1 Bft) W-SW 247 0 min 0,0 UV-I 21 W/m 5,9 C 7,1 C 3,2 km/h (1 Bft)
06.10.2022 08:36 7,2 C 6,1 C 92 % 1030,2 hPa 0,0 l/m 3,2 km/h (1 Bft) W-SW 247 0 min 0,0 UV-I 21 W/m 6,0 C 7,2 C 4,8 km/h (1 Bft)
06.10.2022 08:37 7,2 C 6,1 C 92 % 1030,3 hPa 0,0 l/m 1,6 km/h (1 Bft) W-SW 247 0 min 0,0 UV-I 19 W/m 6,0 C 7,2 C 4,8 km/h (1 Bft)
06.10.2022 08:38 7,3 C 6,1 C 92 % 1030,2 hPa 0,0 l/m 1,6 km/h (1 Bft) W-SW 247 0 min 0,0 UV-I 18 W/m 6,1 C 7,3 C 3,2 km/h (1 Bft)
06.10.2022 08:39 7,3 C 6,1 C 92 % 1030,2 hPa 0,0 l/m 3,2 km/h (1 Bft) W-SW 247 0 min 0,0 UV-I 18 W/m 6,1 C 7,3 C 4,8 km/h (1 Bft)
06.10.2022 08:40 7,2 C 6,1 C 92 % 1030,3 hPa 0,0 l/m 3,2 km/h (1 Bft) W-SW 247 0 min 0,0 UV-I 18 W/m 6,0 C 7,2 C 4,8 km/h (1 Bft)
06.10.2022 08:41 7,2 C 6,1 C 91 % 1030,2 hPa 0,0 l/m 3,2 km/h (1 Bft) W-SW 247 0 min 0,0 UV-I 19 W/m 5,8 C 7,2 C 4,8 km/h (1 Bft)
06.10.2022 08:42 7,2 C 5,6 C 91 % 1030,3 hPa 0,0 l/m 3,2 km/h (1 Bft) W-SW 247 0 min 0,0 UV-I 19 W/m 5,8 C 7,2 C 4,8 km/h (1 Bft)
06.10.2022 08:43 7,1 C 5,6 C 91 % 1030,3 hPa 0,0 l/m 3,2 km/h (1 Bft) W-SW 247 0 min 0,0 UV-I 21 W/m 5,7 C 7,1 C 4,8 km/h (1 Bft)
06.10.2022 08:44 7,2 C 5,6 C 91 % 1030,3 hPa 0,0 l/m 6,4 km/h (2 Bft) SW 225 0 min 0,0 UV-I 21 W/m 5,8 C 7,2 C 6,4 km/h (2 Bft)
06.10.2022 08:45 7,2 C 5,6 C 92 % 1030,3 hPa 0,0 l/m 3,2 km/h (1 Bft) SW 225 0 min 0,0 UV-I 21 W/m 6,0 C 7,2 C 6,4 km/h (2 Bft)
06.10.2022 08:46 7,2 C 5,6 C 91 % 1030,4 hPa 0,0 l/m 3,2 km/h (1 Bft) SW 225 0 min 0,0 UV-I 23 W/m 5,8 C 7,2 C 4,8 km/h (1 Bft)
06.10.2022 08:47 7,2 C 5,6 C 91 % 1030,4 hPa 0,0 l/m 3,2 km/h (1 Bft) SW 225 0 min 0,0 UV-I 26 W/m 5,8 C 7,2 C 4,8 km/h (1 Bft)
06.10.2022 08:48 7,3 C 6,1 C 92 % 1030,3 hPa 0,0 l/m 3,2 km/h (1 Bft) SW 225 0 min 0,0 UV-I 32 W/m 6,1 C 7,3 C 4,8 km/h (1 Bft)
06.10.2022 08:49 7,3 C 6,1 C 92 % 1030,4 hPa 0,0 l/m 3,2 km/h (1 Bft) SW 225 0 min 0,0 UV-I 32 W/m 6,1 C 7,3 C 4,8 km/h (1 Bft)
06.10.2022 08:50 7,3 C 6,1 C 92 % 1030,4 hPa 0,0 l/m 3,2 km/h (1 Bft) SW 225 0 min 0,0 UV-I 30 W/m 6,1 C 7,3 C 4,8 km/h (1 Bft)
06.10.2022 08:51 7,3 C 6,1 C 92 % 1030,4 hPa 0,0 l/m 3,2 km/h (1 Bft) SW 225 0 min 0,0 UV-I 27 W/m 6,1 C 7,3 C 4,8 km/h (1 Bft)
06.10.2022 08:52 7,4 C 6,1 C 92 % 1030,5 hPa 0,0 l/m 3,2 km/h (1 Bft) SW 225 0 min 0,0 UV-I 28 W/m 6,2 C 7,4 C 4,8 km/h (1 Bft)
06.10.2022 08:53 7,4 C 6,1 C 92 % 1030,5 hPa 0,0 l/m 0,0 km/h (0 Bft) SW 225 0 min 0,0 UV-I 32 W/m 6,2 C 7,4 C 3,2 km/h (1 Bft)
06.10.2022 08:54 7,4 C 6,1 C 91 % 1030,5 hPa 0,0 l/m 1,6 km/h (1 Bft) SW 225 0 min 0,0 UV-I 32 W/m 6,0 C 7,4 C 4,8 km/h (1 Bft)
06.10.2022 08:55 7,5 C 6,1 C 91 % 1030,5 hPa 0,0 l/m 3,2 km/h (1 Bft) SW 225 0 min 0,0 UV-I 32 W/m 6,1 C 7,5 C 4,8 km/h (1 Bft)
06.10.2022 08:56 7,5 C 6,1 C 92 % 1030,5 hPa 0,0 l/m 3,2 km/h (1 Bft) SW 225 0 min 0,0 UV-I 30 W/m 6,3 C 7,5 C 4,8 km/h (1 Bft)
06.10.2022 08:57 7,5 C 6,1 C 91 % 1030,4 hPa 0,0 l/m 3,2 km/h (1 Bft) SW 225 0 min 0,0 UV-I 32 W/m 6,1 C 7,5 C 4,8 km/h (1 Bft)
06.10.2022 08:58 7,4 C 6,1 C 91 % 1030,5 hPa 0,0 l/m 3,2 km/h (1 Bft) SW 225 0 min 0,0 UV-I 32 W/m 6,0 C 7,4 C 4,8 km/h (1 Bft)
06.10.2022 08:59 7,4 C 6,1 C 91 % 1030,5 hPa 0,0 l/m 1,6 km/h (1 Bft) SW 225 0 min 0,0 UV-I 39 W/m 6,0 C 7,4 C 3,2 km/h (1 Bft)
06.10.2022 09:00 7,3 C 6,1 C 91 % 1030,6 hPa 0,0 l/m 3,2 km/h (1 Bft) SW 225 0 min 0,0 UV-I 51 W/m 5,9 C 7,3 C 4,8 km/h (1 Bft)
06.10.2022 09:01 7,3 C 6,1 C 91 % 1030,6 hPa 0,0 l/m 1,6 km/h (1 Bft) SW 225 0 min 0,0 UV-I 47 W/m 5,9 C 7,3 C 3,2 km/h (1 Bft)
06.10.2022 09:02 7,3 C 6,7 C 91 % 1030,6 hPa 0,0 l/m 1,6 km/h (1 Bft) SW 225 0 min 0,0 UV-I 35 W/m 5,9 C 7,3 C 3,2 km/h (1 Bft)
06.10.2022 09:03 7,3 C 6,7 C 91 % 1030,6 hPa 0,0 l/m 3,2 km/h (1 Bft) SW 225 0 min 0,0 UV-I 29 W/m 5,9 C 7,3 C 4,8 km/h (1 Bft)
06.10.2022 09:04 7,3 C 6,7 C 91 % 1030,6 hPa 0,0 l/m 4,8 km/h (1 Bft) SW 225 0 min 0,0 UV-I 37 W/m 5,9 C 7,3 C 8,0 km/h (2 Bft)
06.10.2022 09:05 7,2 C 6,7 C 91 % 1030,7 hPa 0,0 l/m 4,8 km/h (1 Bft) SW 225 0 min 0,0 UV-I 33 W/m 5,8 C 7,2 C 6,4 km/h (2 Bft)
06.10.2022 09:06 7,2 C 6,1 C 91 % 1030,6 hPa 0,0 l/m 3,2 km/h (1 Bft) SW 225 0 min 0,0 UV-I 26 W/m 5,8 C 7,2 C 4,8 km/h (1 Bft)
06.10.2022 09:07 7,3 C 6,1 C 91 % 1030,7 hPa 0,0 l/m 1,6 km/h (1 Bft) SW 225 0 min 0,0 UV-I 25 W/m 5,9 C 7,3 C 3,2 km/h (1 Bft)
06.10.2022 09:08 7,3 C 6,1 C 91 % 1030,6 hPa 0,0 l/m 3,2 km/h (1 Bft) SW 225 0 min 0,0 UV-I 25 W/m 5,9 C 7,3 C 4,8 km/h (1 Bft)
06.10.2022 09:09 7,3 C 6,1 C 91 % 1030,7 hPa 0,0 l/m 3,2 km/h (1 Bft) SW 225 0 min 0,0 UV-I 26 W/m 5,9 C 7,3 C 4,8 km/h (1 Bft)
06.10.2022 09:10 7,3 C 6,1 C 91 % 1030,6 hPa 0,0 l/m 3,2 km/h (1 Bft) SW 225 0 min 0,0 UV-I 26 W/m 5,9 C 7,3 C 4,8 km/h (1 Bft)
06.10.2022 09:11 7,3 C 6,1 C 91 % 1030,7 hPa 0,0 l/m 1,6 km/h (1 Bft) SW 225 0 min 0,0 UV-I 30 W/m 5,9 C 7,3 C 3,2 km/h (1 Bft)
06.10.2022 09:12 7,2 C 6,1 C 91 % 1030,7 hPa 0,0 l/m 3,2 km/h (1 Bft) SW 225 0 min 0,0 UV-I 32 W/m 5,8 C 7,2 C 3,2 km/h (1 Bft)
06.10.2022 09:13 7,3 C 6,1 C 91 % 1030,7 hPa 0,0 l/m 3,2 km/h (1 Bft) SW 225 0 min 0,0 UV-I 30 W/m 5,9 C 7,3 C 4,8 km/h (1 Bft)
06.10.2022 09:14 7,3 C 6,1 C 91 % 1030,7 hPa 0,0 l/m 3,2 km/h (1 Bft) SW 225 0 min 0,0 UV-I 33 W/m 5,9 C 7,3 C 4,8 km/h (1 Bft)
06.10.2022 09:15 7,3 C 6,1 C 91 % 1030,7 hPa 0,0 l/m 3,2 km/h (1 Bft) SW 225 0 min 0,0 UV-I 30 W/m 5,9 C 7,3 C 4,8 km/h (1 Bft)
06.10.2022 09:16 7,4 C 6,1 C 91 % 1030,7 hPa 0,0 l/m 4,8 km/h (1 Bft) SW 225 0 min 0,0 UV-I 25 W/m 6,0 C 7,4 C 6,4 km/h (2 Bft)
06.10.2022 09:17 7,4 C 6,1 C 91 % 1030,8 hPa 0,0 l/m 4,8 km/h (1 Bft) SW 225 0 min 0,0 UV-I 28 W/m 6,0 C 7,4 C 4,8 km/h (1 Bft)
06.10.2022 09:18 7,4 C 6,1 C 91 % 1030,8 hPa 0,0 l/m 4,8 km/h (1 Bft) SW 225 0 min 0,0 UV-I 32 W/m 6,0 C 7,4 C 6,4 km/h (2 Bft)
06.10.2022 09:19 7,5 C 6,1 C 91 % 1030,7 hPa 0,0 l/m 4,8 km/h (1 Bft) SW 225 0 min 0,0 UV-I 30 W/m 6,1 C 7,5 C 8,0 km/h (2 Bft)
06.10.2022 09:20 7,5 C 6,7 C 91 % 1030,7 hPa 0,0 l/m 4,8 km/h (1 Bft) S 180 0 min 0,0 UV-I 34 W/m 6,1 C 7,5 C 6,4 km/h (2 Bft)
06.10.2022 09:21 7,6 C 6,7 C 91 % 1030,7 hPa 0,0 l/m 4,8 km/h (1 Bft) S-SW 202 0 min 0,0 UV-I 39 W/m 6,2 C 7,6 C 6,4 km/h (2 Bft)
06.10.2022 09:22 7,6 C 6,7 C 91 % 1030,8 hPa 0,0 l/m 3,2 km/h (1 Bft) S-SW 202 0 min 0,0 UV-I 40 W/m 6,2 C 7,6 C 4,8 km/h (1 Bft)
06.10.2022 09:23 7,6 C 6,7 C 91 % 1030,8 hPa 0,0 l/m 3,2 km/h (1 Bft) S-SW 202 0 min 0,0 UV-I 51 W/m 6,2 C 7,6 C 8,0 km/h (2 Bft)
06.10.2022 09:24 7,7 C 6,7 C 91 % 1030,8 hPa 0,0 l/m 4,8 km/h (1 Bft) SW 225 0 min 0,5 UV-I 63 W/m 6,3 C 7,7 C 6,4 km/h (2 Bft)
06.10.2022 09:25 7,8 C 6,7 C 91 % 1030,9 hPa 0,0 l/m 6,4 km/h (2 Bft) S-SW 202 0 min 0,0 UV-I 53 W/m 6,4 C 7,8 C 8,0 km/h (2 Bft)
06.10.2022 09:26 7,8 C 6,7 C 91 % 1030,9 hPa 0,0 l/m 4,8 km/h (1 Bft) S-SW 202 0 min 0,0 UV-I 50 W/m 6,4 C 7,8 C 8,0 km/h (2 Bft)
06.10.2022 09:27 7,8 C 7,2 C 91 % 1031,0 hPa 0,0 l/m 6,4 km/h (2 Bft) S-SW 202 0 min 0,0 UV-I 53 W/m 6,4 C 7,8 C 9,7 km/h (2 Bft)
06.10.2022 09:28 7,9 C 7,2 C 91 % 1030,8 hPa 0,0 l/m 4,8 km/h (1 Bft) S-SW 202 0 min 0,0 UV-I 53 W/m 6,5 C 7,9 C 6,4 km/h (2 Bft)
06.10.2022 09:29 7,9 C 7,2 C 91 % 1030,9 hPa 0,0 l/m 6,4 km/h (2 Bft) S-SW 202 0 min 0,0 UV-I 40 W/m 6,5 C 7,9 C 9,7 km/h (2 Bft)
06.10.2022 09:30 8,0 C 7,2 C 91 % 1030,9 hPa 0,0 l/m 6,4 km/h (2 Bft) S-SW 202 0 min 0,0 UV-I 39 W/m 6,6 C 8,0 C 8,0 km/h (2 Bft)
06.10.2022 09:31 8,1 C 7,2 C 91 % 1031,0 hPa 0,0 l/m 6,4 km/h (2 Bft) S-SW 202 0 min 0,0 UV-I 37 W/m 6,7 C 8,1 C 8,0 km/h (2 Bft)
06.10.2022 09:32 8,1 C 7,2 C 91 % 1030,8 hPa 0,0 l/m 6,4 km/h (2 Bft) S-SW 202 0 min 0,0 UV-I 43 W/m 6,7 C 8,1 C 8,0 km/h (2 Bft)
06.10.2022 09:33 8,2 C 7,8 C 91 % 1031,0 hPa 0,0 l/m 6,4 km/h (2 Bft) SW 225 0 min 0,0 UV-I 53 W/m 6,8 C 8,2 C 9,7 km/h (2 Bft)
06.10.2022 09:34 8,2 C 7,8 C 91 % 1031,0 hPa 0,0 l/m 8,0 km/h (2 Bft) S-SW 202 0 min 0,0 UV-I 44 W/m 6,8 C 7,0 C 11,3 km/h (2 Bft)
06.10.2022 09:35 8,3 C 7,8 C 90 % 1030,9 hPa 0,0 l/m 8,0 km/h (2 Bft) S-SW 202 0 min 0,0 UV-I 42 W/m 6,8 C 7,1 C 11,3 km/h (2 Bft)
06.10.2022 09:36 8,3 C 7,8 C 90 % 1031,0 hPa 0,0 l/m 8,0 km/h (2 Bft) S 180 0 min 0,0 UV-I 44 W/m 6,8 C 7,1 C 11,3 km/h (2 Bft)
06.10.2022 09:37 8,3 C 7,8 C 90 % 1031,0 hPa 0,0 l/m 6,4 km/h (2 Bft) S-SW 202 0 min 0,5 UV-I 67 W/m 6,8 C 8,3 C 8,0 km/h (2 Bft)
06.10.2022 09:38 8,4 C 7,8 C 90 % 1031,1 hPa 0,0 l/m 8,0 km/h (2 Bft) S-SW 202 0 min 0,6 UV-I 97 W/m 6,9 C 7,2 C 9,7 km/h (2 Bft)
06.10.2022 09:39 8,4 C 7,8 C 90 % 1031,0 hPa 0,0 l/m 8,0 km/h (2 Bft) S-SW 202 0 min 0,6 UV-I 142 W/m 6,9 C 7,2 C 9,7 km/h (2 Bft)
06.10.2022 09:40 8,5 C 7,8 C 90 % 1031,1 hPa 0,0 l/m 8,0 km/h (2 Bft) S 180 0 min 0,6 UV-I 165 W/m 7,0 C 7,3 C 12,9 km/h (3 Bft)
06.10.2022 09:41 8,6 C 7,8 C 90 % 1031,1 hPa 0,0 l/m 9,7 km/h (2 Bft) S-SW 202 0 min 0,7 UV-I 211 W/m 7,1 C 6,2 C 14,5 km/h (3 Bft)
06.10.2022 09:42 8,7 C 8,3 C 90 % 1031,2 hPa 0,0 l/m 8,0 km/h (2 Bft) S-SW 202 0 min 0,7 UV-I 185 W/m 7,2 C 7,5 C 11,3 km/h (2 Bft)
06.10.2022 09:43 8,7 C 8,3 C 90 % 1031,2 hPa 0,0 l/m 8,0 km/h (2 Bft) S 180 0 min 0,8 UV-I 202 W/m 7,2 C 7,5 C 12,9 km/h (3 Bft)
06.10.2022 09:44 8,8 C 8,3 C 90 % 1031,2 hPa 0,0 l/m 9,7 km/h (2 Bft) S-SW 202 0 min 0,8 UV-I 220 W/m 7,3 C 6,5 C 12,9 km/h (3 Bft)
06.10.2022 09:45 8,8 C 8,3 C 89 % 1031,1 hPa 0,0 l/m 9,7 km/h (2 Bft) S-SW 202 0 min 0,8 UV-I 186 W/m 7,1 C 6,5 C 16,1 km/h (3 Bft)
06.10.2022 09:46 8,8 C 8,3 C 89 % 1031,2 hPa 0,0 l/m 9,7 km/h (2 Bft) S-SW 202 0 min 0,8 UV-I 162 W/m 7,1 C 6,5 C 14,5 km/h (3 Bft)
06.10.2022 09:47 8,9 C 8,3 C 89 % 1031,1 hPa 0,0 l/m 8,0 km/h (2 Bft) S-SW 202 0 min 0,8 UV-I 178 W/m 7,2 C 7,7 C 11,3 km/h (2 Bft)
06.10.2022 09:48 8,9 C 8,3 C 89 % 1031,3 hPa 0,0 l/m 8,0 km/h (2 Bft) S 180 0 min 0,8 UV-I 169 W/m 7,2 C 7,7 C 11,3 km/h (2 Bft)
06.10.2022 09:49 8,9 C 8,3 C 89 % 1031,1 hPa 0,0 l/m 11,3 km/h (2 Bft) S 180 0 min 0,8 UV-I 188 W/m 7,2 C 5,6 C 14,5 km/h (3 Bft)
06.10.2022 09:50 8,9 C 8,3 C 89 % 1031,1 hPa 0,0 l/m 6,4 km/h (2 Bft) S-SW 202 0 min 0,8 UV-I 132 W/m 7,2 C 8,9 C 9,7 km/h (2 Bft)
06.10.2022 09:51 8,9 C 8,3 C 89 % 1031,1 hPa 0,0 l/m 4,8 km/h (1 Bft) S 180 0 min 0,7 UV-I 72 W/m 7,2 C 8,9 C 9,7 km/h (2 Bft)
06.10.2022 09:52 8,9 C 8,3 C 89 % 1031,1 hPa 0,0 l/m 6,4 km/h (2 Bft) S-SW 202 0 min 0,7 UV-I 72 W/m 7,2 C 8,9 C 8,0 km/h (2 Bft)
06.10.2022 09:53 9,0 C 8,3 C 89 % 1031,2 hPa 0,0 l/m 6,4 km/h (2 Bft) S 180 0 min 0,7 UV-I 104 W/m 7,3 C 9,0 C 9,7 km/h (2 Bft)
06.10.2022 09:54 9,0 C 8,3 C 88 % 1031,1 hPa 0,0 l/m 9,7 km/h (2 Bft) S-SW 202 0 min 0,8 UV-I 109 W/m 7,1 C 6,7 C 9,7 km/h (2 Bft)
06.10.2022 09:55 9,1 C 8,3 C 88 % 1031,1 hPa 0,0 l/m 9,7 km/h (2 Bft) S-SW 202 0 min 0,8 UV-I 55 W/m 7,2 C 6,8 C 11,3 km/h (2 Bft)
06.10.2022 09:56 9,1 C 8,9 C 88 % 1031,3 hPa 0,0 l/m 6,4 km/h (2 Bft) S-SO 157 0 min 0,0 UV-I 49 W/m 7,2 C 9,1 C 11,3 km/h (2 Bft)
06.10.2022 09:57 9,2 C 8,9 C 89 % 1031,2 hPa 0,0 l/m 8,0 km/h (2 Bft) S-SW 202 0 min 0,0 UV-I 46 W/m 7,5 C 8,0 C 12,9 km/h (3 Bft)
06.10.2022 09:58 9,3 C 8,9 C 88 % 1031,2 hPa 0,0 l/m 4,8 km/h (1 Bft) S 180 0 min 0,0 UV-I 44 W/m 7,4 C 9,3 C 9,7 km/h (2 Bft)
06.10.2022 09:59 9,3 C 8,9 C 88 % 1031,3 hPa 0,0 l/m 9,7 km/h (2 Bft) S-SW 202 0 min 0,7 UV-I 44 W/m 7,4 C 7,0 C 14,5 km/h (3 Bft)
06.10.2022 10:00 9,3 C 8,9 C 88 % 1031,1 hPa 0,0 l/m 8,0 km/h (2 Bft) S-SW 202 0 min 0,7 UV-I 116 W/m 7,4 C 8,1 C 11,3 km/h (2 Bft)
06.10.2022 10:01 9,3 C 8,9 C 87 % 1031,3 hPa 0,0 l/m 8,0 km/h (2 Bft) S-SW 202 0 min 0,9 UV-I 126 W/m 7,2 C 8,1 C 11,3 km/h (2 Bft)
06.10.2022 10:02 9,3 C 8,9 C 87 % 1031,2 hPa 0,0 l/m 11,3 km/h (2 Bft) S-SW 202 0 min 0,8 UV-I 118 W/m 7,2 C 6,1 C 14,5 km/h (3 Bft)
06.10.2022 10:03 9,3 C 8,9 C 88 % 1031,2 hPa 0,0 l/m 11,3 km/h (2 Bft) S-SW 202 0 min 0,8 UV-I 116 W/m 7,4 C 6,1 C 14,5 km/h (3 Bft)
06.10.2022 10:04 9,3 C 8,9 C 87 % 1031,2 hPa 0,0 l/m 12,9 km/h (3 Bft) S-SW 202 0 min 0,8 UV-I 120 W/m 7,2 C 5,3 C 14,5 km/h (3 Bft)
06.10.2022 10:05 9,3 C 8,9 C 87 % 1031,3 hPa 0,0 l/m 11,3 km/h (2 Bft) S-SW 202 0 min 0,9 UV-I 123 W/m 7,2 C 6,1 C 14,5 km/h (3 Bft)
06.10.2022 10:06 9,3 C 8,9 C 87 % 1031,2 hPa 0,0 l/m 8,0 km/h (2 Bft) SW 225 0 min 0,9 UV-I 146 W/m 7,2 C 8,1 C 11,3 km/h (2 Bft)
06.10.2022 10:07 9,3 C 8,9 C 87 % 1031,2 hPa 0,0 l/m 8,0 km/h (2 Bft) S 180 0 min 1,0 UV-I 207 W/m 7,2 C 8,1 C 12,9 km/h (3 Bft)
06.10.2022 10:08 9,4 C 8,9 C 87 % 1031,2 hPa 0,0 l/m 8,0 km/h (2 Bft) S-SW 202 0 min 1,1 UV-I 211 W/m 7,3 C 8,2 C 12,9 km/h (3 Bft)
06.10.2022 10:09 9,4 C 8,9 C 87 % 1031,2 hPa 0,0 l/m 9,7 km/h (2 Bft) S-SW 202 0 min 0,9 UV-I 125 W/m 7,3 C 7,1 C 12,9 km/h (3 Bft)
06.10.2022 10:10 9,4 C 9,4 C 86 % 1031,2 hPa 0,0 l/m 9,7 km/h (2 Bft) S-SW 202 0 min 0,9 UV-I 181 W/m 7,2 C 7,1 C 12,9 km/h (3 Bft)
06.10.2022 10:11 9,5 C 9,4 C 87 % 1031,2 hPa 0,0 l/m 11,3 km/h (2 Bft) S 180 0 min 1,0 UV-I 151 W/m 7,4 C 6,3 C 14,5 km/h (3 Bft)
06.10.2022 10:12 9,6 C 9,4 C 87 % 1031,2 hPa 0,0 l/m 9,7 km/h (2 Bft) S-SW 202 0 min 0,9 UV-I 121 W/m 7,5 C 7,3 C 14,5 km/h (3 Bft)
06.10.2022 10:13 9,5 C 9,4 C 86 % 1031,3 hPa 0,0 l/m 11,3 km/h (2 Bft) S-SW 202 0 min 0,9 UV-I 168 W/m 7,3 C 6,3 C 16,1 km/h (3 Bft)
06.10.2022 10:14 9,5 C 9,4 C 86 % 1031,4 hPa 0,0 l/m 12,9 km/h (3 Bft) S-SW 202 0 min 1,0 UV-I 185 W/m 7,3 C 5,5 C 16,1 km/h (3 Bft)
06.10.2022 10:15 9,5 C 9,4 C 86 % 1031,4 hPa 0,0 l/m 11,3 km/h (2 Bft) S-SW 202 0 min 0,9 UV-I 155 W/m 7,3 C 6,3 C 14,5 km/h (3 Bft)
06.10.2022 10:16 9,6 C 9,4 C 86 % 1031,3 hPa 0,0 l/m 9,7 km/h (2 Bft) S-SW 202 0 min 0,9 UV-I 167 W/m 7,4 C 7,3 C 11,3 km/h (2 Bft)
06.10.2022 10:17 9,6 C 9,4 C 87 % 1031,4 hPa 0,0 l/m 4,8 km/h (1 Bft) S 180 0 min 0,8 UV-I 67 W/m 7,5 C 9,6 C 8,0 km/h (2 Bft)
06.10.2022 10:18 9,7 C 9,4 C 86 % 1031,4 hPa 0,0 l/m 8,0 km/h (2 Bft) S 180 0 min 1,0 UV-I 146 W/m 7,5 C 8,5 C 11,3 km/h (2 Bft)
06.10.2022 10:19 9,7 C 9,4 C 86 % 1031,5 hPa 0,0 l/m 9,7 km/h (2 Bft) S-SW 202 0 min 1,0 UV-I 119 W/m 7,5 C 7,4 C 14,5 km/h (3 Bft)
06.10.2022 10:20 9,8 C 9,4 C 86 % 1031,5 hPa 0,0 l/m 12,9 km/h (3 Bft) S-SW 202 0 min 1,0 UV-I 88 W/m 7,6 C 5,8 C 16,1 km/h (3 Bft)
06.10.2022 10:21 9,8 C 9,4 C 86 % 1031,5 hPa 0,0 l/m 9,7 km/h (2 Bft) S-SW 202 0 min 1,0 UV-I 121 W/m 7,6 C 7,6 C 12,9 km/h (3 Bft)
06.10.2022 10:22 9,8 C 9,4 C 86 % 1031,4 hPa 0,0 l/m 8,0 km/h (2 Bft) S 180 0 min 0,9 UV-I 83 W/m 7,6 C 8,6 C 11,3 km/h (2 Bft)
06.10.2022 10:23 9,9 C 10,0 C 86 % 1031,4 hPa 0,0 l/m 4,8 km/h (1 Bft) S 180 0 min 0,9 UV-I 58 W/m 7,7 C 9,9 C 6,4 km/h (2 Bft)
06.10.2022 10:24 10,1 C 10,0 C 86 % 1031,4 hPa 0,0 l/m 8,0 km/h (2 Bft) S-SW 202 0 min 0,0 UV-I 53 W/m 7,9 C 9,0 C 9,7 km/h (2 Bft)
06.10.2022 10:25 10,1 C 10,6 C 85 % 1031,5 hPa 0,0 l/m 6,4 km/h (2 Bft) S 180 0 min 0,0 UV-I 50 W/m 7,7 C 10,1 C 8,0 km/h (2 Bft)
06.10.2022 10:26 10,1 C 10,6 C 86 % 1031,4 hPa 0,0 l/m 8,0 km/h (2 Bft) S-SW 202 0 min 0,0 UV-I 49 W/m 7,9 C 9,0 C 9,7 km/h (2 Bft)
06.10.2022 10:27 10,1 C 11,1 C 85 % 1031,4 hPa 0,0 l/m 8,0 km/h (2 Bft) S-SW 202 0 min 0,0 UV-I 47 W/m 7,7 C 9,0 C 14,5 km/h (3 Bft)
06.10.2022 10:28 10,1 C 11,1 C 85 % 1031,4 hPa 0,0 l/m 11,3 km/h (2 Bft) SW 225 0 min 0,0 UV-I 47 W/m 7,7 C 7,0 C 17,7 km/h (3 Bft)
06.10.2022 10:29 10,1 C 10,6 C 85 % 1031,5 hPa 0,0 l/m 6,4 km/h (2 Bft) S-SW 202 0 min 0,0 UV-I 53 W/m 7,7 C 10,1 C 9,7 km/h (2 Bft)
06.10.2022 10:30 10,1 C 10,6 C 85 % 1031,5 hPa 0,0 l/m 8,0 km/h (2 Bft) S-SW 202 0 min 0,0 UV-I 49 W/m 7,7 C 9,0 C 11,3 km/h (2 Bft)
06.10.2022 10:31 10,1 C 10,6 C 85 % 1031,5 hPa 0,0 l/m 8,0 km/h (2 Bft) S-SW 202 0 min 0,0 UV-I 59 W/m 7,7 C 9,0 C 9,7 km/h (2 Bft)
06.10.2022 10:32 10,1 C 11,1 C 84 % 1031,6 hPa 0,0 l/m 8,0 km/h (2 Bft) S-SW 202 0 min 0,5 UV-I 51 W/m 7,5 C 9,0 C 11,3 km/h (2 Bft)
06.10.2022 10:33 10,1 C 11,1 C 84 % 1031,6 hPa 0,0 l/m 6,4 km/h (2 Bft) S-SW 202 0 min 1,0 UV-I 69 W/m 7,5 C 10,1 C 9,7 km/h (2 Bft)
06.10.2022 10:34 10,1 C 11,1 C 84 % 1031,6 hPa 0,0 l/m 6,4 km/h (2 Bft) S-SW 202 0 min 1,0 UV-I 81 W/m 7,5 C 10,1 C 8,0 km/h (2 Bft)
06.10.2022 10:35 10,2 C 11,7 C 86 % 1031,6 hPa 0,0 l/m 4,8 km/h (1 Bft) S-SW 202 0 min 1,0 UV-I 86 W/m 8,0 C 10,2 C 8,0 km/h (2 Bft)
06.10.2022 10:36 10,3 C 11,7 C 85 % 1031,6 hPa 0,0 l/m 6,4 km/h (2 Bft) S-SW 202 0 min 1,0 UV-I 146 W/m 7,9 C 10,3 C 9,7 km/h (2 Bft)
06.10.2022 10:37 10,3 C 11,1 C 84 % 1031,6 hPa 0,0 l/m 8,0 km/h (2 Bft) S 180 0 min 1,0 UV-I 98 W/m 7,7 C 9,2 C 11,3 km/h (2 Bft)
06.10.2022 10:38 10,3 C 11,1 C 84 % 1031,6 hPa 0,0 l/m 8,0 km/h (2 Bft) S-SW 202 0 min 1,0 UV-I 97 W/m 7,7 C 9,2 C 9,7 km/h (2 Bft)
06.10.2022 10:39 10,4 C 11,1 C 84 % 1031,6 hPa 0,0 l/m 4,8 km/h (1 Bft) S 180 0 min 1,0 UV-I 70 W/m 7,8 C 10,4 C 9,7 km/h (2 Bft)
06.10.2022 10:40 10,4 C 11,1 C 84 % 1031,6 hPa 0,0 l/m 8,0 km/h (2 Bft) S-SW 202 0 min 1,0 UV-I 63 W/m 7,8 C 9,3 C 11,3 km/h (2 Bft)
06.10.2022 10:41 10,4 C 11,1 C 83 % 1031,6 hPa 0,0 l/m 8,0 km/h (2 Bft) S-SW 202 0 min 1,0 UV-I 72 W/m 7,6 C 9,3 C 9,7 km/h (2 Bft)
06.10.2022 10:42 10,5 C 11,1 C 83 % 1031,7 hPa 0,0 l/m 8,0 km/h (2 Bft) S 180 0 min 1,0 UV-I 77 W/m 7,7 C 9,4 C 14,5 km/h (3 Bft)
06.10.2022 10:43 10,5 C 11,1 C 82 % 1031,7 hPa 0,0 l/m 11,3 km/h (2 Bft) S-SW 202 0 min 1,1 UV-I 148 W/m 7,6 C 7,4 C 14,5 km/h (3 Bft)
06.10.2022 10:44 10,6 C 10,6 C 82 % 1031,7 hPa 0,0 l/m 8,0 km/h (2 Bft) W-SW 247 0 min 1,1 UV-I 162 W/m 7,7 C 9,5 C 11,3 km/h (2 Bft)
06.10.2022 10:45 10,6 C 10,6 C 82 % 1031,7 hPa 0,0 l/m 8,0 km/h (2 Bft) S 180 0 min 1,1 UV-I 162 W/m 7,7 C 9,5 C 12,9 km/h (3 Bft)
06.10.2022 10:46 10,7 C 11,1 C 82 % 1031,7 hPa 0,0 l/m 8,0 km/h (2 Bft) S 180 0 min 1,1 UV-I 237 W/m 7,8 C 9,6 C 12,9 km/h (3 Bft)
06.10.2022 10:47 10,7 C 11,1 C 82 % 1031,7 hPa 0,0 l/m 4,8 km/h (1 Bft) SW 225 0 min 1,4 UV-I 322 W/m 7,8 C 10,7 C 8,0 km/h (2 Bft)
06.10.2022 10:48 10,8 C 11,1 C 82 % 1031,7 hPa 0,0 l/m 3,2 km/h (1 Bft) W-SW 247 0 min 1,5 UV-I 243 W/m 7,9 C 10,8 C 6,4 km/h (2 Bft)
06.10.2022 10:49 10,9 C 11,1 C 82 % 1031,7 hPa 0,0 l/m 6,4 km/h (2 Bft) S 180 0 min 1,6 UV-I 381 W/m 7,9 C 10,9 C 16,1 km/h (3 Bft)
06.10.2022 10:50 11,1 C 11,1 C 81 % 1031,6 hPa 0,0 l/m 8,0 km/h (2 Bft) S-SW 202 1 min 1,7 UV-I 396 W/m 8,0 C 10,0 C 11,3 km/h (2 Bft)
06.10.2022 10:51 11,1 C 11,1 C 81 % 1031,7 hPa 0,0 l/m 9,7 km/h (2 Bft) S-SW 202 1 min 1,7 UV-I 397 W/m 8,0 C 9,0 C 17,7 km/h (3 Bft)
06.10.2022 10:52 11,1 C 11,1 C 79 % 1031,8 hPa 0,0 l/m 12,9 km/h (3 Bft) S-SW 202 1 min 1,7 UV-I 404 W/m 7,6 C 7,4 C 17,7 km/h (3 Bft)
06.10.2022 10:53 11,1 C 11,1 C 79 % 1031,7 hPa 0,0 l/m 9,7 km/h (2 Bft) S-SW 202 1 min 1,6 UV-I 399 W/m 7,6 C 9,0 C 12,9 km/h (3 Bft)
06.10.2022 10:54 11,1 C 11,1 C 79 % 1031,7 hPa 0,0 l/m 9,7 km/h (2 Bft) S-SW 202 1 min 1,7 UV-I 401 W/m 7,6 C 9,0 C 12,9 km/h (3 Bft)
06.10.2022 10:55 11,1 C 11,1 C 79 % 1031,7 hPa 0,0 l/m 8,0 km/h (2 Bft) SW 225 1 min 1,8 UV-I 408 W/m 7,6 C 10,0 C 12,9 km/h (3 Bft)
06.10.2022 10:56 11,2 C 11,1 C 79 % 1031,8 hPa 0,0 l/m 8,0 km/h (2 Bft) SW 225 1 min 1,8 UV-I 411 W/m 7,7 C 10,1 C 14,5 km/h (3 Bft)
06.10.2022 10:57 11,2 C 11,7 C 78 % 1031,8 hPa 0,0 l/m 11,3 km/h (2 Bft) S-SW 202 1 min 1,8 UV-I 413 W/m 7,5 C 8,2 C 14,5 km/h (3 Bft)
06.10.2022 10:58 11,3 C 11,7 C 78 % 1031,8 hPa 0,0 l/m 8,0 km/h (2 Bft) W 270 1 min 1,8 UV-I 417 W/m 7,6 C 10,2 C 12,9 km/h (3 Bft)
06.10.2022 10:59 11,3 C 11,7 C 77 % 1031,8 hPa 0,0 l/m 9,7 km/h (2 Bft) S-SW 202 1 min 1,8 UV-I 418 W/m 7,4 C 9,2 C 16,1 km/h (3 Bft)
06.10.2022 11:00 11,3 C 11,1 C 77 % 1031,9 hPa 0,0 l/m 9,7 km/h (2 Bft) SW 225 1 min 1,8 UV-I 420 W/m 7,4 C 9,2 C 16,1 km/h (3 Bft)
06.10.2022 11:01 11,3 C 11,7 C 77 % 1031,8 hPa 0,0 l/m 9,7 km/h (2 Bft) S-SW 202 1 min 1,9 UV-I 424 W/m 7,4 C 9,2 C 16,1 km/h (3 Bft)
06.10.2022 11:02 11,4 C 11,7 C 77 % 1031,8 hPa 0,0 l/m 9,7 km/h (2 Bft) S-SW 202 1 min 1,9 UV-I 424 W/m 7,5 C 9,3 C 17,7 km/h (3 Bft)
06.10.2022 11:03 11,5 C 12,2 C 77 % 1031,8 hPa 0,0 l/m 8,0 km/h (2 Bft) SW 225 1 min 1,9 UV-I 425 W/m 7,6 C 10,4 C 12,9 km/h (3 Bft)
06.10.2022 11:04 11,6 C 12,8 C 77 % 1031,8 hPa 0,0 l/m 8,0 km/h (2 Bft) SW 225 1 min 1,9 UV-I 425 W/m 7,7 C 10,5 C 16,1 km/h (3 Bft)
06.10.2022 11:05 11,6 C 13,9 C 76 % 1031,9 hPa 0,0 l/m 8,0 km/h (2 Bft) S-SW 202 1 min 1,9 UV-I 427 W/m 7,5 C 10,5 C 16,1 km/h (3 Bft)
06.10.2022 11:06 11,6 C 14,4 C 75 % 1031,9 hPa 0,0 l/m 14,5 km/h (3 Bft) SW 225 1 min 1,9 UV-I 433 W/m 7,3 C 7,3 C 19,3 km/h (3 Bft)
06.10.2022 11:07 11,6 C 14,4 C 75 % 1031,9 hPa 0,0 l/m 11,3 km/h (2 Bft) S-SW 202 1 min 2,0 UV-I 434 W/m 7,3 C 8,7 C 16,1 km/h (3 Bft)
06.10.2022 11:08 11,6 C 14,4 C 75 % 1031,9 hPa 0,0 l/m 8,0 km/h (2 Bft) SW 225 1 min 2,0 UV-I 432 W/m 7,3 C 10,5 C 14,5 km/h (3 Bft)
06.10.2022 11:09 11,6 C 15,0 C 76 % 1031,9 hPa 0,0 l/m 11,3 km/h (2 Bft) SW 225 1 min 2,0 UV-I 438 W/m 7,5 C 8,7 C 20,9 km/h (4 Bft)
06.10.2022 11:10 11,7 C 15,0 C 75 % 1031,8 hPa 0,0 l/m 20,9 km/h (4 Bft) W 270 1 min 2,0 UV-I 438 W/m 7,4 C 5,2 C 29,0 km/h (5 Bft)
06.10.2022 11:11 11,7 C 15,0 C 74 % 1031,9 hPa 0,0 l/m 19,3 km/h (3 Bft) W-SW 247 1 min 2,0 UV-I 441 W/m 7,2 C 5,7 C 25,7 km/h (4 Bft)
06.10.2022 11:12 11,7 C 15,0 C 73 % 1032,0 hPa 0,0 l/m 14,5 km/h (3 Bft) W-SW 247 1 min 2,0 UV-I 442 W/m 7,0 C 7,4 C 22,5 km/h (4 Bft)
06.10.2022 11:13 11,7 C 15,0 C 73 % 1031,9 hPa 0,0 l/m 12,9 km/h (3 Bft) W-SW 247 1 min 2,0 UV-I 445 W/m 7,0 C 8,1 C 19,3 km/h (3 Bft)
06.10.2022 11:14 11,7 C 15,0 C 72 % 1032,0 hPa 0,0 l/m 12,9 km/h (3 Bft) W 270 1 min 2,1 UV-I 443 W/m 6,8 C 8,1 C 20,9 km/h (4 Bft)
06.10.2022 11:15 11,7 C 15,0 C 72 % 1031,9 hPa 0,0 l/m 17,7 km/h (3 Bft) W-SW 247 1 min 2,1 UV-I 450 W/m 6,8 C 6,2 C 25,7 km/h (4 Bft)
06.10.2022 11:16 11,7 C 15,6 C 72 % 1032,0 hPa 0,0 l/m 14,5 km/h (3 Bft) W-SW 247 1 min 2,1 UV-I 454 W/m 6,8 C 7,4 C 22,5 km/h (4 Bft)
06.10.2022 11:17 11,7 C 15,6 C 72 % 1032,0 hPa 0,0 l/m 9,7 km/h (2 Bft) SW 225 1 min 2,1 UV-I 455 W/m 6,8 C 9,6 C 12,9 km/h (3 Bft)
06.10.2022 11:18 11,7 C 16,1 C 72 % 1031,9 hPa 0,0 l/m 14,5 km/h (3 Bft) W-SW 247 1 min 2,1 UV-I 457 W/m 6,8 C 7,4 C 25,7 km/h (4 Bft)
06.10.2022 11:19 11,8 C 16,1 C 73 % 1032,0 hPa 0,0 l/m 17,7 km/h (3 Bft) W-SW 247 1 min 2,1 UV-I 459 W/m 7,1 C 6,3 C 22,5 km/h (4 Bft)
06.10.2022 11:20 11,8 C 16,1 C 73 % 1032,1 hPa 0,0 l/m 16,1 km/h (3 Bft) S-SW 202 1 min 2,1 UV-I 457 W/m 7,1 C 6,9 C 25,7 km/h (4 Bft)
06.10.2022 11:21 11,8 C 16,1 C 72 % 1032,0 hPa 0,0 l/m 11,3 km/h (2 Bft) SW 225 1 min 2,1 UV-I 461 W/m 6,9 C 8,9 C 20,9 km/h (4 Bft)
06.10.2022 11:22 11,8 C 16,1 C 71 % 1032,1 hPa 0,0 l/m 14,5 km/h (3 Bft) SW 225 1 min 2,1 UV-I 459 W/m 6,7 C 7,5 C 22,5 km/h (4 Bft)
06.10.2022 11:23 11,8 C 16,1 C 71 % 1032,0 hPa 0,0 l/m 9,7 km/h (2 Bft) SW 225 1 min 2,2 UV-I 463 W/m 6,7 C 9,7 C 19,3 km/h (3 Bft)
06.10.2022 11:24 11,9 C 16,1 C 71 % 1032,1 hPa 0,0 l/m 14,5 km/h (3 Bft) W-SW 247 1 min 2,2 UV-I 469 W/m 6,8 C 7,6 C 20,9 km/h (4 Bft)
06.10.2022 11:25 11,8 C 16,1 C 71 % 1032,0 hPa 0,0 l/m 12,9 km/h (3 Bft) SW 225 1 min 2,2 UV-I 468 W/m 6,7 C 8,2 C 24,1 km/h (4 Bft)
06.10.2022 11:26 11,9 C 16,7 C 71 % 1032,0 hPa 0,0 l/m 14,5 km/h (3 Bft) W 270 1 min 2,2 UV-I 468 W/m 6,8 C 7,6 C 20,9 km/h (4 Bft)
06.10.2022 11:27 11,9 C 17,2 C 72 % 1031,9 hPa 0,0 l/m 9,7 km/h (2 Bft) S-SW 202 1 min 2,2 UV-I 473 W/m 7,0 C 9,9 C 14,5 km/h (3 Bft)
06.10.2022 11:28 12,1 C 17,8 C 72 % 1032,1 hPa 0,0 l/m 14,5 km/h (3 Bft) W-SW 247 1 min 2,2 UV-I 471 W/m 7,2 C 7,9 C 22,5 km/h (4 Bft)
06.10.2022 11:29 12,1 C 17,8 C 71 % 1032,0 hPa 0,0 l/m 17,7 km/h (3 Bft) W-SW 247 1 min 2,2 UV-I 475 W/m 7,0 C 6,7 C 20,9 km/h (4 Bft)
06.10.2022 11:30 12,1 C 17,8 C 71 % 1032,0 hPa 0,0 l/m 12,9 km/h (3 Bft) W-SW 247 1 min 2,2 UV-I 473 W/m 7,0 C 8,5 C 19,3 km/h (3 Bft)
06.10.2022 11:31 12,1 C 17,8 C 70 % 1032,2 hPa 0,0 l/m 14,5 km/h (3 Bft) W-SW 247 1 min 2,2 UV-I 478 W/m 6,8 C 7,9 C 17,7 km/h (3 Bft)
06.10.2022 11:32 12,1 C 17,2 C 70 % 1032,0 hPa 0,0 l/m 12,9 km/h (3 Bft) W 270 1 min 2,2 UV-I 478 W/m 6,8 C 8,5 C 20,9 km/h (4 Bft)
06.10.2022 11:33 12,1 C 17,2 C 71 % 1032,0 hPa 0,0 l/m 17,7 km/h (3 Bft) W 270 1 min 2,3 UV-I 482 W/m 7,0 C 6,7 C 24,1 km/h (4 Bft)
06.10.2022 11:34 12,1 C 17,2 C 70 % 1032,0 hPa 0,0 l/m 14,5 km/h (3 Bft) W-SW 247 1 min 2,3 UV-I 482 W/m 6,8 C 7,9 C 17,7 km/h (3 Bft)
06.10.2022 11:35 12,1 C 17,2 C 70 % 1032,2 hPa 0,0 l/m 16,1 km/h (3 Bft) W 270 1 min 2,3 UV-I 484 W/m 6,8 C 7,3 C 20,9 km/h (4 Bft)
06.10.2022 11:36 12,2 C 17,8 C 70 % 1032,1 hPa 0,0 l/m 14,5 km/h (3 Bft) W 270 1 min 2,3 UV-I 487 W/m 6,9 C 8,0 C 19,3 km/h (3 Bft)
06.10.2022 11:37 12,3 C 17,8 C 72 % 1032,2 hPa 0,0 l/m 16,1 km/h (3 Bft) W-SW 247 1 min 2,3 UV-I 483 W/m 7,4 C 7,5 C 27,4 km/h (4 Bft)
06.10.2022 11:38 12,3 C 17,8 C 70 % 1032,1 hPa 0,0 l/m 14,5 km/h (3 Bft) SW 225 1 min 2,3 UV-I 490 W/m 7,0 C 8,1 C 22,5 km/h (4 Bft)
06.10.2022 11:39 12,3 C 18,3 C 71 % 1032,1 hPa 0,0 l/m 16,1 km/h (3 Bft) W-SW 247 1 min 2,3 UV-I 490 W/m 7,2 C 7,5 C 24,1 km/h (4 Bft)
06.10.2022 11:40 12,4 C 18,3 C 70 % 1032,0 hPa 0,0 l/m 16,1 km/h (3 Bft) W-SW 247 1 min 2,3 UV-I 487 W/m 7,1 C 7,6 C 24,1 km/h (4 Bft)
06.10.2022 11:41 12,4 C 17,8 C 71 % 1032,0 hPa 0,0 l/m 9,7 km/h (2 Bft) SW 225 1 min 2,4 UV-I 491 W/m 7,3 C 10,4 C 16,1 km/h (3 Bft)
06.10.2022 11:42 12,3 C 17,2 C 70 % 1032,1 hPa 0,0 l/m 9,7 km/h (2 Bft) SW 225 1 min 2,4 UV-I 496 W/m 7,0 C 10,3 C 16,1 km/h (3 Bft)
06.10.2022 11:43 12,4 C 17,8 C 71 % 1032,1 hPa 0,0 l/m 9,7 km/h (2 Bft) S-SW 202 1 min 2,4 UV-I 499 W/m 7,3 C 10,4 C 12,9 km/h (3 Bft)
06.10.2022 11:44 12,4 C 17,8 C 71 % 1032,2 hPa 0,0 l/m 12,9 km/h (3 Bft) SW 225 1 min 2,4 UV-I 497 W/m 7,3 C 8,9 C 19,3 km/h (3 Bft)
06.10.2022 11:45 12,5 C 18,3 C 70 % 1032,1 hPa 0,0 l/m 8,0 km/h (2 Bft) SW 225 1 min 2,4 UV-I 499 W/m 7,2 C 11,5 C 12,9 km/h (3 Bft)
06.10.2022 11:46 12,6 C 18,3 C 69 % 1032,2 hPa 0,0 l/m 12,9 km/h (3 Bft) W 270 1 min 2,4 UV-I 501 W/m 7,1 C 9,1 C 16,1 km/h (3 Bft)
06.10.2022 11:47 12,6 C 18,3 C 68 % 1032,2 hPa 0,0 l/m 14,5 km/h (3 Bft) W-SW 247 1 min 2,4 UV-I 501 W/m 6,9 C 8,5 C 20,9 km/h (4 Bft)
06.10.2022 11:48 12,6 C 18,3 C 68 % 1032,2 hPa 0,0 l/m 9,7 km/h (2 Bft) W-SW 247 1 min 2,4 UV-I 501 W/m 6,9 C 10,6 C 16,1 km/h (3 Bft)
06.10.2022 11:49 12,5 C 18,3 C 68 % 1032,2 hPa 0,0 l/m 11,3 km/h (2 Bft) S-SW 202 1 min 2,4 UV-I 504 W/m 6,8 C 9,7 C 16,1 km/h (3 Bft)
06.10.2022 11:50 12,4 C 18,3 C 69 % 1032,2 hPa 0,0 l/m 12,9 km/h (3 Bft) S-SW 202 1 min 2,5 UV-I 506 W/m 6,9 C 8,9 C 14,5 km/h (3 Bft)
06.10.2022 11:51 12,4 C 18,3 C 69 % 1032,2 hPa 0,0 l/m 11,3 km/h (2 Bft) W-SW 247 1 min 2,5 UV-I 504 W/m 6,9 C 9,6 C 17,7 km/h (3 Bft)
06.10.2022 11:52 12,5 C 18,3 C 70 % 1032,2 hPa 0,0 l/m 11,3 km/h (2 Bft) W-SW 247 1 min 2,5 UV-I 506 W/m 7,2 C 9,7 C 19,3 km/h (3 Bft)
06.10.2022 11:53 12,7 C 18,9 C 71 % 1032,3 hPa 0,0 l/m 8,0 km/h (2 Bft) S 180 1 min 2,5 UV-I 508 W/m 7,6 C 11,7 C 9,7 km/h (2 Bft)
06.10.2022 11:54 12,6 C 18,9 C 69 % 1032,2 hPa 0,0 l/m 8,0 km/h (2 Bft) SW 225 1 min 2,5 UV-I 508 W/m 7,1 C 11,6 C 12,9 km/h (3 Bft)
06.10.2022 11:55 12,6 C 19,4 C 70 % 1032,2 hPa 0,0 l/m 8,0 km/h (2 Bft) S-SW 202 1 min 2,5 UV-I 512 W/m 7,3 C 11,6 C 11,3 km/h (2 Bft)
06.10.2022 11:56 12,7 C 19,4 C 70 % 1032,3 hPa 0,0 l/m 6,4 km/h (2 Bft) S-SW 202 1 min 2,5 UV-I 515 W/m 7,4 C 12,7 C 9,7 km/h (2 Bft)
06.10.2022 11:57 12,7 C 19,4 C 70 % 1032,3 hPa 0,0 l/m 8,0 km/h (2 Bft) S-SO 157 1 min 2,5 UV-I 515 W/m 7,4 C 11,7 C 11,3 km/h (2 Bft)
06.10.2022 11:58 12,7 C 19,4 C 70 % 1032,2 hPa 0,0 l/m 11,3 km/h (2 Bft) SW 225 1 min 2,5 UV-I 519 W/m 7,4 C 9,9 C 14,5 km/h (3 Bft)
06.10.2022 11:59 12,7 C 18,9 C 70 % 1032,3 hPa 0,0 l/m 11,3 km/h (2 Bft) S 180 1 min 2,6 UV-I 522 W/m 7,4 C 9,9 C 16,1 km/h (3 Bft)
06.10.2022 12:00 12,6 C 18,9 C 69 % 1032,3 hPa 0,0 l/m 11,3 km/h (2 Bft) S-SW 202 1 min 2,6 UV-I 524 W/m 7,1 C 9,8 C 12,9 km/h (3 Bft)
06.10.2022 12:01 12,5 C 18,9 C 69 % 1032,3 hPa 0,0 l/m 17,7 km/h (3 Bft) S-SW 202 1 min 2,6 UV-I 526 W/m 7,0 C 7,2 C 22,5 km/h (4 Bft)
06.10.2022 12:02 12,4 C 18,9 C 68 % 1032,3 hPa 0,0 l/m 12,9 km/h (3 Bft) S-SW 202 1 min 2,6 UV-I 522 W/m 6,7 C 8,9 C 19,3 km/h (3 Bft)
06.10.2022 12:03 12,4 C 18,9 C 70 % 1032,3 hPa 0,0 l/m 12,9 km/h (3 Bft) S-SW 202 1 min 2,6 UV-I 524 W/m 7,1 C 8,9 C 17,7 km/h (3 Bft)
06.10.2022 12:04 12,4 C 18,9 C 68 % 1032,3 hPa 0,0 l/m 11,3 km/h (2 Bft) SW 225 1 min 2,6 UV-I 526 W/m 6,7 C 9,6 C 16,1 km/h (3 Bft)
06.10.2022 12:05 12,4 C 19,4 C 69 % 1032,3 hPa 0,0 l/m 9,7 km/h (2 Bft) SW 225 1 min 2,6 UV-I 526 W/m 6,9 C 10,4 C 14,5 km/h (3 Bft)
06.10.2022 12:06 12,6 C 19,4 C 70 % 1032,3 hPa 0,0 l/m 6,4 km/h (2 Bft) S-SW 202 1 min 2,6 UV-I 527 W/m 7,3 C 12,6 C 9,7 km/h (2 Bft)
06.10.2022 12:07 12,6 C 19,4 C 70 % 1032,2 hPa 0,0 l/m 6,4 km/h (2 Bft) S-SW 202 1 min 2,6 UV-I 529 W/m 7,3 C 12,6 C 14,5 km/h (3 Bft)
06.10.2022 12:08 12,8 C 20,0 C 70 % 1032,1 hPa 0,0 l/m 12,9 km/h (3 Bft) W-SW 247 1 min 2,6 UV-I 533 W/m 7,5 C 9,4 C 16,1 km/h (3 Bft)
06.10.2022 12:09 12,9 C 20,0 C 69 % 1032,2 hPa 0,0 l/m 9,7 km/h (2 Bft) S-SW 202 1 min 2,6 UV-I 533 W/m 7,4 C 11,0 C 14,5 km/h (3 Bft)
06.10.2022 12:10 12,8 C 19,4 C 67 % 1032,2 hPa 0,0 l/m 11,3 km/h (2 Bft) S 180 1 min 2,7 UV-I 535 W/m 6,8 C 10,1 C 16,1 km/h (3 Bft)
06.10.2022 12:11 12,8 C 19,4 C 67 % 1032,2 hPa 0,0 l/m 11,3 km/h (2 Bft) S 180 1 min 2,7 UV-I 536 W/m 6,8 C 10,1 C 17,7 km/h (3 Bft)
06.10.2022 12:12 12,7 C 19,4 C 68 % 1032,2 hPa 0,0 l/m 16,1 km/h (3 Bft) S-SW 202 1 min 2,7 UV-I 536 W/m 6,9 C 8,0 C 20,9 km/h (4 Bft)
06.10.2022 12:13 12,7 C 19,4 C 67 % 1032,2 hPa 0,0 l/m 14,5 km/h (3 Bft) SW 225 1 min 2,7 UV-I 538 W/m 6,7 C 8,6 C 19,3 km/h (3 Bft)
06.10.2022 12:14 12,7 C 18,9 C 69 % 1032,2 hPa 0,0 l/m 11,3 km/h (2 Bft) W-SW 247 1 min 2,7 UV-I 536 W/m 7,2 C 9,9 C 19,3 km/h (3 Bft)
06.10.2022 12:15 12,9 C 19,4 C 69 % 1032,3 hPa 0,0 l/m 12,9 km/h (3 Bft) W 270 1 min 2,7 UV-I 533 W/m 7,4 C 9,5 C 20,9 km/h (4 Bft)
06.10.2022 12:16 13,0 C 20,0 C 68 % 1032,2 hPa 0,0 l/m 16,1 km/h (3 Bft) W 270 1 min 2,7 UV-I 537 W/m 7,2 C 8,4 C 19,3 km/h (3 Bft)
06.10.2022 12:17 13,1 C 20,0 C 68 % 1032,3 hPa 0,0 l/m 9,7 km/h (2 Bft) S-SW 202 1 min 2,7 UV-I 536 W/m 7,3 C 11,2 C 12,9 km/h (3 Bft)
06.10.2022 12:18 13,1 C 20,0 C 67 % 1032,3 hPa 0,0 l/m 6,4 km/h (2 Bft) W-SW 247 1 min 2,7 UV-I 533 W/m 7,1 C 13,1 C 12,9 km/h (3 Bft)
06.10.2022 12:19 13,1 C 20,0 C 69 % 1032,3 hPa 0,0 l/m 9,7 km/h (2 Bft) W-SW 247 1 min 2,7 UV-I 534 W/m 7,5 C 11,2 C 16,1 km/h (3 Bft)
06.10.2022 12:20 13,1 C 20,6 C 68 % 1032,3 hPa 0,0 l/m 11,3 km/h (2 Bft) SW 225 1 min 2,7 UV-I 534 W/m 7,3 C 10,4 C 16,1 km/h (3 Bft)
06.10.2022 12:21 13,1 C 20,6 C 68 % 1032,4 hPa 0,0 l/m 9,7 km/h (2 Bft) S-SW 202 1 min 2,7 UV-I 541 W/m 7,3 C 11,2 C 14,5 km/h (3 Bft)
06.10.2022 12:22 12,9 C 20,0 C 66 % 1032,4 hPa 0,0 l/m 9,7 km/h (2 Bft) SW 225 1 min 2,7 UV-I 540 W/m 6,7 C 11,0 C 12,9 km/h (3 Bft)
06.10.2022 12:23 12,9 C 20,0 C 68 % 1032,4 hPa 0,0 l/m 9,7 km/h (2 Bft) SW 225 1 min 2,7 UV-I 538 W/m 7,1 C 11,0 C 14,5 km/h (3 Bft)
06.10.2022 12:24 12,8 C 20,0 C 68 % 1032,3 hPa 0,0 l/m 12,9 km/h (3 Bft) SW 225 1 min 2,7 UV-I 540 W/m 7,0 C 9,4 C 17,7 km/h (3 Bft)
06.10.2022 12:25 12,9 C 20,0 C 69 % 1032,3 hPa 0,0 l/m 9,7 km/h (2 Bft) SW 225 1 min 2,8 UV-I 540 W/m 7,4 C 11,0 C 16,1 km/h (3 Bft)
06.10.2022 12:26 12,9 C 20,6 C 69 % 1032,4 hPa 0,0 l/m 11,3 km/h (2 Bft) W-SW 247 1 min 2,8 UV-I 541 W/m 7,4 C 10,2 C 14,5 km/h (3 Bft)
06.10.2022 12:27 12,9 C 20,6 C 69 % 1032,3 hPa 0,0 l/m 11,3 km/h (2 Bft) W 270 1 min 2,8 UV-I 541 W/m 7,4 C 10,2 C 12,9 km/h (3 Bft)
06.10.2022 12:28 13,1 C 20,6 C 69 % 1032,3 hPa 0,0 l/m 9,7 km/h (2 Bft) W-SW 247 1 min 2,8 UV-I 545 W/m 7,5 C 11,2 C 14,5 km/h (3 Bft)
06.10.2022 12:29 13,2 C 21,1 C 69 % 1032,3 hPa 0,0 l/m 12,9 km/h (3 Bft) W 270 1 min 2,8 UV-I 545 W/m 7,6 C 9,8 C 17,7 km/h (3 Bft)
06.10.2022 12:30 13,3 C 20,6 C 70 % 1032,3 hPa 0,0 l/m 16,1 km/h (3 Bft) W 270 1 min 2,8 UV-I 547 W/m 7,9 C 8,7 C 20,9 km/h (4 Bft)
06.10.2022 12:31 13,3 C 20,6 C 70 % 1032,3 hPa 0,0 l/m 11,3 km/h (2 Bft) W-SW 247 1 min 2,8 UV-I 548 W/m 7,9 C 10,6 C 16,1 km/h (3 Bft)
06.10.2022 12:32 13,4 C 21,1 C 70 % 1032,4 hPa 0,0 l/m 9,7 km/h (2 Bft) S 180 1 min 2,8 UV-I 552 W/m 8,0 C 11,5 C 14,5 km/h (3 Bft)
06.10.2022 12:33 13,4 C 21,1 C 69 % 1032,3 hPa 0,0 l/m 9,7 km/h (2 Bft) S 180 1 min 2,8 UV-I 554 W/m 7,8 C 11,5 C 16,1 km/h (3 Bft)
06.10.2022 12:34 13,3 C 20,6 C 68 % 1032,3 hPa 0,0 l/m 9,7 km/h (2 Bft) SW 225 1 min 2,8 UV-I 555 W/m 7,5 C 11,4 C 14,5 km/h (3 Bft)
06.10.2022 12:35 13,3 C 20,6 C 69 % 1032,3 hPa 0,0 l/m 9,7 km/h (2 Bft) S 180 1 min 2,8 UV-I 555 W/m 7,7 C 11,4 C 12,9 km/h (3 Bft)
06.10.2022 12:36 13,3 C 21,1 C 68 % 1032,4 hPa 0,0 l/m 11,3 km/h (2 Bft) S-SW 202 1 min 2,9 UV-I 557 W/m 7,5 C 10,6 C 16,1 km/h (3 Bft)
06.10.2022 12:37 13,4 C 21,1 C 67 % 1032,4 hPa 0,0 l/m 11,3 km/h (2 Bft) S-SW 202 1 min 2,9 UV-I 561 W/m 7,4 C 10,7 C 14,5 km/h (3 Bft)
06.10.2022 12:38 13,4 C 20,6 C 67 % 1032,3 hPa 0,0 l/m 12,9 km/h (3 Bft) S-SW 202 1 min 2,9 UV-I 561 W/m 7,4 C 10,1 C 16,1 km/h (3 Bft)
06.10.2022 12:39 13,3 C 20,6 C 65 % 1032,3 hPa 0,0 l/m 9,7 km/h (2 Bft) SW 225 1 min 2,9 UV-I 561 W/m 6,9 C 11,4 C 14,5 km/h (3 Bft)
06.10.2022 12:40 13,3 C 20,6 C 67 % 1032,3 hPa 0,0 l/m 9,7 km/h (2 Bft) S-SW 202 1 min 2,9 UV-I 563 W/m 7,3 C 11,4 C 14,5 km/h (3 Bft)
06.10.2022 12:41 13,3 C 20,6 C 67 % 1032,3 hPa 0,0 l/m 12,9 km/h (3 Bft) S-SW 202 1 min 2,9 UV-I 559 W/m 7,3 C 9,9 C 17,7 km/h (3 Bft)
06.10.2022 12:42 13,3 C 20,6 C 68 % 1032,3 hPa 0,0 l/m 9,7 km/h (2 Bft) W 270 1 min 2,9 UV-I 563 W/m 7,5 C 11,4 C 14,5 km/h (3 Bft)
06.10.2022 12:43 13,3 C 21,1 C 68 % 1032,3 hPa 0,0 l/m 6,4 km/h (2 Bft) S-SW 202 1 min 2,9 UV-I 564 W/m 7,5 C 13,3 C 11,3 km/h (2 Bft)
06.10.2022 12:44 13,4 C 21,1 C 67 % 1032,3 hPa 0,0 l/m 12,9 km/h (3 Bft) S-SW 202 1 min 2,9 UV-I 563 W/m 7,4 C 10,1 C 14,5 km/h (3 Bft)
06.10.2022 12:45 13,4 C 21,1 C 67 % 1032,2 hPa 0,0 l/m 12,9 km/h (3 Bft) SW 225 1 min 2,9 UV-I 563 W/m 7,4 C 10,1 C 19,3 km/h (3 Bft)
06.10.2022 12:46 13,4 C 21,1 C 67 % 1032,3 hPa 0,0 l/m 14,5 km/h (3 Bft) S-SW 202 1 min 2,9 UV-I 559 W/m 7,4 C 9,4 C 16,1 km/h (3 Bft)
06.10.2022 12:47 13,3 C 20,0 C 66 % 1032,3 hPa 0,0 l/m 14,5 km/h (3 Bft) S-SW 202 1 min 2,9 UV-I 561 W/m 7,1 C 9,3 C 19,3 km/h (3 Bft)
06.10.2022 12:48 13,3 C 20,0 C 66 % 1032,3 hPa 0,0 l/m 16,1 km/h (3 Bft) W-SW 247 1 min 2,9 UV-I 559 W/m 7,1 C 8,7 C 20,9 km/h (4 Bft)
06.10.2022 12:49 13,4 C 20,6 C 67 % 1032,2 hPa 0,0 l/m 9,7 km/h (2 Bft) S-SW 202 1 min 2,9 UV-I 564 W/m 7,4 C 11,5 C 17,7 km/h (3 Bft)
06.10.2022 12:50 13,6 C 21,1 C 68 % 1032,3 hPa 0,0 l/m 11,3 km/h (2 Bft) SW 225 1 min 2,9 UV-I 564 W/m 7,8 C 11,0 C 16,1 km/h (3 Bft)
06.10.2022 12:51 13,6 C 20,6 C 66 % 1032,3 hPa 0,0 l/m 12,9 km/h (3 Bft) S-SW 202 1 min 2,9 UV-I 568 W/m 7,4 C 10,3 C 17,7 km/h (3 Bft)
06.10.2022 12:52 13,4 C 20,6 C 64 % 1032,3 hPa 0,0 l/m 11,3 km/h (2 Bft) S-SW 202 1 min 3,0 UV-I 568 W/m 6,7 C 10,7 C 16,1 km/h (3 Bft)
06.10.2022 12:53 13,4 C 20,6 C 65 % 1032,4 hPa 0,0 l/m 14,5 km/h (3 Bft) S-SW 202 1 min 2,9 UV-I 571 W/m 7,0 C 9,4 C 20,9 km/h (4 Bft)
06.10.2022 12:54 13,3 C 20,6 C 64 % 1032,4 hPa 0,0 l/m 14,5 km/h (3 Bft) S-SW 202 1 min 3,0 UV-I 571 W/m 6,6 C 9,3 C 19,3 km/h (3 Bft)
06.10.2022 12:55 13,2 C 20,6 C 64 % 1032,3 hPa 0,0 l/m 11,3 km/h (2 Bft) S-SW 202 1 min 3,0 UV-I 573 W/m 6,5 C 10,5 C 16,1 km/h (3 Bft)
06.10.2022 12:56 13,2 C 20,0 C 65 % 1032,3 hPa 0,0 l/m 11,3 km/h (2 Bft) W-SW 247 1 min 3,0 UV-I 571 W/m 6,8 C 10,5 C 20,9 km/h (4 Bft)
06.10.2022 12:57 13,3 C 20,0 C 64 % 1032,2 hPa 0,0 l/m 12,9 km/h (3 Bft) W-SW 247 1 min 3,0 UV-I 570 W/m 6,6 C 9,9 C 19,3 km/h (3 Bft)
06.10.2022 12:58 13,3 C 20,0 C 64 % 1032,3 hPa 0,0 l/m 14,5 km/h (3 Bft) SW 225 1 min 3,0 UV-I 575 W/m 6,6 C 9,3 C 20,9 km/h (4 Bft)
06.10.2022 12:59 13,4 C 20,0 C 65 % 1032,3 hPa 0,0 l/m 12,9 km/h (3 Bft) SW 225 1 min 3,0 UV-I 575 W/m 7,0 C 10,1 C 16,1 km/h (3 Bft)
06.10.2022 13:00 13,3 C 20,6 C 64 % 1032,3 hPa 0,0 l/m 11,3 km/h (2 Bft) SW 225 1 min 3,0 UV-I 573 W/m 6,6 C 10,6 C 19,3 km/h (3 Bft)
06.10.2022 13:01 13,3 C 20,6 C 65 % 1032,3 hPa 0,0 l/m 6,4 km/h (2 Bft) S-SW 202 1 min 3,0 UV-I 573 W/m 6,9 C 13,3 C 11,3 km/h (2 Bft)
06.10.2022 13:02 13,4 C 20,6 C 65 % 1032,3 hPa 0,0 l/m 11,3 km/h (2 Bft) S 180 1 min 3,0 UV-I 575 W/m 7,0 C 10,7 C 16,1 km/h (3 Bft)
06.10.2022 13:03 13,4 C 21,1 C 65 % 1032,3 hPa 0,0 l/m 14,5 km/h (3 Bft) S 180 1 min 3,0 UV-I 578 W/m 7,0 C 9,4 C 19,3 km/h (3 Bft)
06.10.2022 13:04 13,5 C 21,1 C 65 % 1032,2 hPa 0,0 l/m 6,4 km/h (2 Bft) S-SO 157 1 min 3,0 UV-I 577 W/m 7,1 C 13,5 C 11,3 km/h (2 Bft)
06.10.2022 13:05 13,6 C 21,7 C 66 % 1032,3 hPa 0,0 l/m 6,4 km/h (2 Bft) S 180 1 min 3,0 UV-I 577 W/m 7,4 C 13,6 C 9,7 km/h (2 Bft)
06.10.2022 13:06 13,6 C 21,7 C 64 % 1032,3 hPa 0,0 l/m 8,0 km/h (2 Bft) SW 225 1 min 3,0 UV-I 577 W/m 6,9 C 12,6 C 12,9 km/h (3 Bft)
06.10.2022 13:07 13,6 C 21,7 C 65 % 1032,3 hPa 0,0 l/m 8,0 km/h (2 Bft) W 270 1 min 3,0 UV-I 584 W/m 7,1 C 12,6 C 12,9 km/h (3 Bft)
06.10.2022 13:08 13,7 C 22,2 C 66 % 1032,4 hPa 0,0 l/m 6,4 km/h (2 Bft) W 270 1 min 3,0 UV-I 577 W/m 7,5 C 13,7 C 11,3 km/h (2 Bft)
06.10.2022 13:09 13,7 C 22,2 C 63 % 1032,2 hPa 0,0 l/m 8,0 km/h (2 Bft) W-SW 247 1 min 3,0 UV-I 576 W/m 6,8 C 12,7 C 14,5 km/h (3 Bft)
06.10.2022 13:10 13,8 C 22,2 C 65 % 1032,3 hPa 0,0 l/m 6,4 km/h (2 Bft) SW 225 1 min 3,0 UV-I 573 W/m 7,3 C 13,8 C 8,0 km/h (2 Bft)
06.10.2022 13:11 13,9 C 22,2 C 66 % 1032,3 hPa 0,0 l/m 12,9 km/h (3 Bft) S-SW 202 1 min 3,0 UV-I 570 W/m 7,7 C 10,6 C 19,3 km/h (3 Bft)
06.10.2022 13:12 13,8 C 21,1 C 63 % 1032,4 hPa 0,0 l/m 11,3 km/h (2 Bft) S-SW 202 1 min 3,0 UV-I 577 W/m 6,9 C 11,2 C 14,5 km/h (3 Bft)
06.10.2022 13:13 13,6 C 21,7 C 63 % 1032,3 hPa 0,0 l/m 11,3 km/h (2 Bft) S-SW 202 1 min 3,0 UV-I 578 W/m 6,7 C 11,0 C 14,5 km/h (3 Bft)
06.10.2022 13:14 13,6 C 22,2 C 64 % 1032,3 hPa 0,0 l/m 9,7 km/h (2 Bft) S-SW 202 1 min 3,0 UV-I 584 W/m 6,9 C 11,7 C 11,3 km/h (2 Bft)
06.10.2022 13:15 13,5 C 22,2 C 64 % 1032,3 hPa 0,0 l/m 8,0 km/h (2 Bft) S-SW 202 1 min 3,0 UV-I 584 W/m 6,8 C 12,5 C 12,9 km/h (3 Bft)
06.10.2022 13:16 13,6 C 22,2 C 66 % 1032,3 hPa 0,0 l/m 6,4 km/h (2 Bft) W-SW 247 1 min 3,0 UV-I 582 W/m 7,4 C 13,6 C 11,3 km/h (2 Bft)
06.10.2022 13:17 13,7 C 22,2 C 65 % 1032,3 hPa 0,0 l/m 8,0 km/h (2 Bft) S-SW 202 1 min 3,0 UV-I 580 W/m 7,2 C 12,7 C 16,1 km/h (3 Bft)
06.10.2022 13:18 13,8 C 22,8 C 64 % 1032,3 hPa 0,0 l/m 12,9 km/h (3 Bft) S-SW 202 1 min 3,0 UV-I 578 W/m 7,1 C 10,5 C 16,1 km/h (3 Bft)
06.10.2022 13:19 13,8 C 22,2 C 63 % 1032,4 hPa 0,0 l/m 12,9 km/h (3 Bft) S-SW 202 1 min 3,0 UV-I 580 W/m 6,9 C 10,5 C 17,7 km/h (3 Bft)
06.10.2022 13:20 13,8 C 21,7 C 63 % 1032,3 hPa 0,0 l/m 12,9 km/h (3 Bft) S-SW 202 1 min 3,0 UV-I 578 W/m 6,9 C 10,5 C 19,3 km/h (3 Bft)
06.10.2022 13:21 13,7 C 21,7 C 63 % 1032,4 hPa 0,0 l/m 12,9 km/h (3 Bft) S-SW 202 1 min 3,0 UV-I 582 W/m 6,8 C 10,4 C 14,5 km/h (3 Bft)
06.10.2022 13:22 13,7 C 21,7 C 63 % 1032,3 hPa 0,0 l/m 11,3 km/h (2 Bft) S-SW 202 1 min 3,0 UV-I 580 W/m 6,8 C 11,1 C 14,5 km/h (3 Bft)
06.10.2022 13:23 13,7 C 21,7 C 64 % 1032,4 hPa 0,0 l/m 14,5 km/h (3 Bft) S-SW 202 1 min 3,0 UV-I 582 W/m 7,0 C 9,8 C 17,7 km/h (3 Bft)
06.10.2022 13:24 13,7 C 20,6 C 62 % 1032,4 hPa 0,0 l/m 12,9 km/h (3 Bft) S 180 1 min 3,0 UV-I 580 W/m 6,6 C 10,4 C 16,1 km/h (3 Bft)
06.10.2022 13:25 13,7 C 21,1 C 62 % 1032,4 hPa 0,0 l/m 11,3 km/h (2 Bft) S-SW 202 1 min 3,0 UV-I 580 W/m 6,6 C 11,1 C 16,1 km/h (3 Bft)
06.10.2022 13:26 13,7 C 21,1 C 61 % 1032,4 hPa 0,0 l/m 11,3 km/h (2 Bft) W-SW 247 1 min 3,0 UV-I 579 W/m 6,3 C 11,1 C 14,5 km/h (3 Bft)
06.10.2022 13:27 13,8 C 21,7 C 63 % 1032,4 hPa 0,0 l/m 11,3 km/h (2 Bft) W-SW 247 1 min 3,0 UV-I 580 W/m 6,9 C 11,2 C 14,5 km/h (3 Bft)
06.10.2022 13:28 13,9 C 21,7 C 63 % 1032,3 hPa 0,0 l/m 9,7 km/h (2 Bft) W-SW 247 1 min 3,0 UV-I 578 W/m 7,0 C 12,0 C 14,5 km/h (3 Bft)
06.10.2022 13:29 14,0 C 21,7 C 62 % 1032,3 hPa 0,0 l/m 11,3 km/h (2 Bft) W-SW 247 1 min 3,0 UV-I 580 W/m 6,8 C 11,4 C 17,7 km/h (3 Bft)
06.10.2022 13:30 14,2 C 21,7 C 63 % 1032,4 hPa 0,0 l/m 6,4 km/h (2 Bft) W-SW 247 1 min 3,0 UV-I 578 W/m 7,3 C 14,2 C 11,3 km/h (2 Bft)
06.10.2022 13:31 14,3 C 22,2 C 63 % 1032,3 hPa 0,0 l/m 9,7 km/h (2 Bft) SW 225 1 min 3,0 UV-I 580 W/m 7,4 C 12,5 C 12,9 km/h (3 Bft)
06.10.2022 13:32 14,3 C 22,8 C 62 % 1032,4 hPa 0,0 l/m 14,5 km/h (3 Bft) W-SW 247 1 min 3,0 UV-I 579 W/m 7,1 C 10,5 C 17,7 km/h (3 Bft)
06.10.2022 13:33 14,2 C 22,2 C 61 % 1032,3 hPa 0,0 l/m 9,7 km/h (2 Bft) S-SW 202 1 min 3,0 UV-I 575 W/m 6,8 C 12,4 C 14,5 km/h (3 Bft)
06.10.2022 13:34 14,2 C 21,7 C 62 % 1032,3 hPa 0,0 l/m 17,7 km/h (3 Bft) S-SW 202 1 min 3,0 UV-I 577 W/m 7,0 C 9,4 C 22,5 km/h (4 Bft)
06.10.2022 13:35 14,0 C 21,7 C 60 % 1032,3 hPa 0,0 l/m 12,9 km/h (3 Bft) S-SW 202 1 min 3,0 UV-I 577 W/m 6,4 C 10,8 C 14,5 km/h (3 Bft)
06.10.2022 13:36 13,9 C 21,7 C 61 % 1032,3 hPa 0,0 l/m 9,7 km/h (2 Bft) S-SW 202 1 min 3,0 UV-I 575 W/m 6,5 C 12,0 C 12,9 km/h (3 Bft)
06.10.2022 13:37 13,9 C 21,7 C 62 % 1032,2 hPa 0,0 l/m 11,3 km/h (2 Bft) S-SW 202 1 min 3,0 UV-I 577 W/m 6,7 C 11,3 C 14,5 km/h (3 Bft)
06.10.2022 13:38 13,9 C 21,7 C 63 % 1032,4 hPa 0,0 l/m 9,7 km/h (2 Bft) SW 225 1 min 3,0 UV-I 579 W/m 7,0 C 12,0 C 12,9 km/h (3 Bft)
06.10.2022 13:39 13,9 C 21,7 C 62 % 1032,3 hPa 0,0 l/m 9,7 km/h (2 Bft) W-SW 247 1 min 3,0 UV-I 578 W/m 6,7 C 12,0 C 16,1 km/h (3 Bft)
06.10.2022 13:40 14,0 C 21,7 C 62 % 1032,3 hPa 0,0 l/m 12,9 km/h (3 Bft) SW 225 1 min 3,0 UV-I 578 W/m 6,8 C 10,8 C 19,3 km/h (3 Bft)
06.10.2022 13:41 14,1 C 22,2 C 61 % 1032,3 hPa 0,0 l/m 14,5 km/h (3 Bft) W-SW 247 1 min 3,0 UV-I 580 W/m 6,7 C 10,3 C 19,3 km/h (3 Bft)
06.10.2022 13:42 14,2 C 22,2 C 63 % 1032,4 hPa 0,0 l/m 9,7 km/h (2 Bft) W-SW 247 1 min 3,0 UV-I 578 W/m 7,3 C 12,4 C 14,5 km/h (3 Bft)
06.10.2022 13:43 14,3 C 22,8 C 63 % 1032,4 hPa 0,0 l/m 9,7 km/h (2 Bft) W-SW 247 1 min 3,0 UV-I 578 W/m 7,4 C 12,5 C 14,5 km/h (3 Bft)
06.10.2022 13:44 14,4 C 23,3 C 63 % 1032,3 hPa 0,0 l/m 14,5 km/h (3 Bft) W 270 1 min 3,0 UV-I 579 W/m 7,4 C 10,6 C 19,3 km/h (3 Bft)
06.10.2022 13:45 14,4 C 22,8 C 62 % 1032,3 hPa 0,0 l/m 11,3 km/h (2 Bft) W 270 1 min 3,0 UV-I 577 W/m 7,2 C 11,9 C 14,5 km/h (3 Bft)
06.10.2022 13:46 14,3 C 22,2 C 62 % 1032,2 hPa 0,0 l/m 9,7 km/h (2 Bft) SW 225 1 min 3,0 UV-I 577 W/m 7,1 C 12,5 C 14,5 km/h (3 Bft)
06.10.2022 13:47 14,2 C 22,2 C 61 % 1032,3 hPa 0,0 l/m 9,7 km/h (2 Bft) S-SW 202 1 min 3,0 UV-I 573 W/m 6,8 C 12,4 C 16,1 km/h (3 Bft)
06.10.2022 13:48 14,2 C 21,7 C 63 % 1032,3 hPa 0,0 l/m 6,4 km/h (2 Bft) SW 225 1 min 3,0 UV-I 577 W/m 7,3 C 14,2 C 11,3 km/h (2 Bft)
06.10.2022 13:49 14,2 C 22,2 C 64 % 1032,3 hPa 0,0 l/m 8,0 km/h (2 Bft) W 270 1 min 3,0 UV-I 575 W/m 7,5 C 13,3 C 11,3 km/h (2 Bft)
06.10.2022 13:50 14,3 C 22,8 C 64 % 1032,2 hPa 0,0 l/m 12,9 km/h (3 Bft) S-SW 202 1 min 3,0 UV-I 578 W/m 7,6 C 11,1 C 14,5 km/h (3 Bft)
06.10.2022 13:51 14,2 C 22,2 C 62 % 1032,4 hPa 0,0 l/m 14,5 km/h (3 Bft) S-SW 202 1 min 3,0 UV-I 580 W/m 7,0 C 10,4 C 17,7 km/h (3 Bft)
06.10.2022 13:52 14,1 C 21,7 C 62 % 1032,3 hPa 0,0 l/m 11,3 km/h (2 Bft) SW 225 1 min 3,0 UV-I 571 W/m 6,9 C 11,5 C 14,5 km/h (3 Bft)
06.10.2022 13:53 14,1 C 22,2 C 64 % 1032,3 hPa 0,0 l/m 9,7 km/h (2 Bft) SW 225 1 min 3,0 UV-I 575 W/m 7,4 C 12,3 C 12,9 km/h (3 Bft)
06.10.2022 13:54 14,1 C 22,2 C 64 % 1032,2 hPa 0,0 l/m 9,7 km/h (2 Bft) S-SW 202 1 min 3,0 UV-I 577 W/m 7,4 C 12,3 C 12,9 km/h (3 Bft)
06.10.2022 13:55 14,0 C 22,2 C 64 % 1032,3 hPa 0,0 l/m 9,7 km/h (2 Bft) S 180 1 min 3,0 UV-I 573 W/m 7,3 C 12,2 C 16,1 km/h (3 Bft)
06.10.2022 13:56 14,1 C 22,8 C 63 % 1032,3 hPa 0,0 l/m 11,3 km/h (2 Bft) W-SW 247 1 min 3,0 UV-I 573 W/m 7,2 C 11,5 C 17,7 km/h (3 Bft)
06.10.2022 13:57 14,1 C 22,8 C 63 % 1032,2 hPa 0,0 l/m 11,3 km/h (2 Bft) W-SW 247 1 min 3,0 UV-I 571 W/m 7,2 C 11,5 C 16,1 km/h (3 Bft)
06.10.2022 13:58 14,2 C 22,8 C 62 % 1032,2 hPa 0,0 l/m 12,9 km/h (3 Bft) W-SW 247 1 min 3,0 UV-I 573 W/m 7,0 C 11,0 C 19,3 km/h (3 Bft)
06.10.2022 13:59 14,3 C 22,8 C 62 % 1032,2 hPa 0,0 l/m 12,9 km/h (3 Bft) W-SW 247 1 min 3,0 UV-I 571 W/m 7,1 C 11,1 C 17,7 km/h (3 Bft)
06.10.2022 14:00 14,2 C 22,8 C 60 % 1032,1 hPa 0,0 l/m 8,0 km/h (2 Bft) W-SW 247 1 min 3,0 UV-I 573 W/m 6,5 C 13,3 C 14,5 km/h (3 Bft)
06.10.2022 14:01 14,3 C 22,8 C 60 % 1032,2 hPa 0,0 l/m 8,0 km/h (2 Bft) W-SW 247 1 min 3,0 UV-I 571 W/m 6,6 C 13,4 C 14,5 km/h (3 Bft)
06.10.2022 14:02 14,4 C 22,8 C 62 % 1032,2 hPa 0,0 l/m 6,4 km/h (2 Bft) W-SW 247 1 min 3,0 UV-I 573 W/m 7,2 C 14,4 C 14,5 km/h (3 Bft)
06.10.2022 14:03 14,4 C 23,3 C 60 % 1032,2 hPa 0,0 l/m 6,4 km/h (2 Bft) W-SW 247 1 min 3,0 UV-I 573 W/m 6,7 C 14,4 C 11,3 km/h (2 Bft)
06.10.2022 14:04 14,4 C 23,3 C 61 % 1032,2 hPa 0,0 l/m 11,3 km/h (2 Bft) S-SW 202 1 min 3,0 UV-I 573 W/m 7,0 C 11,9 C 14,5 km/h (3 Bft)
06.10.2022 14:05 14,4 C 23,9 C 61 % 1032,2 hPa 0,0 l/m 11,3 km/h (2 Bft) S-SW 202 1 min 3,0 UV-I 570 W/m 7,0 C 11,9 C 12,9 km/h (3 Bft)
06.10.2022 14:06 14,3 C 23,3 C 61 % 1032,3 hPa 0,0 l/m 11,3 km/h (2 Bft) S 180 1 min 3,0 UV-I 570 W/m 6,9 C 11,8 C 20,9 km/h (4 Bft)
06.10.2022 14:07 14,3 C 22,8 C 62 % 1032,2 hPa 0,0 l/m 12,9 km/h (3 Bft) S-SO 157 1 min 3,0 UV-I 566 W/m 7,1 C 11,1 C 16,1 km/h (3 Bft)
06.10.2022 14:08 14,3 C 21,7 C 62 % 1032,3 hPa 0,0 l/m 9,7 km/h (2 Bft) S 180 1 min 3,0 UV-I 568 W/m 7,1 C 12,5 C 16,1 km/h (3 Bft)
06.10.2022 14:09 14,2 C 21,7 C 62 % 1032,2 hPa 0,0 l/m 9,7 km/h (2 Bft) S-SW 202 1 min 3,0 UV-I 571 W/m 7,0 C 12,4 C 12,9 km/h (3 Bft)
06.10.2022 14:10 14,3 C 22,2 C 63 % 1032,2 hPa 0,0 l/m 9,7 km/h (2 Bft) S-SW 202 1 min 3,0 UV-I 568 W/m 7,4 C 12,5 C 14,5 km/h (3 Bft)
06.10.2022 14:11 14,3 C 22,2 C 63 % 1032,2 hPa 0,0 l/m 11,3 km/h (2 Bft) S-SW 202 1 min 3,0 UV-I 566 W/m 7,4 C 11,8 C 14,5 km/h (3 Bft)
06.10.2022 14:12 14,2 C 21,7 C 63 % 1032,3 hPa 0,0 l/m 8,0 km/h (2 Bft) W-SW 247 1 min 3,0 UV-I 566 W/m 7,3 C 13,3 C 14,5 km/h (3 Bft)
06.10.2022 14:13 14,3 C 22,2 C 62 % 1032,1 hPa 0,0 l/m 12,9 km/h (3 Bft) W-SW 247 1 min 3,0 UV-I 564 W/m 7,1 C 11,1 C 17,7 km/h (3 Bft)
06.10.2022 14:14 14,2 C 22,2 C 61 % 1032,2 hPa 0,0 l/m 8,0 km/h (2 Bft) W-SW 247 1 min 3,0 UV-I 566 W/m 6,8 C 13,3 C 12,9 km/h (3 Bft)
06.10.2022 14:15 14,2 C 22,2 C 61 % 1032,2 hPa 0,0 l/m 12,9 km/h (3 Bft) W-SW 247 1 min 2,9 UV-I 564 W/m 6,8 C 11,0 C 17,7 km/h (3 Bft)
06.10.2022 14:16 14,3 C 22,8 C 62 % 1032,2 hPa 0,0 l/m 11,3 km/h (2 Bft) W-SW 247 1 min 2,9 UV-I 566 W/m 7,1 C 11,8 C 16,1 km/h (3 Bft)
06.10.2022 14:17 14,4 C 23,3 C 62 % 1032,1 hPa 0,0 l/m 9,7 km/h (2 Bft) W-SW 247 1 min 2,9 UV-I 564 W/m 7,2 C 12,6 C 14,5 km/h (3 Bft)
06.10.2022 14:18 14,4 C 23,3 C 60 % 1032,1 hPa 0,0 l/m 9,7 km/h (2 Bft) W-SW 247 1 min 2,9 UV-I 568 W/m 6,7 C 12,6 C 14,5 km/h (3 Bft)
06.10.2022 14:19 14,4 C 23,3 C 61 % 1032,1 hPa 0,0 l/m 9,7 km/h (2 Bft) W 270 1 min 2,9 UV-I 565 W/m 7,0 C 12,6 C 16,1 km/h (3 Bft)
06.10.2022 14:20 14,5 C 23,3 C 61 % 1032,1 hPa 0,0 l/m 6,4 km/h (2 Bft) W 270 1 min 2,9 UV-I 563 W/m 7,1 C 14,5 C 12,9 km/h (3 Bft)
06.10.2022 14:21 14,6 C 23,9 C 62 % 1032,2 hPa 0,0 l/m 11,3 km/h (2 Bft) W-SW 247 1 min 2,9 UV-I 559 W/m 7,4 C 12,1 C 16,1 km/h (3 Bft)
06.10.2022 14:22 14,6 C 23,3 C 59 % 1032,2 hPa 0,0 l/m 12,9 km/h (3 Bft) W-SW 247 1 min 2,9 UV-I 555 W/m 6,7 C 11,5 C 14,5 km/h (3 Bft)
06.10.2022 14:23 14,6 C 22,8 C 61 % 1032,1 hPa 0,0 l/m 11,3 km/h (2 Bft) W 270 1 min 2,9 UV-I 555 W/m 7,2 C 12,1 C 17,7 km/h (3 Bft)
06.10.2022 14:24 14,6 C 22,2 C 61 % 1032,0 hPa 0,0 l/m 9,7 km/h (2 Bft) W 270 1 min 2,9 UV-I 554 W/m 7,2 C 12,8 C 12,9 km/h (3 Bft)
06.10.2022 14:25 14,6 C 22,8 C 62 % 1032,2 hPa 0,0 l/m 8,0 km/h (2 Bft) W 270 1 min 2,9 UV-I 556 W/m 7,4 C 13,7 C 14,5 km/h (3 Bft)
06.10.2022 14:26 14,6 C 22,8 C 61 % 1032,2 hPa 0,0 l/m 11,3 km/h (2 Bft) W-SW 247 1 min 2,9 UV-I 555 W/m 7,2 C 12,1 C 17,7 km/h (3 Bft)
06.10.2022 14:27 14,6 C 22,8 C 61 % 1032,2 hPa 0,0 l/m 9,7 km/h (2 Bft) W 270 1 min 2,9 UV-I 552 W/m 7,2 C 12,8 C 14,5 km/h (3 Bft)
06.10.2022 14:28 14,6 C 23,3 C 62 % 1032,0 hPa 0,0 l/m 8,0 km/h (2 Bft) W 270 1 min 2,9 UV-I 555 W/m 7,4 C 13,7 C 12,9 km/h (3 Bft)
06.10.2022 14:29 14,7 C 23,9 C 62 % 1032,1 hPa 0,0 l/m 6,4 km/h (2 Bft) S-SW 202 1 min 2,9 UV-I 552 W/m 7,5 C 14,7 C 8,0 km/h (2 Bft)
06.10.2022 14:30 14,8 C 23,9 C 62 % 1032,1 hPa 0,0 l/m 6,4 km/h (2 Bft) S-SW 202 1 min 2,9 UV-I 552 W/m 7,6 C 14,8 C 11,3 km/h (2 Bft)
06.10.2022 14:31 14,8 C 24,4 C 63 % 1032,0 hPa 0,0 l/m 11,3 km/h (2 Bft) W-SW 247 1 min 2,9 UV-I 551 W/m 7,8 C 12,3 C 14,5 km/h (3 Bft)
06.10.2022 14:32 14,9 C 24,4 C 62 % 1032,0 hPa 0,0 l/m 9,7 km/h (2 Bft) S-SW 202 1 min 2,9 UV-I 548 W/m 7,7 C 13,1 C 12,9 km/h (3 Bft)
06.10.2022 14:33 15,0 C 24,4 C 62 % 1032,1 hPa 0,0 l/m 9,7 km/h (2 Bft) SW 225 1 min 2,9 UV-I 548 W/m 7,8 C 13,3 C 14,5 km/h (3 Bft)
06.10.2022 14:34 14,8 C 23,9 C 59 % 1032,0 hPa 0,0 l/m 8,0 km/h (2 Bft) SW 225 1 min 2,9 UV-I 547 W/m 6,9 C 13,9 C 12,9 km/h (3 Bft)
06.10.2022 14:35 14,7 C 22,8 C 59 % 1032,0 hPa 0,0 l/m 9,7 km/h (2 Bft) SW 225 1 min 2,9 UV-I 548 W/m 6,8 C 12,9 C 16,1 km/h (3 Bft)
06.10.2022 14:36 14,6 C 22,2 C 60 % 1032,0 hPa 0,0 l/m 9,7 km/h (2 Bft) W 270 1 min 2,9 UV-I 548 W/m 6,9 C 12,8 C 22,5 km/h (4 Bft)
06.10.2022 14:37 14,6 C 22,8 C 61 % 1032,1 hPa 0,0 l/m 9,7 km/h (2 Bft) W 270 1 min 2,9 UV-I 547 W/m 7,2 C 12,8 C 12,9 km/h (3 Bft)
06.10.2022 14:38 14,7 C 23,3 C 62 % 1032,1 hPa 0,0 l/m 8,0 km/h (2 Bft) W-NW 292 1 min 2,9 UV-I 547 W/m 7,5 C 13,8 C 14,5 km/h (3 Bft)
06.10.2022 14:39 14,8 C 23,3 C 63 % 1032,0 hPa 0,0 l/m 9,7 km/h (2 Bft) W-SW 247 1 min 2,8 UV-I 545 W/m 7,8 C 13,0 C 12,9 km/h (3 Bft)
06.10.2022 14:40 14,8 C 23,3 C 61 % 1032,0 hPa 0,0 l/m 11,3 km/h (2 Bft) W-SW 247 1 min 2,8 UV-I 543 W/m 7,4 C 12,3 C 16,1 km/h (3 Bft)
06.10.2022 14:41 14,8 C 23,9 C 59 % 1032,0 hPa 0,0 l/m 9,7 km/h (2 Bft) W-SW 247 1 min 2,8 UV-I 543 W/m 6,9 C 13,0 C 12,9 km/h (3 Bft)
06.10.2022 14:42 14,8 C 23,3 C 61 % 1032,0 hPa 0,0 l/m 8,0 km/h (2 Bft) W-SW 247 1 min 2,8 UV-I 543 W/m 7,4 C 13,9 C 12,9 km/h (3 Bft)
06.10.2022 14:43 14,8 C 23,9 C 59 % 1032,0 hPa 0,0 l/m 9,7 km/h (2 Bft) W 270 1 min 2,8 UV-I 541 W/m 6,9 C 13,0 C 14,5 km/h (3 Bft)
06.10.2022 14:44 14,8 C 23,9 C 61 % 1032,0 hPa 0,0 l/m 8,0 km/h (2 Bft) W-SW 247 1 min 2,8 UV-I 541 W/m 7,4 C 13,9 C 12,9 km/h (3 Bft)
06.10.2022 14:45 14,8 C 23,3 C 60 % 1032,0 hPa 0,0 l/m 8,0 km/h (2 Bft) SW 225 1 min 2,8 UV-I 540 W/m 7,1 C 13,9 C 12,9 km/h (3 Bft)
06.10.2022 14:46 14,8 C 23,9 C 60 % 1031,9 hPa 0,0 l/m 8,0 km/h (2 Bft) SW 225 1 min 2,8 UV-I 540 W/m 7,1 C 13,9 C 11,3 km/h (2 Bft)
06.10.2022 14:47 14,8 C 23,9 C 60 % 1032,0 hPa 0,0 l/m 12,9 km/h (3 Bft) S-SW 202 1 min 2,8 UV-I 540 W/m 7,1 C 11,7 C 16,1 km/h (3 Bft)
06.10.2022 14:48 14,7 C 23,3 C 60 % 1031,9 hPa 0,0 l/m 8,0 km/h (2 Bft) W-SW 247 1 min 2,8 UV-I 537 W/m 7,0 C 13,8 C 14,5 km/h (3 Bft)
06.10.2022 14:49 14,8 C 23,3 C 62 % 1031,9 hPa 0,0 l/m 11,3 km/h (2 Bft) W 270 1 min 2,8 UV-I 534 W/m 7,6 C 12,3 C 16,1 km/h (3 Bft)
06.10.2022 14:50 14,8 C 23,3 C 60 % 1032,0 hPa 0,0 l/m 11,3 km/h (2 Bft) W 270 1 min 2,7 UV-I 531 W/m 7,1 C 12,3 C 14,5 km/h (3 Bft)
06.10.2022 14:51 14,7 C 23,3 C 59 % 1032,0 hPa 0,0 l/m 9,7 km/h (2 Bft) W-SW 247 1 min 2,7 UV-I 533 W/m 6,8 C 12,9 C 12,9 km/h (3 Bft)
06.10.2022 14:52 14,7 C 23,9 C 60 % 1031,9 hPa 0,0 l/m 4,8 km/h (1 Bft) W 270 1 min 2,7 UV-I 533 W/m 7,0 C 14,7 C 11,3 km/h (2 Bft)
06.10.2022 14:53 14,7 C 23,9 C 62 % 1032,0 hPa 0,0 l/m 6,4 km/h (2 Bft) W-NW 292 1 min 2,7 UV-I 531 W/m 7,5 C 14,7 C 12,9 km/h (3 Bft)
06.10.2022 14:54 14,7 C 24,4 C 59 % 1032,0 hPa 0,0 l/m 3,2 km/h (1 Bft) W 270 1 min 2,7 UV-I 529 W/m 6,8 C 14,7 C 6,4 km/h (2 Bft)
06.10.2022 14:55 14,8 C 24,4 C 60 % 1032,0 hPa 0,0 l/m 3,2 km/h (1 Bft) S-SW 202 1 min 2,7 UV-I 529 W/m 7,1 C 14,8 C 6,4 km/h (2 Bft)
06.10.2022 14:56 14,8 C 24,4 C 59 % 1032,0 hPa 0,0 l/m 9,7 km/h (2 Bft) SW 225 1 min 2,7 UV-I 529 W/m 6,9 C 13,0 C 14,5 km/h (3 Bft)
06.10.2022 14:57 14,8 C 24,4 C 61 % 1031,9 hPa 0,0 l/m 9,7 km/h (2 Bft) W 270 1 min 2,7 UV-I 529 W/m 7,4 C 13,0 C 12,9 km/h (3 Bft)
06.10.2022 14:58 14,9 C 25,0 C 61 % 1031,9 hPa 0,0 l/m 4,8 km/h (1 Bft) W 270 1 min 2,7 UV-I 527 W/m 7,4 C 14,9 C 8,0 km/h (2 Bft)
06.10.2022 14:59 14,9 C 24,4 C 61 % 1032,0 hPa 0,0 l/m 9,7 km/h (2 Bft) W 270 1 min 2,7 UV-I 527 W/m 7,4 C 13,1 C 12,9 km/h (3 Bft)
06.10.2022 15:00 14,9 C 24,4 C 60 % 1032,0 hPa 0,0 l/m 8,0 km/h (2 Bft) SW 225 1 min 2,7 UV-I 523 W/m 7,2 C 14,0 C 11,3 km/h (2 Bft)
06.10.2022 15:01 14,9 C 24,4 C 62 % 1031,9 hPa 0,0 l/m 9,7 km/h (2 Bft) SW 225 1 min 2,7 UV-I 520 W/m 7,7 C 13,1 C 16,1 km/h (3 Bft)
06.10.2022 15:02 14,8 C 23,3 C 60 % 1032,0 hPa 0,0 l/m 8,0 km/h (2 Bft) W-SW 247 1 min 2,6 UV-I 519 W/m 7,1 C 13,9 C 11,3 km/h (2 Bft)
06.10.2022 15:03 14,8 C 23,3 C 60 % 1032,0 hPa 0,0 l/m 8,0 km/h (2 Bft) W-SW 247 1 min 2,6 UV-I 519 W/m 7,1 C 13,9 C 12,9 km/h (3 Bft)
06.10.2022 15:04 14,7 C 23,3 C 59 % 1032,0 hPa 0,0 l/m 8,0 km/h (2 Bft) S-SW 202 1 min 2,6 UV-I 519 W/m 6,8 C 13,8 C 11,3 km/h (2 Bft)
06.10.2022 15:05 14,7 C 23,3 C 59 % 1032,0 hPa 0,0 l/m 9,7 km/h (2 Bft) S-SW 202 1 min 2,6 UV-I 517 W/m 6,8 C 12,9 C 14,5 km/h (3 Bft)
06.10.2022 15:06 14,6 C 22,8 C 59 % 1032,0 hPa 0,0 l/m 8,0 km/h (2 Bft) S-SW 202 1 min 2,6 UV-I 514 W/m 6,7 C 13,7 C 9,7 km/h (2 Bft)
06.10.2022 15:07 14,4 C 22,8 C 61 % 1031,9 hPa 0,0 l/m 4,8 km/h (1 Bft) S-SW 202 1 min 2,6 UV-I 512 W/m 7,0 C 14,4 C 6,4 km/h (2 Bft)
06.10.2022 15:08 14,3 C 23,3 C 62 % 1031,9 hPa 0,0 l/m 6,4 km/h (2 Bft) S 180 1 min 2,6 UV-I 512 W/m 7,1 C 14,3 C 8,0 km/h (2 Bft)
06.10.2022 15:09 14,4 C 23,3 C 61 % 1031,9 hPa 0,0 l/m 4,8 km/h (1 Bft) S 180 1 min 2,5 UV-I 510 W/m 7,0 C 14,4 C 8,0 km/h (2 Bft)
06.10.2022 15:10 14,4 C 23,9 C 61 % 1031,9 hPa 0,0 l/m 6,4 km/h (2 Bft) W-SW 247 1 min 2,5 UV-I 510 W/m 7,0 C 14,4 C 11,3 km/h (2 Bft)
06.10.2022 15:11 14,5 C 23,9 C 60 % 1031,9 hPa 0,0 l/m 9,7 km/h (2 Bft) W-SW 247 1 min 2,5 UV-I 508 W/m 6,8 C 12,7 C 12,9 km/h (3 Bft)
06.10.2022 15:12 14,5 C 25,0 C 61 % 1031,8 hPa 0,0 l/m 6,4 km/h (2 Bft) W 270 1 min 2,5 UV-I 506 W/m 7,1 C 14,5 C 9,7 km/h (2 Bft)
06.10.2022 15:13 14,7 C 26,1 C 61 % 1031,9 hPa 0,0 l/m 8,0 km/h (2 Bft) W 270 1 min 2,5 UV-I 504 W/m 7,3 C 13,8 C 14,5 km/h (3 Bft)
06.10.2022 15:14 14,8 C 26,1 C 61 % 1031,9 hPa 0,0 l/m 9,7 km/h (2 Bft) SW 225 1 min 2,5 UV-I 501 W/m 7,4 C 13,0 C 14,5 km/h (3 Bft)
06.10.2022 15:15 14,9 C 25,6 C 62 % 1031,9 hPa 0,0 l/m 6,4 km/h (2 Bft) S 180 1 min 2,5 UV-I 499 W/m 7,7 C 14,9 C 8,0 km/h (2 Bft)
06.10.2022 15:16 15,0 C 25,6 C 62 % 1031,9 hPa 0,0 l/m 4,8 km/h (1 Bft) SW 225 1 min 2,5 UV-I 499 W/m 7,8 C 15,0 C 6,4 km/h (2 Bft)
06.10.2022 15:17 15,1 C 25,6 C 62 % 1031,8 hPa 0,0 l/m 6,4 km/h (2 Bft) S-SW 202 1 min 2,5 UV-I 500 W/m 7,9 C 15,1 C 8,0 km/h (2 Bft)
06.10.2022 15:18 15,1 C 24,4 C 61 % 1031,9 hPa 0,0 l/m 6,4 km/h (2 Bft) W-SW 247 1 min 2,5 UV-I 496 W/m 7,6 C 15,1 C 9,7 km/h (2 Bft)
06.10.2022 15:19 14,9 C 23,9 C 59 % 1031,9 hPa 0,0 l/m 8,0 km/h (2 Bft) S-SW 202 1 min 2,4 UV-I 496 W/m 7,0 C 14,0 C 12,9 km/h (3 Bft)
06.10.2022 15:20 14,8 C 23,3 C 59 % 1031,8 hPa 0,0 l/m 9,7 km/h (2 Bft) S 180 1 min 2,4 UV-I 496 W/m 6,9 C 13,0 C 14,5 km/h (3 Bft)
06.10.2022 15:21 14,7 C 23,3 C 60 % 1031,9 hPa 0,0 l/m 16,1 km/h (3 Bft) S 180 1 min 2,4 UV-I 496 W/m 7,0 C 10,5 C 24,1 km/h (4 Bft)
06.10.2022 15:22 14,6 C 22,2 C 61 % 1032,0 hPa 0,0 l/m 9,7 km/h (2 Bft) SW 225 1 min 2,4 UV-I 492 W/m 7,2 C 12,8 C 14,5 km/h (3 Bft)
06.10.2022 15:23 14,7 C 22,2 C 62 % 1031,9 hPa 0,0 l/m 8,0 km/h (2 Bft) W-SW 247 1 min 2,4 UV-I 491 W/m 7,5 C 13,8 C 11,3 km/h (2 Bft)
06.10.2022 15:24 14,7 C 22,8 C 62 % 1031,9 hPa 0,0 l/m 4,8 km/h (1 Bft) S-SW 202 1 min 2,4 UV-I 487 W/m 7,5 C 14,7 C 8,0 km/h (2 Bft)
06.10.2022 15:25 14,7 C 23,3 C 61 % 1031,9 hPa 0,0 l/m 4,8 km/h (1 Bft) S-SW 202 1 min 2,4 UV-I 485 W/m 7,3 C 14,7 C 8,0 km/h (2 Bft)
06.10.2022 15:26 14,7 C 23,3 C 62 % 1031,9 hPa 0,0 l/m 6,4 km/h (2 Bft) S 180 1 min 2,3 UV-I 483 W/m 7,5 C 14,7 C 11,3 km/h (2 Bft)
06.10.2022 15:27 14,8 C 23,3 C 60 % 1031,9 hPa 0,0 l/m 11,3 km/h (2 Bft) S-SO 157 1 min 2,3 UV-I 485 W/m 7,1 C 12,3 C 14,5 km/h (3 Bft)
06.10.2022 15:28 14,8 C 22,8 C 62 % 1031,8 hPa 0,0 l/m 6,4 km/h (2 Bft) S-SO 157 1 min 2,3 UV-I 487 W/m 7,6 C 14,8 C 11,3 km/h (2 Bft)
06.10.2022 15:29 14,8 C 23,9 C 61 % 1031,8 hPa 0,0 l/m 6,4 km/h (2 Bft) S-SO 157 1 min 2,3 UV-I 485 W/m 7,4 C 14,8 C 9,7 km/h (2 Bft)
06.10.2022 15:30 14,8 C 23,9 C 60 % 1031,8 hPa 0,0 l/m 4,8 km/h (1 Bft) S 180 1 min 2,3 UV-I 483 W/m 7,1 C 14,8 C 8,0 km/h (2 Bft)
06.10.2022 15:31 14,8 C 23,9 C 59 % 1031,8 hPa 0,0 l/m 14,5 km/h (3 Bft) S 180 1 min 2,3 UV-I 480 W/m 6,9 C 11,1 C 19,3 km/h (3 Bft)
06.10.2022 15:32 14,8 C 23,3 C 57 % 1031,8 hPa 0,0 l/m 12,9 km/h (3 Bft) S-SW 202 1 min 2,3 UV-I 480 W/m 6,4 C 11,7 C 14,5 km/h (3 Bft)
06.10.2022 15:33 14,7 C 23,3 C 59 % 1031,8 hPa 0,0 l/m 12,9 km/h (3 Bft) S 180 1 min 2,3 UV-I 478 W/m 6,8 C 11,6 C 16,1 km/h (3 Bft)
06.10.2022 15:34 14,6 C 22,8 C 58 % 1031,8 hPa 0,0 l/m 11,3 km/h (2 Bft) S 180 1 min 2,3 UV-I 476 W/m 6,4 C 12,1 C 17,7 km/h (3 Bft)
06.10.2022 15:35 14,6 C 22,8 C 58 % 1031,8 hPa 0,0 l/m 11,3 km/h (2 Bft) SW 225 1 min 2,2 UV-I 474 W/m 6,4 C 12,1 C 14,5 km/h (3 Bft)
06.10.2022 15:36 14,6 C 22,8 C 59 % 1031,8 hPa 0,0 l/m 8,0 km/h (2 Bft) SW 225 1 min 2,2 UV-I 471 W/m 6,7 C 13,7 C 11,3 km/h (2 Bft)
06.10.2022 15:37 14,6 C 22,8 C 59 % 1031,8 hPa 0,0 l/m 8,0 km/h (2 Bft) SW 225 1 min 2,2 UV-I 471 W/m 6,7 C 13,7 C 12,9 km/h (3 Bft)
06.10.2022 15:38 14,6 C 22,8 C 58 % 1031,7 hPa 0,0 l/m 9,7 km/h (2 Bft) S-SW 202 1 min 2,2 UV-I 469 W/m 6,4 C 12,8 C 11,3 km/h (2 Bft)
06.10.2022 15:39 14,6 C 22,8 C 58 % 1031,7 hPa 0,0 l/m 8,0 km/h (2 Bft) SW 225 1 min 2,2 UV-I 468 W/m 6,4 C 13,7 C 11,3 km/h (2 Bft)
06.10.2022 15:40 14,5 C 22,8 C 57 % 1031,8 hPa 0,0 l/m 9,7 km/h (2 Bft) S-SW 202 1 min 2,2 UV-I 466 W/m 6,1 C 12,7 C 12,9 km/h (3 Bft)
06.10.2022 15:41 14,4 C 22,8 C 57 % 1031,7 hPa 0,0 l/m 6,4 km/h (2 Bft) W-SW 247 1 min 2,2 UV-I 463 W/m 6,0 C 14,4 C 8,0 km/h (2 Bft)
06.10.2022 15:42 14,5 C 22,8 C 57 % 1031,7 hPa 0,0 l/m 9,7 km/h (2 Bft) SW 225 1 min 2,2 UV-I 461 W/m 6,1 C 12,7 C 12,9 km/h (3 Bft)
06.10.2022 15:43 14,5 C 22,2 C 57 % 1031,7 hPa 0,0 l/m 11,3 km/h (2 Bft) S-SW 202 1 min 2,1 UV-I 459 W/m 6,1 C 12,0 C 16,1 km/h (3 Bft)
06.10.2022 15:44 14,5 C 22,2 C 58 % 1031,8 hPa 0,0 l/m 11,3 km/h (2 Bft) S-SW 202 1 min 2,1 UV-I 457 W/m 6,3 C 12,0 C 14,5 km/h (3 Bft)
06.10.2022 15:45 14,5 C 21,7 C 58 % 1031,7 hPa 0,0 l/m 11,3 km/h (2 Bft) S 180 1 min 2,1 UV-I 455 W/m 6,3 C 12,0 C 16,1 km/h (3 Bft)
06.10.2022 15:46 14,5 C 21,7 C 58 % 1031,7 hPa 0,0 l/m 6,4 km/h (2 Bft) S-SW 202 1 min 2,1 UV-I 454 W/m 6,3 C 14,5 C 8,0 km/h (2 Bft)
06.10.2022 15:47 14,6 C 22,2 C 59 % 1031,8 hPa 0,0 l/m 3,2 km/h (1 Bft) SO 135 1 min 2,1 UV-I 451 W/m 6,7 C 14,6 C 6,4 km/h (2 Bft)
06.10.2022 15:48 14,7 C 23,3 C 59 % 1031,7 hPa 0,0 l/m 6,4 km/h (2 Bft) S 180 1 min 2,1 UV-I 448 W/m 6,8 C 14,7 C 9,7 km/h (2 Bft)
06.10.2022 15:49 14,8 C 23,3 C 59 % 1031,6 hPa 0,0 l/m 6,4 km/h (2 Bft) S 180 1 min 2,1 UV-I 446 W/m 6,9 C 14,8 C 12,9 km/h (3 Bft)
06.10.2022 15:50 14,8 C 23,3 C 59 % 1031,7 hPa 0,0 l/m 9,7 km/h (2 Bft) S-SO 157 1 min 2,0 UV-I 445 W/m 6,9 C 13,0 C 14,5 km/h (3 Bft)
06.10.2022 15:51 14,7 C 22,8 C 58 % 1031,7 hPa 0,0 l/m 9,7 km/h (2 Bft) S-SO 157 1 min 2,0 UV-I 443 W/m 6,5 C 12,9 C 12,9 km/h (3 Bft)
06.10.2022 15:52 14,6 C 22,2 C 58 % 1031,7 hPa 0,0 l/m 4,8 km/h (1 Bft) S-SO 157 1 min 2,0 UV-I 443 W/m 6,4 C 14,6 C 8,0 km/h (2 Bft)
06.10.2022 15:53 14,7 C 23,3 C 62 % 1031,7 hPa 0,0 l/m 4,8 km/h (1 Bft) S-SO 157 1 min 2,0 UV-I 440 W/m 7,5 C 14,7 C 8,0 km/h (2 Bft)
06.10.2022 15:54 14,8 C 23,3 C 60 % 1031,7 hPa 0,0 l/m 6,4 km/h (2 Bft) SW 225 1 min 2,0 UV-I 438 W/m 7,1 C 14,8 C 9,7 km/h (2 Bft)
06.10.2022 15:55 14,8 C 23,3 C 59 % 1031,8 hPa 0,0 l/m 9,7 km/h (2 Bft) S 180 1 min 2,0 UV-I 436 W/m 6,9 C 13,0 C 12,9 km/h (3 Bft)
06.10.2022 15:56 14,7 C 23,3 C 59 % 1031,8 hPa 0,0 l/m 9,7 km/h (2 Bft) S-SW 202 1 min 2,0 UV-I 436 W/m 6,8 C 12,9 C 14,5 km/h (3 Bft)
06.10.2022 15:57 14,6 C 22,2 C 59 % 1031,8 hPa 0,0 l/m 9,7 km/h (2 Bft) S-SW 202 1 min 2,0 UV-I 434 W/m 6,7 C 12,8 C 12,9 km/h (3 Bft)
06.10.2022 15:58 14,4 C 22,8 C 59 % 1031,7 hPa 0,0 l/m 8,0 km/h (2 Bft) S 180 1 min 1,9 UV-I 432 W/m 6,5 C 13,5 C 9,7 km/h (2 Bft)
06.10.2022 15:59 14,5 C 22,8 C 61 % 1031,7 hPa 0,0 l/m 8,0 km/h (2 Bft) S 180 1 min 1,9 UV-I 427 W/m 7,1 C 13,6 C 11,3 km/h (2 Bft)
06.10.2022 16:00 14,5 C 22,8 C 59 % 1031,8 hPa 0,0 l/m 4,8 km/h (1 Bft) S-SW 202 1 min 1,9 UV-I 425 W/m 6,6 C 14,5 C 8,0 km/h (2 Bft)
06.10.2022 16:01 14,6 C 22,8 C 60 % 1031,8 hPa 0,0 l/m 6,4 km/h (2 Bft) S-SW 202 1 min 1,9 UV-I 422 W/m 6,9 C 14,6 C 9,7 km/h (2 Bft)
06.10.2022 16:02 14,6 C 23,3 C 59 % 1031,7 hPa 0,0 l/m 9,7 km/h (2 Bft) S 180 1 min 1,9 UV-I 420 W/m 6,7 C 12,8 C 14,5 km/h (3 Bft)
06.10.2022 16:03 14,6 C 23,3 C 59 % 1031,7 hPa 0,0 l/m 11,3 km/h (2 Bft) S-SW 202 1 min 1,9 UV-I 418 W/m 6,7 C 12,1 C 14,5 km/h (3 Bft)
06.10.2022 16:04 14,6 C 22,8 C 58 % 1031,7 hPa 0,0 l/m 9,7 km/h (2 Bft) SW 225 1 min 1,8 UV-I 416 W/m 6,4 C 12,8 C 16,1 km/h (3 Bft)
06.10.2022 16:05 14,6 C 22,2 C 60 % 1031,7 hPa 0,0 l/m 11,3 km/h (2 Bft) S-SW 202 1 min 1,8 UV-I 413 W/m 6,9 C 12,1 C 14,5 km/h (3 Bft)
06.10.2022 16:06 14,6 C 21,7 C 58 % 1031,8 hPa 0,0 l/m 9,7 km/h (2 Bft) SW 225 1 min 1,8 UV-I 411 W/m 6,4 C 12,8 C 16,1 km/h (3 Bft)
06.10.2022 16:07 14,6 C 21,7 C 58 % 1031,8 hPa 0,0 l/m 8,0 km/h (2 Bft) SW 225 1 min 1,8 UV-I 410 W/m 6,4 C 13,7 C 9,7 km/h (2 Bft)
06.10.2022 16:08 14,6 C 21,7 C 58 % 1031,7 hPa 0,0 l/m 8,0 km/h (2 Bft) S-SW 202 1 min 1,8 UV-I 408 W/m 6,4 C 13,7 C 9,7 km/h (2 Bft)
06.10.2022 16:09 14,6 C 22,2 C 57 % 1031,7 hPa 0,0 l/m 8,0 km/h (2 Bft) S-SW 202 1 min 1,8 UV-I 408 W/m 6,2 C 13,7 C 11,3 km/h (2 Bft)
06.10.2022 16:10 14,6 C 22,2 C 58 % 1031,8 hPa 0,0 l/m 11,3 km/h (2 Bft) S-SW 202 1 min 1,8 UV-I 406 W/m 6,4 C 12,1 C 14,5 km/h (3 Bft)
06.10.2022 16:11 14,6 C 21,7 C 58 % 1031,7 hPa 0,0 l/m 9,7 km/h (2 Bft) S-SW 202 1 min 1,7 UV-I 403 W/m 6,4 C 12,8 C 11,3 km/h (2 Bft)
06.10.2022 16:12 14,5 C 21,7 C 57 % 1031,8 hPa 0,0 l/m 4,8 km/h (1 Bft) S 180 1 min 1,7 UV-I 399 W/m 6,1 C 14,5 C 9,7 km/h (2 Bft)
06.10.2022 16:13 14,4 C 22,8 C 57 % 1031,7 hPa 0,0 l/m 3,2 km/h (1 Bft) S 180 1 min 1,7 UV-I 399 W/m 6,0 C 14,4 C 4,8 km/h (1 Bft)
06.10.2022 16:14 14,5 C 22,8 C 59 % 1031,7 hPa 0,0 l/m 4,8 km/h (1 Bft) S-SW 202 1 min 1,7 UV-I 396 W/m 6,6 C 14,5 C 6,4 km/h (2 Bft)
06.10.2022 16:15 14,5 C 23,3 C 58 % 1031,7 hPa 0,0 l/m 6,4 km/h (2 Bft) S-SW 202 0 min 1,7 UV-I 394 W/m 6,3 C 14,5 C 8,0 km/h (2 Bft)
06.10.2022 16:16 14,6 C 23,3 C 58 % 1031,6 hPa 0,0 l/m 8,0 km/h (2 Bft) S-SW 202 0 min 1,7 UV-I 390 W/m 6,4 C 13,7 C 11,3 km/h (2 Bft)
06.10.2022 16:17 14,6 C 23,3 C 59 % 1031,7 hPa 0,0 l/m 6,4 km/h (2 Bft) S-SW 202 0 min 1,7 UV-I 387 W/m 6,7 C 14,6 C 8,0 km/h (2 Bft)
06.10.2022 16:18 14,6 C 22,8 C 58 % 1031,6 hPa 0,0 l/m 9,7 km/h (2 Bft) SW 225 0 min 1,6 UV-I 387 W/m 6,4 C 12,8 C 11,3 km/h (2 Bft)
06.10.2022 16:19 14,6 C 22,2 C 58 % 1031,7 hPa 0,0 l/m 11,3 km/h (2 Bft) S-SW 202 0 min 1,6 UV-I 385 W/m 6,4 C 12,1 C 14,5 km/h (3 Bft)
06.10.2022 16:20 14,6 C 22,2 C 59 % 1031,7 hPa 0,0 l/m 11,3 km/h (2 Bft) S-SW 202 0 min 1,6 UV-I 385 W/m 6,7 C 12,1 C 12,9 km/h (3 Bft)
06.10.2022 16:21 14,5 C 21,7 C 58 % 1031,8 hPa 0,0 l/m 11,3 km/h (2 Bft) S-SW 202 0 min 1,6 UV-I 383 W/m 6,3 C 12,0 C 14,5 km/h (3 Bft)
06.10.2022 16:22 14,5 C 21,7 C 58 % 1031,7 hPa 0,0 l/m 9,7 km/h (2 Bft) S-SW 202 0 min 1,6 UV-I 379 W/m 6,3 C 12,7 C 11,3 km/h (2 Bft)
06.10.2022 16:23 14,4 C 21,7 C 59 % 1031,7 hPa 0,0 l/m 9,7 km/h (2 Bft) S 180 0 min 1,6 UV-I 376 W/m 6,5 C 12,6 C 12,9 km/h (3 Bft)
06.10.2022 16:24 14,4 C 21,7 C 59 % 1031,5 hPa 0,0 l/m 9,7 km/h (2 Bft) S-SO 157 0 min 1,5 UV-I 374 W/m 6,5 C 12,6 C 14,5 km/h (3 Bft)
06.10.2022 16:25 14,4 C 21,7 C 60 % 1031,6 hPa 0,0 l/m 9,7 km/h (2 Bft) S-SW 202 0 min 1,5 UV-I 371 W/m 6,7 C 12,6 C 14,5 km/h (3 Bft)
06.10.2022 16:26 14,4 C 21,1 C 59 % 1031,6 hPa 0,0 l/m 9,7 km/h (2 Bft) S-SW 202 0 min 1,5 UV-I 369 W/m 6,5 C 12,6 C 14,5 km/h (3 Bft)
06.10.2022 16:27 14,5 C 20,0 C 61 % 1031,6 hPa 0,0 l/m 8,0 km/h (2 Bft) S-SW 202 0 min 1,5 UV-I 367 W/m 7,1 C 13,6 C 11,3 km/h (2 Bft)
06.10.2022 16:28 14,6 C 19,4 C 61 % 1031,6 hPa 0,0 l/m 6,4 km/h (2 Bft) S-SW 202 0 min 1,5 UV-I 366 W/m 7,2 C 14,6 C 11,3 km/h (2 Bft)
06.10.2022 16:29 14,6 C 18,9 C 60 % 1031,7 hPa 0,0 l/m 8,0 km/h (2 Bft) S-SW 202 0 min 1,5 UV-I 360 W/m 6,9 C 13,7 C 11,3 km/h (2 Bft)
06.10.2022 16:30 14,6 C 18,3 C 60 % 1031,6 hPa 0,0 l/m 11,3 km/h (2 Bft) S-SW 202 0 min 1,5 UV-I 359 W/m 6,9 C 12,1 C 16,1 km/h (3 Bft)
06.10.2022 16:31 14,6 C 17,8 C 60 % 1031,6 hPa 0,0 l/m 11,3 km/h (2 Bft) S-SW 202 0 min 1,4 UV-I 357 W/m 6,9 C 12,1 C 14,5 km/h (3 Bft)
06.10.2022 16:32 14,6 C 17,8 C 61 % 1031,7 hPa 0,0 l/m 9,7 km/h (2 Bft) S-SW 202 0 min 1,4 UV-I 355 W/m 7,2 C 12,8 C 12,9 km/h (3 Bft)
06.10.2022 16:33 14,5 C 18,3 C 60 % 1031,7 hPa 0,0 l/m 9,7 km/h (2 Bft) S-SW 202 0 min 1,4 UV-I 352 W/m 6,8 C 12,7 C 12,9 km/h (3 Bft)
06.10.2022 16:34 14,5 C 19,4 C 61 % 1031,7 hPa 0,0 l/m 6,4 km/h (2 Bft) S-SW 202 0 min 1,4 UV-I 351 W/m 7,1 C 14,5 C 9,7 km/h (2 Bft)
06.10.2022 16:35 14,5 C 20,0 C 61 % 1031,6 hPa 0,0 l/m 8,0 km/h (2 Bft) S-SW 202 0 min 1,4 UV-I 350 W/m 7,1 C 13,6 C 9,7 km/h (2 Bft)
06.10.2022 16:36 14,6 C 20,6 C 61 % 1031,6 hPa 0,0 l/m 11,3 km/h (2 Bft) S-SW 202 0 min 1,4 UV-I 348 W/m 7,2 C 12,1 C 14,5 km/h (3 Bft)
06.10.2022 16:37 14,5 C 19,4 C 61 % 1031,6 hPa 0,0 l/m 6,4 km/h (2 Bft) SW 225 0 min 1,4 UV-I 346 W/m 7,1 C 14,5 C 11,3 km/h (2 Bft)
06.10.2022 16:38 14,5 C 19,4 C 60 % 1031,6 hPa 0,0 l/m 11,3 km/h (2 Bft) SW 225 0 min 1,3 UV-I 343 W/m 6,8 C 12,0 C 16,1 km/h (3 Bft)
06.10.2022 16:39 14,4 C 19,4 C 60 % 1031,7 hPa 0,0 l/m 11,3 km/h (2 Bft) S-SW 202 0 min 1,3 UV-I 341 W/m 6,7 C 11,9 C 14,5 km/h (3 Bft)
06.10.2022 16:40 14,4 C 20,0 C 60 % 1031,6 hPa 0,0 l/m 6,4 km/h (2 Bft) S 180 0 min 1,3 UV-I 336 W/m 6,7 C 14,4 C 11,3 km/h (2 Bft)
06.10.2022 16:41 14,4 C 20,6 C 61 % 1031,6 hPa 0,0 l/m 6,4 km/h (2 Bft) S-SO 157 0 min 1,3 UV-I 334 W/m 7,0 C 14,4 C 8,0 km/h (2 Bft)
06.10.2022 16:42 14,4 C 20,6 C 62 % 1031,6 hPa 0,0 l/m 9,7 km/h (2 Bft) S-SW 202 0 min 1,3 UV-I 330 W/m 7,2 C 12,6 C 12,9 km/h (3 Bft)
06.10.2022 16:43 14,5 C 21,1 C 62 % 1031,6 hPa 0,0 l/m 6,4 km/h (2 Bft) S 180 0 min 1,3 UV-I 329 W/m 7,3 C 14,5 C 8,0 km/h (2 Bft)
06.10.2022 16:44 14,6 C 21,1 C 61 % 1031,6 hPa 0,0 l/m 11,3 km/h (2 Bft) S-SW 202 0 min 1,3 UV-I 327 W/m 7,2 C 12,1 C 14,5 km/h (3 Bft)
06.10.2022 16:45 14,5 C 21,1 C 61 % 1031,6 hPa 0,0 l/m 8,0 km/h (2 Bft) S-SW 202 0 min 1,3 UV-I 321 W/m 7,1 C 13,6 C 9,7 km/h (2 Bft)
06.10.2022 16:46 14,5 C 21,1 C 60 % 1031,6 hPa 0,0 l/m 11,3 km/h (2 Bft) S-SW 202 0 min 1,2 UV-I 320 W/m 6,8 C 12,0 C 14,5 km/h (3 Bft)
06.10.2022 16:47 14,4 C 21,1 C 61 % 1031,5 hPa 0,0 l/m 8,0 km/h (2 Bft) S 180 0 min 1,2 UV-I 318 W/m 7,0 C 13,5 C 12,9 km/h (3 Bft)
06.10.2022 16:48 14,3 C 20,6 C 59 % 1031,6 hPa 0,0 l/m 9,7 km/h (2 Bft) S 180 0 min 1,2 UV-I 315 W/m 6,4 C 12,5 C 12,9 km/h (3 Bft)
06.10.2022 16:49 14,3 C 21,1 C 61 % 1031,6 hPa 0,0 l/m 8,0 km/h (2 Bft) S-SO 157 0 min 1,2 UV-I 311 W/m 6,9 C 13,4 C 12,9 km/h (3 Bft)
06.10.2022 16:50 14,2 C 21,1 C 60 % 1031,6 hPa 0,0 l/m 4,8 km/h (1 Bft) S 180 0 min 1,2 UV-I 311 W/m 6,5 C 14,2 C 8,0 km/h (2 Bft)
06.10.2022 16:51 14,2 C 21,1 C 61 % 1031,5 hPa 0,0 l/m 4,8 km/h (1 Bft) SO 135 0 min 1,2 UV-I 309 W/m 6,8 C 14,2 C 8,0 km/h (2 Bft)
06.10.2022 16:52 14,3 C 21,1 C 62 % 1031,6 hPa 0,0 l/m 6,4 km/h (2 Bft) SO 135 0 min 1,2 UV-I 306 W/m 7,1 C 14,3 C 9,7 km/h (2 Bft)
06.10.2022 16:53 14,3 C 21,1 C 62 % 1031,5 hPa 0,0 l/m 4,8 km/h (1 Bft) S 180 0 min 1,1 UV-I 304 W/m 7,1 C 14,3 C 9,7 km/h (2 Bft)
06.10.2022 16:54 14,4 C 21,7 C 61 % 1031,6 hPa 0,0 l/m 6,4 km/h (2 Bft) SW 225 0 min 1,1 UV-I 302 W/m 7,0 C 14,4 C 9,7 km/h (2 Bft)
06.10.2022 16:55 14,5 C 22,2 C 61 % 1031,6 hPa 0,0 l/m 8,0 km/h (2 Bft) SW 225 0 min 1,1 UV-I 299 W/m 7,1 C 13,6 C 11,3 km/h (2 Bft)
06.10.2022 16:56 14,5 C 21,7 C 60 % 1031,5 hPa 0,0 l/m 6,4 km/h (2 Bft) S-SW 202 0 min 1,1 UV-I 297 W/m 6,8 C 14,5 C 8,0 km/h (2 Bft)
06.10.2022 16:57 14,4 C 21,7 C 60 % 1031,6 hPa 0,0 l/m 8,0 km/h (2 Bft) W-SW 247 0 min 1,1 UV-I 295 W/m 6,7 C 13,5 C 16,1 km/h (3 Bft)
06.10.2022 16:58 14,4 C 21,7 C 60 % 1031,5 hPa 0,0 l/m 6,4 km/h (2 Bft) SW 225 0 min 1,1 UV-I 290 W/m 6,7 C 14,4 C 8,0 km/h (2 Bft)
06.10.2022 16:59 14,5 C 22,2 C 60 % 1031,6 hPa 0,0 l/m 4,8 km/h (1 Bft) SW 225 0 min 1,1 UV-I 288 W/m 6,8 C 14,5 C 6,4 km/h (2 Bft)
06.10.2022 17:00 14,4 C 21,7 C 60 % 1031,5 hPa 0,0 l/m 4,8 km/h (1 Bft) W-SW 247 0 min 1,0 UV-I 287 W/m 6,7 C 14,4 C 11,3 km/h (2 Bft)
06.10.2022 17:01 14,5 C 22,2 C 62 % 1031,5 hPa 0,0 l/m 3,2 km/h (1 Bft) W 270 0 min 1,0 UV-I 285 W/m 7,3 C 14,5 C 6,4 km/h (2 Bft)
06.10.2022 17:02 14,6 C 22,2 C 62 % 1031,5 hPa 0,0 l/m 4,8 km/h (1 Bft) S 180 0 min 1,0 UV-I 281 W/m 7,4 C 14,6 C 6,4 km/h (2 Bft)
06.10.2022 17:03 14,6 C 22,2 C 61 % 1031,5 hPa 0,0 l/m 6,4 km/h (2 Bft) S-SW 202 0 min 1,0 UV-I 281 W/m 7,2 C 14,6 C 9,7 km/h (2 Bft)
06.10.2022 17:04 14,6 C 22,2 C 61 % 1031,5 hPa 0,0 l/m 9,7 km/h (2 Bft) S-SW 202 0 min 1,0 UV-I 281 W/m 7,2 C 12,8 C 14,5 km/h (3 Bft)
06.10.2022 17:05 14,6 C 21,7 C 60 % 1031,6 hPa 0,0 l/m 9,7 km/h (2 Bft) S-SW 202 0 min 1,0 UV-I 278 W/m 6,9 C 12,8 C 12,9 km/h (3 Bft)
06.10.2022 17:06 14,4 C 21,7 C 61 % 1031,6 hPa 0,0 l/m 9,7 km/h (2 Bft) S-SW 202 0 min 1,0 UV-I 276 W/m 7,0 C 12,6 C 12,9 km/h (3 Bft)
06.10.2022 17:07 14,4 C 21,1 C 61 % 1031,5 hPa 0,0 l/m 11,3 km/h (2 Bft) S 180 0 min 1,0 UV-I 274 W/m 7,0 C 11,9 C 14,5 km/h (3 Bft)
06.10.2022 17:08 14,4 C 20,6 C 60 % 1031,6 hPa 0,0 l/m 11,3 km/h (2 Bft) S 180 0 min 1,0 UV-I 271 W/m 6,7 C 11,9 C 17,7 km/h (3 Bft)
06.10.2022 17:09 14,3 C 20,6 C 60 % 1031,6 hPa 0,0 l/m 8,0 km/h (2 Bft) S 180 0 min 0,9 UV-I 266 W/m 6,6 C 13,4 C 11,3 km/h (2 Bft)
06.10.2022 17:10 14,3 C 20,6 C 61 % 1031,5 hPa 0,0 l/m 11,3 km/h (2 Bft) S-SW 202 0 min 0,9 UV-I 262 W/m 6,9 C 11,8 C 14,5 km/h (3 Bft)
06.10.2022 17:11 14,3 C 20,6 C 61 % 1031,5 hPa 0,0 l/m 9,7 km/h (2 Bft) SW 225 0 min 0,9 UV-I 258 W/m 6,9 C 12,5 C 12,9 km/h (3 Bft)
06.10.2022 17:12 14,2 C 20,6 C 62 % 1031,5 hPa 0,0 l/m 8,0 km/h (2 Bft) S-SW 202 0 min 0,9 UV-I 257 W/m 7,0 C 13,3 C 11,3 km/h (2 Bft)
06.10.2022 17:13 14,3 C 21,1 C 61 % 1031,6 hPa 0,0 l/m 6,4 km/h (2 Bft) S 180 0 min 0,9 UV-I 251 W/m 6,9 C 14,3 C 11,3 km/h (2 Bft)
06.10.2022 17:14 14,3 C 20,6 C 60 % 1031,6 hPa 0,0 l/m 11,3 km/h (2 Bft) S 180 0 min 0,8 UV-I 246 W/m 6,6 C 11,8 C 12,9 km/h (3 Bft)
06.10.2022 17:15 14,2 C 20,6 C 61 % 1031,5 hPa 0,0 l/m 8,0 km/h (2 Bft) S-SW 202 0 min 0,8 UV-I 216 W/m 6,8 C 13,3 C 12,9 km/h (3 Bft)
06.10.2022 17:16 14,2 C 20,0 C 61 % 1031,5 hPa 0,0 l/m 6,4 km/h (2 Bft) S-SW 202 0 min 0,8 UV-I 239 W/m 6,8 C 14,2 C 11,3 km/h (2 Bft)
06.10.2022 17:17 14,2 C 20,0 C 62 % 1031,5 hPa 0,0 l/m 9,7 km/h (2 Bft) S-SW 202 0 min 0,8 UV-I 241 W/m 7,0 C 12,4 C 12,9 km/h (3 Bft)
06.10.2022 17:18 14,1 C 20,0 C 61 % 1031,6 hPa 0,0 l/m 8,0 km/h (2 Bft) S 180 0 min 0,8 UV-I 239 W/m 6,7 C 13,2 C 14,5 km/h (3 Bft)
06.10.2022 17:19 14,1 C 20,0 C 61 % 1031,6 hPa 0,0 l/m 11,3 km/h (2 Bft) S 180 0 min 0,8 UV-I 239 W/m 6,7 C 11,5 C 14,5 km/h (3 Bft)
06.10.2022 17:20 14,1 C 20,0 C 60 % 1031,5 hPa 0,0 l/m 9,7 km/h (2 Bft) S 180 0 min 0,8 UV-I 237 W/m 6,5 C 12,3 C 11,3 km/h (2 Bft)
06.10.2022 17:21 14,1 C 19,4 C 61 % 1031,5 hPa 0,0 l/m 6,4 km/h (2 Bft) S-SW 202 0 min 0,8 UV-I 232 W/m 6,7 C 14,1 C 9,7 km/h (2 Bft)
06.10.2022 17:22 14,1 C 19,4 C 62 % 1031,5 hPa 0,0 l/m 4,8 km/h (1 Bft) S-SW 202 0 min 0,8 UV-I 232 W/m 6,9 C 14,1 C 9,7 km/h (2 Bft)
06.10.2022 17:23 14,1 C 19,4 C 61 % 1031,4 hPa 0,0 l/m 8,0 km/h (2 Bft) S 180 0 min 0,7 UV-I 227 W/m 6,7 C 13,2 C 9,7 km/h (2 Bft)
06.10.2022 17:24 14,1 C 17,2 C 61 % 1031,5 hPa 0,0 l/m 8,0 km/h (2 Bft) S-SW 202 0 min 0,7 UV-I 225 W/m 6,7 C 13,2 C 11,3 km/h (2 Bft)
06.10.2022 17:25 14,1 C 16,7 C 62 % 1031,4 hPa 0,0 l/m 4,8 km/h (1 Bft) S-SW 202 0 min 0,7 UV-I 223 W/m 6,9 C 14,1 C 8,0 km/h (2 Bft)
06.10.2022 17:26 14,1 C 16,1 C 62 % 1031,4 hPa 0,0 l/m 3,2 km/h (1 Bft) S-SW 202 0 min 0,7 UV-I 219 W/m 6,9 C 14,1 C 6,4 km/h (2 Bft)
06.10.2022 17:27 14,1 C 16,1 C 62 % 1031,5 hPa 0,0 l/m 3,2 km/h (1 Bft) S-SW 202 0 min 0,7 UV-I 214 W/m 6,9 C 14,1 C 6,4 km/h (2 Bft)
06.10.2022 17:28 14,1 C 15,6 C 62 % 1031,5 hPa 0,0 l/m 8,0 km/h (2 Bft) S 180 0 min 0,7 UV-I 211 W/m 6,9 C 13,2 C 11,3 km/h (2 Bft)
06.10.2022 17:29 14,0 C 15,6 C 62 % 1031,4 hPa 0,0 l/m 8,0 km/h (2 Bft) S 180 0 min 0,7 UV-I 207 W/m 6,8 C 13,1 C 9,7 km/h (2 Bft)
06.10.2022 17:30 14,1 C 15,0 C 63 % 1031,5 hPa 0,0 l/m 9,7 km/h (2 Bft) S-SW 202 0 min 0,7 UV-I 206 W/m 7,2 C 12,3 C 12,9 km/h (3 Bft)
06.10.2022 17:31 14,1 C 15,0 C 62 % 1031,4 hPa 0,0 l/m 9,7 km/h (2 Bft) S-SW 202 0 min 0,7 UV-I 204 W/m 6,9 C 12,3 C 11,3 km/h (2 Bft)
06.10.2022 17:32 14,1 C 15,0 C 63 % 1031,4 hPa 0,0 l/m 6,4 km/h (2 Bft) S 180 0 min 0,6 UV-I 200 W/m 7,2 C 14,1 C 11,3 km/h (2 Bft)
06.10.2022 17:33 14,1 C 14,4 C 63 % 1031,4 hPa 0,0 l/m 3,2 km/h (1 Bft) S-SW 202 0 min 0,6 UV-I 195 W/m 7,2 C 14,1 C 6,4 km/h (2 Bft)
06.10.2022 17:34 14,1 C 15,0 C 63 % 1031,4 hPa 0,0 l/m 6,4 km/h (2 Bft) SW 225 0 min 0,6 UV-I 192 W/m 7,2 C 14,1 C 9,7 km/h (2 Bft)
06.10.2022 17:35 14,1 C 15,6 C 63 % 1031,5 hPa 0,0 l/m 6,4 km/h (2 Bft) S-SW 202 0 min 0,6 UV-I 188 W/m 7,2 C 14,1 C 9,7 km/h (2 Bft)
06.10.2022 17:36 14,1 C 16,7 C 63 % 1031,5 hPa 0,0 l/m 4,8 km/h (1 Bft) S-SW 202 0 min 0,6 UV-I 185 W/m 7,2 C 14,1 C 8,0 km/h (2 Bft)
06.10.2022 17:37 14,1 C 17,8 C 63 % 1031,5 hPa 0,0 l/m 4,8 km/h (1 Bft) SW 225 0 min 0,6 UV-I 183 W/m 7,2 C 14,1 C 11,3 km/h (2 Bft)
06.10.2022 17:38 14,0 C 18,3 C 63 % 1031,4 hPa 0,0 l/m 4,8 km/h (1 Bft) W-SW 247 0 min 0,6 UV-I 178 W/m 7,1 C 14,0 C 6,4 km/h (2 Bft)
06.10.2022 17:39 14,0 C 18,9 C 63 % 1031,4 hPa 0,0 l/m 4,8 km/h (1 Bft) SW 225 0 min 0,6 UV-I 174 W/m 7,1 C 14,0 C 8,0 km/h (2 Bft)
06.10.2022 17:40 14,1 C 19,4 C 64 % 1031,5 hPa 0,0 l/m 6,4 km/h (2 Bft) SW 225 0 min 0,5 UV-I 174 W/m 7,4 C 14,1 C 16,1 km/h (3 Bft)
06.10.2022 17:41 14,1 C 18,9 C 63 % 1031,4 hPa 0,0 l/m 8,0 km/h (2 Bft) S 180 0 min 0,5 UV-I 169 W/m 7,2 C 13,2 C 12,9 km/h (3 Bft)
06.10.2022 17:42 13,9 C 18,9 C 62 % 1031,4 hPa 0,0 l/m 9,7 km/h (2 Bft) S-SW 202 0 min 0,5 UV-I 167 W/m 6,7 C 12,0 C 14,5 km/h (3 Bft)
06.10.2022 17:43 13,9 C 18,3 C 63 % 1031,5 hPa 0,0 l/m 8,0 km/h (2 Bft) S-SW 202 0 min 0,5 UV-I 163 W/m 7,0 C 12,9 C 11,3 km/h (2 Bft)
06.10.2022 17:44 13,9 C 18,3 C 62 % 1031,4 hPa 0,0 l/m 11,3 km/h (2 Bft) S-SW 202 0 min 0,5 UV-I 159 W/m 6,7 C 11,3 C 12,9 km/h (3 Bft)
06.10.2022 17:45 13,8 C 18,3 C 63 % 1031,4 hPa 0,0 l/m 8,0 km/h (2 Bft) S-SW 202 0 min 0,5 UV-I 155 W/m 6,9 C 12,8 C 11,3 km/h (2 Bft)
06.10.2022 17:46 13,8 C 18,3 C 62 % 1031,4 hPa 0,0 l/m 6,4 km/h (2 Bft) S-SW 202 0 min 0,5 UV-I 148 W/m 6,6 C 13,8 C 9,7 km/h (2 Bft)
06.10.2022 17:47 13,8 C 18,3 C 63 % 1031,4 hPa 0,0 l/m 8,0 km/h (2 Bft) S-SW 202 0 min 0,5 UV-I 146 W/m 6,9 C 12,8 C 9,7 km/h (2 Bft)
06.10.2022 17:48 13,8 C 18,3 C 63 % 1031,5 hPa 0,0 l/m 9,7 km/h (2 Bft) S-SW 202 0 min 0,5 UV-I 142 W/m 6,9 C 11,9 C 12,9 km/h (3 Bft)
06.10.2022 17:49 13,8 C 18,3 C 64 % 1031,4 hPa 0,0 l/m 9,7 km/h (2 Bft) S 180 0 min 0,5 UV-I 141 W/m 7,1 C 11,9 C 14,5 km/h (3 Bft)
06.10.2022 17:50 13,7 C 18,3 C 63 % 1031,4 hPa 0,0 l/m 8,0 km/h (2 Bft) S 180 0 min 0,0 UV-I 136 W/m 6,8 C 12,7 C 12,9 km/h (3 Bft)
06.10.2022 17:51 13,7 C 17,8 C 63 % 1031,4 hPa 0,0 l/m 8,0 km/h (2 Bft) S-SW 202 0 min 0,0 UV-I 120 W/m 6,8 C 12,7 C 12,9 km/h (3 Bft)
06.10.2022 17:52 13,7 C 17,8 C 63 % 1031,4 hPa 0,0 l/m 8,0 km/h (2 Bft) S 180 0 min 0,0 UV-I 121 W/m 6,8 C 12,7 C 11,3 km/h (2 Bft)
06.10.2022 17:53 13,7 C 17,2 C 64 % 1031,4 hPa 0,0 l/m 4,8 km/h (1 Bft) S 180 0 min 0,0 UV-I 121 W/m 7,0 C 13,7 C 8,0 km/h (2 Bft)
06.10.2022 17:54 13,6 C 17,8 C 64 % 1031,4 hPa 0,0 l/m 6,4 km/h (2 Bft) S 180 0 min 0,0 UV-I 105 W/m 6,9 C 13,6 C 8,0 km/h (2 Bft)
06.10.2022 17:55 13,6 C 17,8 C 64 % 1031,4 hPa 0,0 l/m 6,4 km/h (2 Bft) S 180 0 min 0,0 UV-I 111 W/m 6,9 C 13,6 C 9,7 km/h (2 Bft)
06.10.2022 17:56 13,6 C 17,8 C 64 % 1031,3 hPa 0,0 l/m 6,4 km/h (2 Bft) S-SW 202 0 min 0,0 UV-I 105 W/m 6,9 C 13,6 C 9,7 km/h (2 Bft)
06.10.2022 17:57 13,6 C 17,8 C 64 % 1031,4 hPa 0,0 l/m 4,8 km/h (1 Bft) S-SW 202 0 min 0,0 UV-I 62 W/m 6,9 C 13,6 C 6,4 km/h (2 Bft)
06.10.2022 17:58 13,6 C 17,8 C 64 % 1031,4 hPa 0,0 l/m 6,4 km/h (2 Bft) S-SW 202 0 min 0,0 UV-I 62 W/m 6,9 C 13,6 C 8,0 km/h (2 Bft)
06.10.2022 17:59 13,6 C 18,3 C 65 % 1031,4 hPa 0,0 l/m 4,8 km/h (1 Bft) SW 225 0 min 0,0 UV-I 62 W/m 7,1 C 13,6 C 8,0 km/h (2 Bft)
06.10.2022 18:00 13,5 C 18,3 C 64 % 1031,5 hPa 0,0 l/m 6,4 km/h (2 Bft) S-SW 202 0 min 0,0 UV-I 79 W/m 6,8 C 13,5 C 8,0 km/h (2 Bft)
06.10.2022 18:01 13,5 C 18,3 C 65 % 1031,4 hPa 0,0 l/m 3,2 km/h (1 Bft) S-SW 202 0 min 0,0 UV-I 97 W/m 7,1 C 13,5 C 6,4 km/h (2 Bft)
06.10.2022 18:02 13,4 C 18,3 C 65 % 1031,4 hPa 0,0 l/m 4,8 km/h (1 Bft) S-SW 202 0 min 0,0 UV-I 98 W/m 7,0 C 13,4 C 8,0 km/h (2 Bft)
06.10.2022 18:03 13,4 C 18,3 C 66 % 1031,4 hPa 0,0 l/m 4,8 km/h (1 Bft) S-SW 202 0 min 0,0 UV-I 95 W/m 7,2 C 13,4 C 8,0 km/h (2 Bft)
06.10.2022 18:04 13,4 C 18,3 C 65 % 1031,4 hPa 0,0 l/m 8,0 km/h (2 Bft) S-SW 202 0 min 0,0 UV-I 93 W/m 7,0 C 12,4 C 9,7 km/h (2 Bft)
06.10.2022 18:05 13,4 C 18,3 C 65 % 1031,4 hPa 0,0 l/m 4,8 km/h (1 Bft) S-SW 202 0 min 0,0 UV-I 90 W/m 7,0 C 13,4 C 6,4 km/h (2 Bft)
06.10.2022 18:06 13,4 C 17,8 C 65 % 1031,3 hPa 0,0 l/m 6,4 km/h (2 Bft) S 180 0 min 0,0 UV-I 88 W/m 7,0 C 13,4 C 9,7 km/h (2 Bft)
06.10.2022 18:07 13,3 C 17,8 C 66 % 1031,5 hPa 0,0 l/m 4,8 km/h (1 Bft) S 180 0 min 0,0 UV-I 85 W/m 7,1 C 13,3 C 6,4 km/h (2 Bft)
06.10.2022 18:08 13,3 C 17,8 C 66 % 1031,5 hPa 0,0 l/m 3,2 km/h (1 Bft) S 180 0 min 0,0 UV-I 83 W/m 7,1 C 13,3 C 4,8 km/h (1 Bft)
06.10.2022 18:09 13,3 C 17,8 C 66 % 1031,4 hPa 0,0 l/m 3,2 km/h (1 Bft) S 180 0 min 0,0 UV-I 81 W/m 7,1 C 13,3 C 6,4 km/h (2 Bft)
06.10.2022 18:10 13,3 C 17,8 C 66 % 1031,4 hPa 0,0 l/m 6,4 km/h (2 Bft) S 180 0 min 0,0 UV-I 79 W/m 7,1 C 13,3 C 9,7 km/h (2 Bft)
06.10.2022 18:11 13,2 C 17,2 C 66 % 1031,4 hPa 0,0 l/m 6,4 km/h (2 Bft) S 180 0 min 0,0 UV-I 77 W/m 7,0 C 13,2 C 8,0 km/h (2 Bft)
06.10.2022 18:12 13,2 C 16,7 C 66 % 1031,5 hPa 0,0 l/m 3,2 km/h (1 Bft) S 180 0 min 0,0 UV-I 74 W/m 7,0 C 13,2 C 4,8 km/h (1 Bft)
06.10.2022 18:13 13,2 C 16,7 C 66 % 1031,3 hPa 0,0 l/m 1,6 km/h (1 Bft) S 180 0 min 0,0 UV-I 71 W/m 7,0 C 13,2 C 3,2 km/h (1 Bft)
06.10.2022 18:14 13,1 C 16,7 C 67 % 1031,4 hPa 0,0 l/m 1,6 km/h (1 Bft) S 180 0 min 0,0 UV-I 58 W/m 7,1 C 13,1 C 6,4 km/h (2 Bft)
06.10.2022 18:15 13,0 C 16,1 C 67 % 1031,5 hPa 0,0 l/m 3,2 km/h (1 Bft) S 180 0 min 0,0 UV-I 40 W/m 7,0 C 13,0 C 8,0 km/h (2 Bft)
06.10.2022 18:16 12,9 C 15,0 C 67 % 1031,4 hPa 0,0 l/m 3,2 km/h (1 Bft) S 180 0 min 0,0 UV-I 28 W/m 6,9 C 12,9 C 4,8 km/h (1 Bft)
06.10.2022 18:17 12,9 C 13,9 C 67 % 1031,4 hPa 0,0 l/m 3,2 km/h (1 Bft) S 180 0 min 0,0 UV-I 26 W/m 6,9 C 12,9 C 6,4 km/h (2 Bft)
06.10.2022 18:18 12,9 C 13,3 C 67 % 1031,4 hPa 0,0 l/m 6,4 km/h (2 Bft) S-SW 202 0 min 0,0 UV-I 26 W/m 6,9 C 12,9 C 8,0 km/h (2 Bft)
06.10.2022 18:19 12,9 C 12,8 C 67 % 1031,4 hPa 0,0 l/m 3,2 km/h (1 Bft) S-SW 202 0 min 0,0 UV-I 35 W/m 6,9 C 12,9 C 6,4 km/h (2 Bft)
06.10.2022 18:20 12,9 C 12,8 C 67 % 1031,4 hPa 0,0 l/m 3,2 km/h (1 Bft) S-SW 202 0 min 0,0 UV-I 46 W/m 6,9 C 12,9 C 4,8 km/h (1 Bft)
06.10.2022 18:21 12,8 C 12,2 C 67 % 1031,5 hPa 0,0 l/m 3,2 km/h (1 Bft) S 180 0 min 0,0 UV-I 42 W/m 6,8 C 12,8 C 6,4 km/h (2 Bft)
06.10.2022 18:22 12,8 C 11,7 C 68 % 1031,5 hPa 0,0 l/m 3,2 km/h (1 Bft) S 180 0 min 0,0 UV-I 39 W/m 7,0 C 12,8 C 4,8 km/h (1 Bft)
06.10.2022 18:23 12,7 C 11,7 C 68 % 1031,5 hPa 0,0 l/m 3,2 km/h (1 Bft) S 180 0 min 0,0 UV-I 37 W/m 6,9 C 12,7 C 4,8 km/h (1 Bft)
06.10.2022 18:24 12,6 C 11,1 C 68 % 1031,5 hPa 0,0 l/m 3,2 km/h (1 Bft) S 180 0 min 0,0 UV-I 28 W/m 6,9 C 12,6 C 4,8 km/h (1 Bft)
06.10.2022 18:25 12,6 C 11,1 C 68 % 1031,5 hPa 0,0 l/m 4,8 km/h (1 Bft) S 180 0 min 0,0 UV-I 21 W/m 6,9 C 12,6 C 6,4 km/h (2 Bft)
06.10.2022 18:26 12,6 C 11,1 C 68 % 1031,5 hPa 0,0 l/m 4,8 km/h (1 Bft) S 180 0 min 0,0 UV-I 21 W/m 6,9 C 12,6 C 8,0 km/h (2 Bft)
06.10.2022 18:27 12,5 C 10,6 C 68 % 1031,4 hPa 0,0 l/m 3,2 km/h (1 Bft) S 180 0 min 0,0 UV-I 21 W/m 6,8 C 12,5 C 4,8 km/h (1 Bft)
06.10.2022 18:28 12,4 C 10,6 C 68 % 1031,5 hPa 0,0 l/m 1,6 km/h (1 Bft) S 180 0 min 0,0 UV-I 21 W/m 6,7 C 12,4 C 3,2 km/h (1 Bft)
06.10.2022 18:29 12,4 C 10,6 C 68 % 1031,4 hPa 0,0 l/m 3,2 km/h (1 Bft) S 180 0 min 0,0 UV-I 19 W/m 6,7 C 12,4 C 4,8 km/h (1 Bft)
06.10.2022 18:30 12,3 C 10,6 C 68 % 1031,4 hPa 0,0 l/m 3,2 km/h (1 Bft) S 180 0 min 0,0 UV-I 19 W/m 6,6 C 12,3 C 4,8 km/h (1 Bft)
06.10.2022 18:31 12,2 C 10,6 C 69 % 1031,4 hPa 0,0 l/m 4,8 km/h (1 Bft) S 180 0 min 0,0 UV-I 19 W/m 6,7 C 12,2 C 4,8 km/h (1 Bft)
06.10.2022 18:32 12,2 C 10,0 C 69 % 1031,4 hPa 0,0 l/m 4,8 km/h (1 Bft) S 180 0 min 0,0 UV-I 18 W/m 6,7 C 12,2 C 4,8 km/h (1 Bft)
06.10.2022 18:33 12,2 C 10,0 C 69 % 1031,4 hPa 0,0 l/m 4,8 km/h (1 Bft) S 180 0 min 0,0 UV-I 18 W/m 6,7 C 12,2 C 6,4 km/h (2 Bft)
06.10.2022 18:34 12,1 C 10,0 C 70 % 1031,4 hPa 0,0 l/m 4,8 km/h (1 Bft) S 180 0 min 0,0 UV-I 18 W/m 6,8 C 12,1 C 6,4 km/h (2 Bft)
06.10.2022 18:35 12,0 C 10,0 C 70 % 1031,4 hPa 0,0 l/m 4,8 km/h (1 Bft) S 180 0 min 0,0 UV-I 18 W/m 6,7 C 12,0 C 8,0 km/h (2 Bft)
06.10.2022 18:36 11,9 C 10,0 C 70 % 1031,4 hPa 0,0 l/m 4,8 km/h (1 Bft) S-SW 202 0 min 0,0 UV-I 16 W/m 6,6 C 11,9 C 8,0 km/h (2 Bft)
06.10.2022 18:37 11,8 C 9,4 C 70 % 1031,3 hPa 0,0 l/m 4,8 km/h (1 Bft) S-SW 202 0 min 0,0 UV-I 16 W/m 6,5 C 11,8 C 6,4 km/h (2 Bft)
06.10.2022 18:38 11,8 C 9,4 C 70 % 1031,4 hPa 0,0 l/m 3,2 km/h (1 Bft) S-SW 202 0 min 0,0 UV-I 16 W/m 6,5 C 11,8 C 6,4 km/h (2 Bft)
06.10.2022 18:39 11,8 C 9,4 C 70 % 1031,4 hPa 0,0 l/m 4,8 km/h (1 Bft) S-SW 202 0 min 0,0 UV-I 14 W/m 6,5 C 11,8 C 6,4 km/h (2 Bft)
06.10.2022 18:40 11,8 C 9,4 C 70 % 1031,4 hPa 0,0 l/m 4,8 km/h (1 Bft) SW 225 0 min 0,0 UV-I 14 W/m 6,5 C 11,8 C 6,4 km/h (2 Bft)
06.10.2022 18:41 11,8 C 9,4 C 70 % 1031,4 hPa 0,0 l/m 4,8 km/h (1 Bft) SW 225 0 min 0,0 UV-I 14 W/m 6,5 C 11,8 C 6,4 km/h (2 Bft)
06.10.2022 18:42 11,7 C 9,4 C 70 % 1031,4 hPa 0,0 l/m 3,2 km/h (1 Bft) SW 225 0 min 0,0 UV-I 13 W/m 6,4 C 11,7 C 3,2 km/h (1 Bft)
06.10.2022 18:43 11,7 C 9,4 C 70 % 1031,3 hPa 0,0 l/m 3,2 km/h (1 Bft) SW 225 0 min 0,0 UV-I 12 W/m 6,4 C 11,7 C 6,4 km/h (2 Bft)
06.10.2022 18:44 11,6 C 8,9 C 70 % 1031,3 hPa 0,0 l/m 3,2 km/h (1 Bft) SW 225 0 min 0,0 UV-I 12 W/m 6,3 C 11,6 C 4,8 km/h (1 Bft)
06.10.2022 18:45 11,5 C 8,9 C 71 % 1031,3 hPa 0,0 l/m 4,8 km/h (1 Bft) SW 225 0 min 0,0 UV-I 11 W/m 6,4 C 11,5 C 8,0 km/h (2 Bft)
06.10.2022 18:46 11,4 C 8,9 C 71 % 1031,3 hPa 0,0 l/m 3,2 km/h (1 Bft) SW 225 0 min 0,0 UV-I 11 W/m 6,3 C 11,4 C 3,2 km/h (1 Bft)
06.10.2022 18:47 11,4 C 8,3 C 71 % 1031,3 hPa 0,0 l/m 3,2 km/h (1 Bft) SW 225 0 min 0,0 UV-I 11 W/m 6,3 C 11,4 C 4,8 km/h (1 Bft)
06.10.2022 18:48 11,3 C 8,9 C 71 % 1031,4 hPa 0,0 l/m 1,6 km/h (1 Bft) SW 225 0 min 0,0 UV-I 9 W/m 6,2 C 11,3 C 3,2 km/h (1 Bft)
06.10.2022 18:49 11,3 C 8,3 C 71 % 1031,3 hPa 0,0 l/m 3,2 km/h (1 Bft) SW 225 0 min 0,0 UV-I 9 W/m 6,2 C 11,3 C 3,2 km/h (1 Bft)
06.10.2022 18:50 11,2 C 8,3 C 72 % 1031,3 hPa 0,0 l/m 1,6 km/h (1 Bft) SW 225 0 min 0,0 UV-I 9 W/m 6,3 C 11,2 C 1,6 km/h (1 Bft)
06.10.2022 18:51 11,2 C 8,3 C 72 % 1031,4 hPa 0,0 l/m 1,6 km/h (1 Bft) SW 225 0 min 0,0 UV-I 7 W/m 6,3 C 11,2 C 1,6 km/h (1 Bft)
06.10.2022 18:52 11,1 C 8,3 C 72 % 1031,5 hPa 0,0 l/m 3,2 km/h (1 Bft) SW 225 0 min 0,0 UV-I 7 W/m 6,2 C 11,1 C 4,8 km/h (1 Bft)
06.10.2022 18:53 11,1 C 8,3 C 72 % 1031,4 hPa 0,0 l/m 3,2 km/h (1 Bft) SW 225 0 min 0,0 UV-I 7 W/m 6,2 C 11,1 C 3,2 km/h (1 Bft)
06.10.2022 18:54 11,1 C 8,3 C 72 % 1031,5 hPa 0,0 l/m 3,2 km/h (1 Bft) SW 225 0 min 0,0 UV-I 6 W/m 6,2 C 11,1 C 3,2 km/h (1 Bft)
06.10.2022 18:55 11,0 C 8,3 C 72 % 1031,5 hPa 0,0 l/m 3,2 km/h (1 Bft) SW 225 0 min 0,0 UV-I 5 W/m 6,2 C 11,0 C 3,2 km/h (1 Bft)
06.10.2022 18:56 10,9 C 8,3 C 72 % 1031,5 hPa 0,0 l/m 3,2 km/h (1 Bft) SW 225 0 min 0,0 UV-I 5 W/m 6,1 C 10,9 C 4,8 km/h (1 Bft)
06.10.2022 18:57 10,9 C 8,3 C 72 % 1031,5 hPa 0,0 l/m 3,2 km/h (1 Bft) SW 225 0 min 0,0 UV-I 5 W/m 6,1 C 10,9 C 3,2 km/h (1 Bft)
06.10.2022 18:58 10,9 C 8,3 C 72 % 1031,5 hPa 0,0 l/m 3,2 km/h (1 Bft) SW 225 0 min 0,0 UV-I 5 W/m 6,1 C 10,9 C 4,8 km/h (1 Bft)
06.10.2022 18:59 10,9 C 8,3 C 72 % 1031,6 hPa 0,0 l/m 3,2 km/h (1 Bft) SW 225 0 min 0,0 UV-I 5 W/m 6,1 C 10,9 C 4,8 km/h (1 Bft)
06.10.2022 19:00 10,8 C 8,3 C 72 % 1031,5 hPa 0,0 l/m 3,2 km/h (1 Bft) SW 225 0 min 0,0 UV-I 5 W/m 6,0 C 10,8 C 4,8 km/h (1 Bft)
06.10.2022 19:01 10,8 C 8,3 C 72 % 1031,5 hPa 0,0 l/m 4,8 km/h (1 Bft) SW 225 0 min 0,0 UV-I 0 W/m 6,0 C 10,8 C 4,8 km/h (1 Bft)
06.10.2022 19:02 10,7 C 7,8 C 73 % 1031,6 hPa 0,0 l/m 4,8 km/h (1 Bft) SW 225 0 min 0,0 UV-I 0 W/m 6,1 C 10,7 C 6,4 km/h (2 Bft)
06.10.2022 19:03 10,7 C 7,8 C 72 % 1031,6 hPa 0,0 l/m 4,8 km/h (1 Bft) SW 225 0 min 0,0 UV-I 0 W/m 5,9 C 10,7 C 6,4 km/h (2 Bft)
06.10.2022 19:04 10,7 C 7,8 C 72 % 1031,5 hPa 0,0 l/m 4,8 km/h (1 Bft) SW 225 0 min 0,0 UV-I 0 W/m 5,9 C 10,7 C 6,4 km/h (2 Bft)
06.10.2022 19:05 10,6 C 7,8 C 72 % 1031,6 hPa 0,0 l/m 4,8 km/h (1 Bft) SW 225 0 min 0,0 UV-I 0 W/m 5,8 C 10,6 C 6,4 km/h (2 Bft)
06.10.2022 19:06 10,6 C 7,8 C 73 % 1031,6 hPa 0,0 l/m 4,8 km/h (1 Bft) SW 225 0 min 0,0 UV-I 0 W/m 6,0 C 10,6 C 4,8 km/h (1 Bft)
06.10.2022 19:07 10,6 C 7,8 C 73 % 1031,5 hPa 0,0 l/m 4,8 km/h (1 Bft) SW 225 0 min 0,0 UV-I 0 W/m 6,0 C 10,6 C 6,4 km/h (2 Bft)
06.10.2022 19:08 10,6 C 7,8 C 73 % 1031,5 hPa 0,0 l/m 3,2 km/h (1 Bft) SW 225 0 min 0,0 UV-I 0 W/m 6,0 C 10,6 C 4,8 km/h (1 Bft)
06.10.2022 19:09 10,6 C 7,8 C 73 % 1031,5 hPa 0,0 l/m 3,2 km/h (1 Bft) SW 225 0 min 0,0 UV-I 0 W/m 6,0 C 10,6 C 4,8 km/h (1 Bft)
06.10.2022 19:10 10,6 C 7,2 C 72 % 1031,5 hPa 0,0 l/m 3,2 km/h (1 Bft) SW 225 0 min 0,0 UV-I 0 W/m 5,8 C 10,6 C 4,8 km/h (1 Bft)
06.10.2022 19:11 10,6 C 7,2 C 72 % 1031,5 hPa 0,0 l/m 3,2 km/h (1 Bft) SW 225 0 min 0,0 UV-I 0 W/m 5,8 C 10,6 C 3,2 km/h (1 Bft)
06.10.2022 19:12 10,5 C 7,2 C 73 % 1031,5 hPa 0,0 l/m 3,2 km/h (1 Bft) SW 225 0 min 0,0 UV-I 0 W/m 5,9 C 10,5 C 4,8 km/h (1 Bft)
06.10.2022 19:13 10,5 C 6,7 C 73 % 1031,5 hPa 0,0 l/m 1,6 km/h (1 Bft) SW 225 0 min 0,0 UV-I 0 W/m 5,9 C 10,5 C 3,2 km/h (1 Bft)
06.10.2022 19:14 10,4 C 6,7 C 73 % 1031,5 hPa 0,0 l/m 1,6 km/h (1 Bft) SW 225 0 min 0,0 UV-I 0 W/m 5,8 C 10,4 C 3,2 km/h (1 Bft)
06.10.2022 19:15 10,3 C 6,7 C 73 % 1031,5 hPa 0,0 l/m 1,6 km/h (1 Bft) SW 225 0 min 0,0 UV-I 0 W/m 5,7 C 10,3 C 3,2 km/h (1 Bft)
06.10.2022 19:16 10,2 C 6,7 C 73 % 1031,6 hPa 0,0 l/m 1,6 km/h (1 Bft) SW 225 0 min 0,0 UV-I 0 W/m 5,6 C 10,2 C 3,2 km/h (1 Bft)
06.10.2022 19:17 10,1 C 6,7 C 73 % 1031,5 hPa 0,0 l/m 3,2 km/h (1 Bft) SW 225 0 min 0,0 UV-I 0 W/m 5,5 C 10,1 C 3,2 km/h (1 Bft)
06.10.2022 19:18 10,1 C 6,7 C 74 % 1031,5 hPa 0,0 l/m 1,6 km/h (1 Bft) SW 225 0 min 0,0 UV-I 0 W/m 5,7 C 10,1 C 3,2 km/h (1 Bft)
06.10.2022 19:19 9,9 C 6,7 C 74 % 1031,5 hPa 0,0 l/m 1,6 km/h (1 Bft) SW 225 0 min 0,0 UV-I 0 W/m 5,5 C 9,9 C 3,2 km/h (1 Bft)
06.10.2022 19:20 9,8 C 6,7 C 74 % 1031,5 hPa 0,0 l/m 1,6 km/h (1 Bft) SW 225 0 min 0,0 UV-I 0 W/m 5,4 C 9,8 C 1,6 km/h (1 Bft)
06.10.2022 19:21 9,7 C 6,1 C 74 % 1031,6 hPa 0,0 l/m 1,6 km/h (1 Bft) SW 225 0 min 0,0 UV-I 0 W/m 5,3 C 9,7 C 1,6 km/h (1 Bft)
06.10.2022 19:22 9,6 C 6,1 C 75 % 1031,5 hPa 0,0 l/m 0,0 km/h (0 Bft) SW 225 0 min 0,0 UV-I 0 W/m 5,4 C 9,6 C 1,6 km/h (1 Bft)
06.10.2022 19:23 9,5 C 6,1 C 75 % 1031,5 hPa 0,0 l/m 0,0 km/h (0 Bft) N 0 0 min 0,0 UV-I 0 W/m 5,3 C 9,5 C 0,0 km/h (0 Bft)
06.10.2022 19:24 9,4 C 6,1 C 75 % 1031,6 hPa 0,0 l/m 0,0 km/h (0 Bft) N 0 0 min 0,0 UV-I 0 W/m 5,2 C 9,4 C 0,0 km/h (0 Bft)
06.10.2022 19:25 9,3 C 6,1 C 76 % 1031,5 hPa 0,0 l/m 0,0 km/h (0 Bft) N 0 0 min 0,0 UV-I 0 W/m 5,3 C 9,3 C 0,0 km/h (0 Bft)
06.10.2022 19:26 9,2 C 6,1 C 76 % 1031,6 hPa 0,0 l/m 0,0 km/h (0 Bft) N 0 0 min 0,0 UV-I 0 W/m 5,2 C 9,2 C 0,0 km/h (0 Bft)
06.10.2022 19:27 9,1 C 6,1 C 77 % 1031,6 hPa 0,0 l/m 0,0 km/h (0 Bft) N 0 0 min 0,0 UV-I 0 W/m 5,3 C 9,1 C 0,0 km/h (0 Bft)
06.10.2022 19:28 8,9 C 6,1 C 77 % 1031,6 hPa 0,0 l/m 0,0 km/h (0 Bft) N 0 0 min 0,0 UV-I 0 W/m 5,1 C 8,9 C 0,0 km/h (0 Bft)
06.10.2022 19:29 8,8 C 6,1 C 78 % 1031,6 hPa 0,0 l/m 0,0 km/h (0 Bft) N 0 0 min 0,0 UV-I 0 W/m 5,2 C 8,8 C 0,0 km/h (0 Bft)
06.10.2022 19:30 8,6 C 5,6 C 78 % 1031,6 hPa 0,0 l/m 0,0 km/h (0 Bft) N 0 0 min 0,0 UV-I 0 W/m 5,0 C 8,6 C 0,0 km/h (0 Bft)
06.10.2022 19:31 8,4 C 5,6 C 79 % 1031,6 hPa 0,0 l/m 0,0 km/h (0 Bft) N 0 0 min 0,0 UV-I 0 W/m 5,0 C 8,4 C 0,0 km/h (0 Bft)
06.10.2022 19:32 8,3 C 5,6 C 79 % 1031,7 hPa 0,0 l/m 0,0 km/h (0 Bft) SW 225 0 min 0,0 UV-I 0 W/m 4,9 C 8,3 C 1,6 km/h (1 Bft)
06.10.2022 19:33 8,3 C 5,6 C 80 % 1031,7 hPa 0,0 l/m 1,6 km/h (1 Bft) SW 225 0 min 0,0 UV-I 0 W/m 5,1 C 8,3 C 1,6 km/h (1 Bft)
06.10.2022 19:34 8,3 C 5,6 C 80 % 1031,7 hPa 0,0 l/m 0,0 km/h (0 Bft) SW 225 0 min 0,0 UV-I 0 W/m 5,1 C 8,3 C 1,6 km/h (1 Bft)
06.10.2022 19:35 8,3 C 5,6 C 80 % 1031,7 hPa 0,0 l/m 0,0 km/h (0 Bft) SW 225 0 min 0,0 UV-I 0 W/m 5,1 C 8,3 C 1,6 km/h (1 Bft)
06.10.2022 19:36 8,2 C 5,6 C 80 % 1031,8 hPa 0,0 l/m 0,0 km/h (0 Bft) N 0 0 min 0,0 UV-I 0 W/m 5,0 C 8,2 C 0,0 km/h (0 Bft)
06.10.2022 19:37 8,2 C 5,6 C 80 % 1031,7 hPa 0,0 l/m 0,0 km/h (0 Bft) N 0 0 min 0,0 UV-I 0 W/m 5,0 C 8,2 C 0,0 km/h (0 Bft)
06.10.2022 19:38 8,1 C 5,6 C 80 % 1031,7 hPa 0,0 l/m 0,0 km/h (0 Bft) N 0 0 min 0,0 UV-I 0 W/m 4,9 C 8,1 C 0,0 km/h (0 Bft)
06.10.2022 19:39 8,1 C 5,0 C 81 % 1031,8 hPa 0,0 l/m 0,0 km/h (0 Bft) N 0 0 min 0,0 UV-I 0 W/m 5,0 C 8,1 C 0,0 km/h (0 Bft)
06.10.2022 19:40 8,0 C 5,6 C 81 % 1031,7 hPa 0,0 l/m 0,0 km/h (0 Bft) N 0 0 min 0,0 UV-I 0 W/m 4,9 C 8,0 C 0,0 km/h (0 Bft)
06.10.2022 19:41 8,1 C 5,6 C 82 % 1031,7 hPa 0,0 l/m 0,0 km/h (0 Bft) N 0 0 min 0,0 UV-I 0 W/m 5,2 C 8,1 C 0,0 km/h (0 Bft)
06.10.2022 19:42 8,1 C 5,0 C 82 % 1031,7 hPa 0,0 l/m 0,0 km/h (0 Bft) N 0 0 min 0,0 UV-I 0 W/m 5,2 C 8,1 C 0,0 km/h (0 Bft)
06.10.2022 19:43 8,1 C 5,0 C 81 % 1031,7 hPa 0,0 l/m 0,0 km/h (0 Bft) N 0 0 min 0,0 UV-I 0 W/m 5,0 C 8,1 C 0,0 km/h (0 Bft)
06.10.2022 19:44 8,1 C 5,6 C 81 % 1031,8 hPa 0,0 l/m 0,0 km/h (0 Bft) SW 225 0 min 0,0 UV-I 0 W/m 5,0 C 8,1 C 1,6 km/h (1 Bft)
06.10.2022 19:45 8,1 C 5,0 C 81 % 1031,7 hPa 0,0 l/m 0,0 km/h (0 Bft) N 0 0 min 0,0 UV-I 0 W/m 5,0 C 8,1 C 0,0 km/h (0 Bft)
06.10.2022 19:46 8,1 C 5,0 C 81 % 1031,8 hPa 0,0 l/m 0,0 km/h (0 Bft) SW 225 0 min 0,0 UV-I 0 W/m 5,0 C 8,1 C 1,6 km/h (1 Bft)
06.10.2022 19:47 8,0 C 5,0 C 81 % 1031,9 hPa 0,0 l/m 0,0 km/h (0 Bft) SW 225 0 min 0,0 UV-I 0 W/m 4,9 C 8,0 C 1,6 km/h (1 Bft)
06.10.2022 19:48 7,9 C 5,0 C 81 % 1031,8 hPa 0,0 l/m 1,6 km/h (1 Bft) SW 225 0 min 0,0 UV-I 0 W/m 4,8 C 7,9 C 1,6 km/h (1 Bft)
06.10.2022 19:49 7,8 C 5,0 C 81 % 1031,8 hPa 0,0 l/m 1,6 km/h (1 Bft) SW 225 0 min 0,0 UV-I 0 W/m 4,7 C 7,8 C 3,2 km/h (1 Bft)
06.10.2022 19:50 7,7 C 5,0 C 82 % 1031,8 hPa 0,0 l/m 1,6 km/h (1 Bft) SW 225 0 min 0,0 UV-I 0 W/m 4,8 C 7,7 C 3,2 km/h (1 Bft)
06.10.2022 19:51 7,7 C 5,0 C 82 % 1031,8 hPa 0,0 l/m 1,6 km/h (1 Bft) SW 225 0 min 0,0 UV-I 0 W/m 4,8 C 7,7 C 1,6 km/h (1 Bft)
06.10.2022 19:52 7,7 C 5,0 C 83 % 1031,8 hPa 0,0 l/m 0,0 km/h (0 Bft) N 0 0 min 0,0 UV-I 0 W/m 5,0 C 7,7 C 0,0 km/h (0 Bft)
06.10.2022 19:53 7,7 C 5,0 C 83 % 1031,7 hPa 0,0 l/m 0,0 km/h (0 Bft) N 0 0 min 0,0 UV-I 0 W/m 5,0 C 7,7 C 0,0 km/h (0 Bft)
06.10.2022 19:54 7,8 C 5,0 C 83 % 1032,3 hPa 0,0 l/m 0,0 km/h (0 Bft) N 0 0 min 0,0 UV-I 0 W/m 5,1 C 7,8 C 0,0 km/h (0 Bft)
06.10.2022 19:55 7,8 C 5,0 C 83 % 1031,8 hPa 0,0 l/m 0,0 km/h (0 Bft) N 0 0 min 0,0 UV-I 0 W/m 5,1 C 7,8 C 0,0 km/h (0 Bft)
06.10.2022 19:56 7,8 C 5,0 C 83 % 1031,9 hPa 0,0 l/m 0,0 km/h (0 Bft) SW 225 0 min 0,0 UV-I 0 W/m 5,1 C 7,8 C 1,6 km/h (1 Bft)
06.10.2022 19:57 7,7 C 5,0 C 83 % 1031,9 hPa 0,0 l/m 1,6 km/h (1 Bft) SW 225 0 min 0,0 UV-I 0 W/m 5,0 C 7,7 C 1,6 km/h (1 Bft)
06.10.2022 19:58 7,7 C 5,0 C 83 % 1031,8 hPa 0,0 l/m 0,0 km/h (0 Bft) N 0 0 min 0,0 UV-I 0 W/m 5,0 C 7,7 C 0,0 km/h (0 Bft)
06.10.2022 19:59 7,6 C 4,4 C 82 % 1031,9 hPa 0,0 l/m 0,0 km/h (0 Bft) N 0 0 min 0,0 UV-I 0 W/m 4,7 C 7,6 C 0,0 km/h (0 Bft)
06.10.2022 20:00 7,4 C 4,4 C 82 % 1031,9 hPa 0,0 l/m 1,6 km/h (1 Bft) SW 225 0 min 0,0 UV-I 0 W/m 4,5 C 7,4 C 1,6 km/h (1 Bft)
06.10.2022 20:01 7,3 C 4,4 C 83 % 1031,9 hPa 0,0 l/m 1,6 km/h (1 Bft) SW 225 0 min 0,0 UV-I 0 W/m 4,6 C 7,3 C 1,6 km/h (1 Bft)
06.10.2022 20:02 7,2 C 4,4 C 83 % 1031,8 hPa 0,0 l/m 1,6 km/h (1 Bft) SW 225 0 min 0,0 UV-I 0 W/m 4,5 C 7,2 C 1,6 km/h (1 Bft)
06.10.2022 20:03 7,2 C 4,4 C 83 % 1031,9 hPa 0,0 l/m 0,0 km/h (0 Bft) SW 225 0 min 0,0 UV-I 0 W/m 4,5 C 7,2 C 1,6 km/h (1 Bft)
06.10.2022 20:04 7,1 C 4,4 C 84 % 1031,9 hPa 0,0 l/m 0,0 km/h (0 Bft) N 0 0 min 0,0 UV-I 0 W/m 4,6 C 7,1 C 0,0 km/h (0 Bft)
06.10.2022 20:05 7,1 C 4,4 C 84 % 1031,9 hPa 0,0 l/m 0,0 km/h (0 Bft) N 0 0 min 0,0 UV-I 0 W/m 4,6 C 7,1 C 0,0 km/h (0 Bft)
06.10.2022 20:06 7,1 C 4,4 C 84 % 1031,8 hPa 0,0 l/m 0,0 km/h (0 Bft) N 0 0 min 0,0 UV-I 0 W/m 4,6 C 7,1 C 0,0 km/h (0 Bft)
06.10.2022 20:07 7,1 C 4,4 C 85 % 1031,9 hPa 0,0 l/m 0,0 km/h (0 Bft) SW 225 0 min 0,0 UV-I 0 W/m 4,8 C 7,1 C 1,6 km/h (1 Bft)
06.10.2022 20:08 6,9 C 4,4 C 84 % 1031,8 hPa 0,0 l/m 0,0 km/h (0 Bft) N 0 0 min 0,0 UV-I 0 W/m 4,4 C 6,9 C 0,0 km/h (0 Bft)
06.10.2022 20:09 6,9 C 4,4 C 84 % 1031,8 hPa 0,0 l/m 0,0 km/h (0 Bft) SW 225 0 min 0,0 UV-I 0 W/m 4,4 C 6,9 C 1,6 km/h (1 Bft)
06.10.2022 20:10 6,9 C 3,9 C 84 % 1031,9 hPa 0,0 l/m 0,0 km/h (0 Bft) N 0 0 min 0,0 UV-I 0 W/m 4,4 C 6,9 C 0,0 km/h (0 Bft)
06.10.2022 20:11 6,9 C 3,9 C 85 % 1031,8 hPa 0,0 l/m 0,0 km/h (0 Bft) SW 225 0 min 0,0 UV-I 0 W/m 4,6 C 6,9 C 1,6 km/h (1 Bft)
06.10.2022 20:12 7,1 C 3,9 C 85 % 1031,8 hPa 0,0 l/m 0,0 km/h (0 Bft) N 0 0 min 0,0 UV-I 0 W/m 4,8 C 7,1 C 0,0 km/h (0 Bft)
06.10.2022 20:13 7,1 C 3,9 C 85 % 1031,8 hPa 0,0 l/m 0,0 km/h (0 Bft) SW 225 0 min 0,0 UV-I 0 W/m 4,8 C 7,1 C 1,6 km/h (1 Bft)
06.10.2022 20:14 7,2 C 3,9 C 85 % 1031,9 hPa 0,0 l/m 0,0 km/h (0 Bft) N 0 0 min 0,0 UV-I 0 W/m 4,9 C 7,2 C 0,0 km/h (0 Bft)
06.10.2022 20:15 7,1 C 3,9 C 85 % 1031,9 hPa 0,0 l/m 0,0 km/h (0 Bft) N 0 0 min 0,0 UV-I 0 W/m 4,8 C 7,1 C 0,0 km/h (0 Bft)
06.10.2022 20:16 7,0 C 3,9 C 84 % 1031,9 hPa 0,0 l/m 0,0 km/h (0 Bft) N 0 0 min 0,0 UV-I 0 W/m 4,5 C 7,0 C 0,0 km/h (0 Bft)
06.10.2022 20:17 6,9 C 3,9 C 84 % 1031,9 hPa 0,0 l/m 0,0 km/h (0 Bft) N 0 0 min 0,0 UV-I 0 W/m 4,4 C 6,9 C 0,0 km/h (0 Bft)
06.10.2022 20:18 6,8 C 3,9 C 84 % 1031,9 hPa 0,0 l/m 0,0 km/h (0 Bft) SW 225 0 min 0,0 UV-I 0 W/m 4,3 C 6,8 C 1,6 km/h (1 Bft)
06.10.2022 20:19 6,5 C 3,9 C 84 % 1031,9 hPa 0,0 l/m 0,0 km/h (0 Bft) N 0 0 min 0,0 UV-I 0 W/m 4,0 C 6,5 C 0,0 km/h (0 Bft)
06.10.2022 20:20 6,3 C 3,9 C 84 % 1031,9 hPa 0,0 l/m 0,0 km/h (0 Bft) N 0 0 min 0,0 UV-I 0 W/m 3,8 C 6,3 C 0,0 km/h (0 Bft)
06.10.2022 20:21 6,2 C 3,9 C 84 % 1031,8 hPa 0,0 l/m 0,0 km/h (0 Bft) SW 225 0 min 0,0 UV-I 0 W/m 3,7 C 6,2 C 1,6 km/h (1 Bft)
06.10.2022 20:22 6,1 C 3,9 C 84 % 1031,9 hPa 0,0 l/m 0,0 km/h (0 Bft) N 0 0 min 0,0 UV-I 0 W/m 3,6 C 6,1 C 0,0 km/h (0 Bft)
06.10.2022 20:23 6,1 C 3,9 C 85 % 1031,9 hPa 0,0 l/m 0,0 km/h (0 Bft) N 0 0 min 0,0 UV-I 0 W/m 3,8 C 6,1 C 0,0 km/h (0 Bft)
06.10.2022 20:24 6,0 C 3,9 C 85 % 1031,8 hPa 0,0 l/m 0,0 km/h (0 Bft) N 0 0 min 0,0 UV-I 0 W/m 3,7 C 6,0 C 0,0 km/h (0 Bft)
06.10.2022 20:25 6,0 C 3,9 C 85 % 1031,9 hPa 0,0 l/m 0,0 km/h (0 Bft) N 0 0 min 0,0 UV-I 0 W/m 3,7 C 6,0 C 0,0 km/h (0 Bft)
06.10.2022 20:26 6,0 C 3,9 C 86 % 1031,9 hPa 0,0 l/m 0,0 km/h (0 Bft) SW 225 0 min 0,0 UV-I 0 W/m 3,8 C 6,0 C 1,6 km/h (1 Bft)
06.10.2022 20:27 6,1 C 3,9 C 86 % 1031,9 hPa 0,0 l/m 1,6 km/h (1 Bft) SW 225 0 min 0,0 UV-I 0 W/m 3,9 C 6,1 C 3,2 km/h (1 Bft)
06.10.2022 20:28 6,0 C 3,9 C 86 % 1031,9 hPa 0,0 l/m 1,6 km/h (1 Bft) SW 225 0 min 0,0 UV-I 0 W/m 3,8 C 6,0 C 1,6 km/h (1 Bft)
06.10.2022 20:29 6,1 C 3,9 C 86 % 1031,8 hPa 0,0 l/m 1,6 km/h (1 Bft) SW 225 0 min 0,0 UV-I 0 W/m 3,9 C 6,1 C 3,2 km/h (1 Bft)
06.10.2022 20:30 6,1 C 3,9 C 86 % 1031,8 hPa 0,0 l/m 1,6 km/h (1 Bft) SW 225 0 min 0,0 UV-I 0 W/m 3,9 C 6,1 C 3,2 km/h (1 Bft)
06.10.2022 20:31 6,1 C 3,9 C 86 % 1031,9 hPa 0,0 l/m 3,2 km/h (1 Bft) SW 225 0 min 0,0 UV-I 0 W/m 3,9 C 6,1 C 3,2 km/h (1 Bft)
06.10.2022 20:32 6,2 C 3,9 C 86 % 1031,9 hPa 0,0 l/m 1,6 km/h (1 Bft) SW 225 0 min 0,0 UV-I 0 W/m 4,0 C 6,2 C 1,6 km/h (1 Bft)
06.10.2022 20:33 6,2 C 3,9 C 86 % 1031,8 hPa 0,0 l/m 0,0 km/h (0 Bft) SW 225 0 min 0,0 UV-I 0 W/m 4,0 C 6,2 C 1,6 km/h (1 Bft)
06.10.2022 20:34 6,2 C 3,9 C 86 % 1031,9 hPa 0,0 l/m 1,6 km/h (1 Bft) SW 225 0 min 0,0 UV-I 0 W/m 4,0 C 6,2 C 3,2 km/h (1 Bft)
06.10.2022 20:35 6,1 C 3,9 C 86 % 1031,9 hPa 0,0 l/m 1,6 km/h (1 Bft) SW 225 0 min 0,0 UV-I 0 W/m 3,9 C 6,1 C 3,2 km/h (1 Bft)
06.10.2022 20:36 6,0 C 3,9 C 86 % 1031,8 hPa 0,0 l/m 1,6 km/h (1 Bft) SW 225 0 min 0,0 UV-I 0 W/m 3,8 C 6,0 C 1,6 km/h (1 Bft)
06.10.2022 20:37 5,9 C 3,3 C 86 % 1031,8 hPa 0,0 l/m 0,0 km/h (0 Bft) SW 225 0 min 0,0 UV-I 0 W/m 3,7 C 5,9 C 1,6 km/h (1 Bft)
06.10.2022 20:38 5,9 C 3,3 C 86 % 1031,9 hPa 0,0 l/m 0,0 km/h (0 Bft) N 0 0 min 0,0 UV-I 0 W/m 3,7 C 5,9 C 0,0 km/h (0 Bft)
06.10.2022 20:39 5,9 C 3,3 C 86 % 1031,9 hPa 0,0 l/m 0,0 km/h (0 Bft) N 0 0 min 0,0 UV-I 0 W/m 3,7 C 5,9 C 0,0 km/h (0 Bft)
06.10.2022 20:40 5,8 C 3,3 C 86 % 1031,9 hPa 0,0 l/m 0,0 km/h (0 Bft) N 0 0 min 0,0 UV-I 0 W/m 3,6 C 5,8 C 0,0 km/h (0 Bft)
06.10.2022 20:41 5,8 C 3,3 C 86 % 1031,8 hPa 0,0 l/m 0,0 km/h (0 Bft) N 0 0 min 0,0 UV-I 0 W/m 3,6 C 5,8 C 0,0 km/h (0 Bft)
06.10.2022 20:42 5,8 C 3,3 C 87 % 1031,8 hPa 0,0 l/m 0,0 km/h (0 Bft) N 0 0 min 0,0 UV-I 0 W/m 3,8 C 5,8 C 0,0 km/h (0 Bft)
06.10.2022 20:43 5,8 C 3,3 C 87 % 1031,9 hPa 0,0 l/m 0,0 km/h (0 Bft) SW 225 0 min 0,0 UV-I 0 W/m 3,8 C 5,8 C 1,6 km/h (1 Bft)
06.10.2022 20:44 5,7 C 3,3 C 86 % 1032,0 hPa 0,0 l/m 0,0 km/h (0 Bft) SW 225 0 min 0,0 UV-I 0 W/m 3,5 C 5,7 C 1,6 km/h (1 Bft)
06.10.2022 20:45 5,6 C 3,3 C 86 % 1031,9 hPa 0,0 l/m 0,0 km/h (0 Bft) N 0 0 min 0,0 UV-I 0 W/m 3,4 C 5,6 C 0,0 km/h (0 Bft)
06.10.2022 20:46 5,6 C 3,3 C 87 % 1031,9 hPa 0,0 l/m 0,0 km/h (0 Bft) N 0 0 min 0,0 UV-I 0 W/m 3,6 C 5,6 C 0,0 km/h (0 Bft)
06.10.2022 20:47 5,4 C 3,3 C 87 % 1031,9 hPa 0,0 l/m 0,0 km/h (0 Bft) N 0 0 min 0,0 UV-I 0 W/m 3,4 C 5,4 C 0,0 km/h (0 Bft)
06.10.2022 20:48 5,5 C 3,3 C 87 % 1031,9 hPa 0,0 l/m 0,0 km/h (0 Bft) N 0 0 min 0,0 UV-I 0 W/m 3,5 C 5,5 C 0,0 km/h (0 Bft)
06.10.2022 20:49 5,5 C 3,3 C 87 % 1031,8 hPa 0,0 l/m 0,0 km/h (0 Bft) N 0 0 min 0,0 UV-I 0 W/m 3,5 C 5,5 C 0,0 km/h (0 Bft)
06.10.2022 20:50 5,5 C 3,3 C 87 % 1031,9 hPa 0,0 l/m 0,0 km/h (0 Bft) N 0 0 min 0,0 UV-I 0 W/m 3,5 C 5,5 C 0,0 km/h (0 Bft)
06.10.2022 20:51 5,5 C 3,3 C 87 % 1031,9 hPa 0,0 l/m 0,0 km/h (0 Bft) N 0 0 min 0,0 UV-I 0 W/m 3,5 C 5,5 C 0,0 km/h (0 Bft)
06.10.2022 20:52 5,4 C 3,3 C 87 % 1031,9 hPa 0,0 l/m 0,0 km/h (0 Bft) N 0 0 min 0,0 UV-I 0 W/m 3,4 C 5,4 C 0,0 km/h (0 Bft)
06.10.2022 20:53 5,3 C 3,3 C 87 % 1031,9 hPa 0,0 l/m 0,0 km/h (0 Bft) N 0 0 min 0,0 UV-I 0 W/m 3,3 C 5,3 C 0,0 km/h (0 Bft)
06.10.2022 20:54 5,2 C 2,8 C 87 % 1031,9 hPa 0,0 l/m 0,0 km/h (0 Bft) N 0 0 min 0,0 UV-I 0 W/m 3,2 C 5,2 C 0,0 km/h (0 Bft)
06.10.2022 20:55 5,1 C 2,8 C 87 % 1031,9 hPa 0,0 l/m 0,0 km/h (0 Bft) N 0 0 min 0,0 UV-I 0 W/m 3,1 C 5,1 C 0,0 km/h (0 Bft)
06.10.2022 20:56 5,1 C 2,8 C 87 % 1031,9 hPa 0,0 l/m 0,0 km/h (0 Bft) N 0 0 min 0,0 UV-I 0 W/m 3,1 C 5,1 C 0,0 km/h (0 Bft)
06.10.2022 20:57 5,1 C 2,8 C 88 % 1032,0 hPa 0,0 l/m 0,0 km/h (0 Bft) N 0 0 min 0,0 UV-I 0 W/m 3,3 C 5,1 C 0,0 km/h (0 Bft)
06.10.2022 20:58 5,1 C 2,8 C 88 % 1031,9 hPa 0,0 l/m 0,0 km/h (0 Bft) SW 225 0 min 0,0 UV-I 0 W/m 3,3 C 5,1 C 1,6 km/h (1 Bft)
06.10.2022 20:59 5,2 C 2,8 C 88 % 1031,9 hPa 0,0 l/m 1,6 km/h (1 Bft) SW 225 0 min 0,0 UV-I 0 W/m 3,4 C 5,2 C 1,6 km/h (1 Bft)
06.10.2022 21:00 5,2 C 2,8 C 88 % 1031,8 hPa 0,0 l/m 1,6 km/h (1 Bft) SW 225 0 min 0,0 UV-I 0 W/m 3,4 C 5,2 C 3,2 km/h (1 Bft)
06.10.2022 21:01 5,3 C 2,8 C 88 % 1031,8 hPa 0,0 l/m 0,0 km/h (0 Bft) SW 225 0 min 0,0 UV-I 0 W/m 3,5 C 5,3 C 1,6 km/h (1 Bft)
06.10.2022 21:02 5,4 C 2,8 C 89 % 1031,8 hPa 0,0 l/m 0,0 km/h (0 Bft) N 0 0 min 0,0 UV-I 0 W/m 3,7 C 5,4 C 0,0 km/h (0 Bft)
06.10.2022 21:03 5,4 C 2,8 C 89 % 1031,8 hPa 0,0 l/m 0,0 km/h (0 Bft) SW 225 0 min 0,0 UV-I 0 W/m 3,7 C 5,4 C 1,6 km/h (1 Bft)
06.10.2022 21:04 5,3 C 2,8 C 88 % 1031,9 hPa 0,0 l/m 0,0 km/h (0 Bft) N 0 0 min 0,0 UV-I 0 W/m 3,5 C 5,3 C 0,0 km/h (0 Bft)
06.10.2022 21:09 4,8 C 2,8 C 88 % 1031,9 hPa 0,0 l/m 0,0 km/h (0 Bft) SW 229 0 min 0,0 UV-I 0 W/m 3,0 C 4,8 C 0,0 km/h (0 Bft)
06.10.2022 21:12 4,8 C 2,2 C 88 % 1031,9 hPa 0,0 l/m 0,0 km/h (0 Bft) SW 229 0 min 0,0 UV-I 0 W/m 3,0 C 4,8 C 1,6 km/h (1 Bft)
06.10.2022 21:15 4,9 C 2,8 C 89 % 1032,0 hPa 0,0 l/m 0,0 km/h (0 Bft) SW 229 0 min 0,0 UV-I 0 W/m 3,2 C 4,9 C 0,0 km/h (0 Bft)
06.10.2022 21:18 4,4 C 2,8 C 88 % 1032,0 hPa 0,0 l/m 0,0 km/h (0 Bft) SW 229 0 min 0,0 UV-I 0 W/m 2,6 C 4,4 C 1,6 km/h (1 Bft)
06.10.2022 21:21 4,3 C 2,2 C 88 % 1031,9 hPa 0,0 l/m 0,5 km/h (0 Bft) SW 229 0 min 0,0 UV-I 0 W/m 2,5 C 4,3 C 3,2 km/h (1 Bft)
06.10.2022 21:24 4,5 C 2,2 C 89 % 1031,8 hPa 0,0 l/m 1,4 km/h (1 Bft) SW 229 0 min 0,0 UV-I 0 W/m 2,8 C 4,5 C 3,2 km/h (1 Bft)
06.10.2022 21:27 4,5 C 2,2 C 89 % 1032,0 hPa 0,0 l/m 0,0 km/h (0 Bft) SW 229 0 min 0,0 UV-I 0 W/m 2,8 C 4,5 C 0,0 km/h (0 Bft)
06.10.2022 21:30 4,5 C 2,2 C 89 % 1031,9 hPa 0,0 l/m 0,0 km/h (0 Bft) SW 229 0 min 0,0 UV-I 0 W/m 2,8 C 4,5 C 0,0 km/h (0 Bft)
06.10.2022 21:33 4,5 C 2,2 C 89 % 1031,8 hPa 0,0 l/m 0,0 km/h (0 Bft) SW 229 0 min 0,0 UV-I 0 W/m 2,8 C 4,5 C 0,0 km/h (0 Bft)
06.10.2022 21:36 4,3 C 2,2 C 89 % 1031,8 hPa 0,0 l/m 0,0 km/h (0 Bft) SW 229 0 min 0,0 UV-I 0 W/m 2,7 C 4,3 C 0,0 km/h (0 Bft)
06.10.2022 21:39 4,2 C 2,2 C 89 % 1031,8 hPa 0,0 l/m 0,0 km/h (0 Bft) SW 229 0 min 0,0 UV-I 0 W/m 2,6 C 4,2 C 0,0 km/h (0 Bft)
06.10.2022 21:42 4,4 C 2,2 C 90 % 1031,8 hPa 0,0 l/m 0,6 km/h (0 Bft) SW 229 0 min 0,0 UV-I 0 W/m 2,9 C 4,4 C 1,6 km/h (1 Bft)
06.10.2022 21:45 4,3 C 2,2 C 89 % 1031,8 hPa 0,0 l/m 0,1 km/h (0 Bft) SW 229 0 min 0,0 UV-I 0 W/m 2,7 C 4,3 C 1,6 km/h (1 Bft)
06.10.2022 21:48 3,9 C 2,2 C 89 % 1031,9 hPa 0,0 l/m 0,0 km/h (0 Bft) SW 229 0 min 0,0 UV-I 0 W/m 2,3 C 3,9 C 0,0 km/h (0 Bft)
06.10.2022 21:51 3,7 C 2,2 C 89 % 1031,9 hPa 0,0 l/m 0,0 km/h (0 Bft) SW 229 0 min 0,0 UV-I 0 W/m 2,1 C 3,7 C 0,0 km/h (0 Bft)
06.10.2022 21:54 3,9 C 1,7 C 90 % 1031,8 hPa 0,0 l/m 0,0 km/h (0 Bft) SW 229 0 min 0,0 UV-I 0 W/m 2,4 C 3,9 C 0,0 km/h (0 Bft)
06.10.2022 21:57 4,0 C 2,2 C 90 % 1031,8 hPa 0,0 l/m 0,0 km/h (0 Bft) SW 229 0 min 0,0 UV-I 0 W/m 2,5 C 4,0 C 1,6 km/h (1 Bft)
06.10.2022 22:00 4,1 C 2,2 C 89 % 1031,9 hPa 0,0 l/m 2,2 km/h (1 Bft) SW 229 0 min 0,0 UV-I 0 W/m 2,5 C 4,1 C 3,2 km/h (1 Bft)
06.10.2022 22:03 3,7 C 1,7 C 89 % 1031,8 hPa 0,0 l/m 0,5 km/h (0 Bft) SW 229 0 min 0,0 UV-I 0 W/m 2,1 C 3,7 C 1,6 km/h (1 Bft)
06.10.2022 22:06 3,6 C 1,7 C 89 % 1031,8 hPa 0,0 l/m 0,0 km/h (0 Bft) SW 229 0 min 0,0 UV-I 0 W/m 2,0 C 3,6 C 0,0 km/h (0 Bft)
06.10.2022 22:09 3,6 C 1,7 C 90 % 1031,9 hPa 0,0 l/m 0,0 km/h (0 Bft) SW 229 0 min 0,0 UV-I 0 W/m 2,1 C 3,6 C 0,0 km/h (0 Bft)
06.10.2022 22:12 3,7 C 1,7 C 90 % 1031,9 hPa 0,0 l/m 0,0 km/h (0 Bft) SW 229 0 min 0,0 UV-I 0 W/m 2,2 C 3,7 C 0,0 km/h (0 Bft)
06.10.2022 22:15 3,9 C 1,7 C 91 % 1031,9 hPa 0,0 l/m 0,0 km/h (0 Bft) SW 229 0 min 0,0 UV-I 0 W/m 2,6 C 3,9 C 0,0 km/h (0 Bft)
06.10.2022 22:18 3,8 C 1,7 C 90 % 1032,0 hPa 0,0 l/m 0,0 km/h (0 Bft) SW 229 0 min 0,0 UV-I 0 W/m 2,3 C 3,8 C 0,0 km/h (0 Bft)
06.10.2022 22:21 3,7 C 1,7 C 90 % 1031,9 hPa 0,0 l/m 0,0 km/h (0 Bft) SW 229 0 min 0,0 UV-I 0 W/m 2,2 C 3,7 C 0,0 km/h (0 Bft)
06.10.2022 22:24 3,8 C 1,7 C 90 % 1032,0 hPa 0,0 l/m 0,0 km/h (0 Bft) SW 229 0 min 0,0 UV-I 0 W/m 2,3 C 3,8 C 0,0 km/h (0 Bft)
06.10.2022 22:27 3,8 C 1,7 C 90 % 1031,9 hPa 0,0 l/m 0,0 km/h (0 Bft) SW 229 0 min 0,0 UV-I 0 W/m 2,3 C 3,8 C 0,0 km/h (0 Bft)
06.10.2022 22:30 3,8 C 1,7 C 90 % 1031,9 hPa 0,0 l/m 0,0 km/h (0 Bft) SW 229 0 min 0,0 UV-I 0 W/m 2,3 C 3,8 C 0,0 km/h (0 Bft)
06.10.2022 22:33 3,6 C 1,1 C 90 % 1032,0 hPa 0,0 l/m 0,0 km/h (0 Bft) SW 229 0 min 0,0 UV-I 0 W/m 2,1 C 3,6 C 0,0 km/h (0 Bft)
06.10.2022 22:36 3,4 C 1,1 C 90 % 1031,9 hPa 0,0 l/m 0,0 km/h (0 Bft) SW 229 0 min 0,0 UV-I 0 W/m 1,9 C 3,4 C 0,0 km/h (0 Bft)
06.10.2022 22:39 3,4 C 1,7 C 90 % 1032,0 hPa 0,0 l/m 0,0 km/h (0 Bft) SW 229 0 min 0,0 UV-I 0 W/m 1,9 C 3,4 C 0,0 km/h (0 Bft)
06.10.2022 22:42 3,4 C 1,7 C 91 % 1032,1 hPa 0,0 l/m 0,0 km/h (0 Bft) SW 229 0 min 0,0 UV-I 0 W/m 2,1 C 3,4 C 0,0 km/h (0 Bft)
06.10.2022 22:45 3,5 C 1,7 C 91 % 1031,9 hPa 0,0 l/m 0,0 km/h (0 Bft) SW 229 0 min 0,0 UV-I 0 W/m 2,2 C 3,5 C 0,0 km/h (0 Bft)
06.10.2022 22:48 3,5 C 1,7 C 91 % 1032,0 hPa 0,0 l/m 0,0 km/h (0 Bft) SW 229 0 min 0,0 UV-I 0 W/m 2,2 C 3,5 C 0,0 km/h (0 Bft)
06.10.2022 22:51 3,3 C 1,7 C 90 % 1032,1 hPa 0,0 l/m 0,0 km/h (0 Bft) SW 229 0 min 0,0 UV-I 0 W/m 1,8 C 3,3 C 0,0 km/h (0 Bft)
06.10.2022 22:54 3,2 C 1,7 C 90 % 1032,1 hPa 0,0 l/m 0,0 km/h (0 Bft) SW 229 0 min 0,0 UV-I 0 W/m 1,7 C 3,2 C 0,0 km/h (0 Bft)
06.10.2022 22:57 3,0 C 1,1 C 90 % 1032,0 hPa 0,0 l/m 0,0 km/h (0 Bft) SW 229 0 min 0,0 UV-I 0 W/m 1,5 C 3,0 C 0,0 km/h (0 Bft)
06.10.2022 23:00 2,7 C 1,1 C 90 % 1032,0 hPa 0,0 l/m 0,0 km/h (0 Bft) SW 229 0 min 0,0 UV-I 0 W/m 1,2 C 2,7 C 0,0 km/h (0 Bft)
06.10.2022 23:03 2,7 C 1,1 C 91 % 1032,0 hPa 0,0 l/m 0,0 km/h (0 Bft) SW 229 0 min 0,0 UV-I 0 W/m 1,4 C 2,7 C 0,0 km/h (0 Bft)
06.10.2022 23:06 2,8 C 1,1 C 91 % 1032,0 hPa 0,0 l/m 0,0 km/h (0 Bft) SW 229 0 min 0,0 UV-I 0 W/m 1,5 C 2,8 C 0,0 km/h (0 Bft)
06.10.2022 23:09 2,8 C 1,1 C 91 % 1031,9 hPa 0,0 l/m 0,0 km/h (0 Bft) SW 229 0 min 0,0 UV-I 0 W/m 1,5 C 2,8 C 0,0 km/h (0 Bft)
06.10.2022 23:12 2,6 C 0,6 C 90 % 1031,9 hPa 0,0 l/m 0,0 km/h (0 Bft) SW 229 0 min 0,0 UV-I 0 W/m 1,1 C 2,6 C 0,0 km/h (0 Bft)
06.10.2022 23:15 2,6 C 0,6 C 91 % 1031,9 hPa 0,0 l/m 0,0 km/h (0 Bft) SW 229 0 min 0,0 UV-I 0 W/m 1,3 C 2,6 C 0,0 km/h (0 Bft)
06.10.2022 23:18 2,5 C 0,6 C 91 % 1031,9 hPa 0,0 l/m 0,0 km/h (0 Bft) SW 229 0 min 0,0 UV-I 0 W/m 1,2 C 2,5 C 0,0 km/h (0 Bft)
06.10.2022 23:21 2,6 C 1,1 C 91 % 1031,9 hPa 0,0 l/m 0,0 km/h (0 Bft) SW 229 0 min 0,0 UV-I 0 W/m 1,3 C 2,6 C 0,0 km/h (0 Bft)
06.10.2022 23:24 2,7 C 0,6 C 91 % 1031,9 hPa 0,0 l/m 0,0 km/h (0 Bft) SW 229 0 min 0,0 UV-I 0 W/m 1,4 C 2,7 C 0,0 km/h (0 Bft)
06.10.2022 23:27 2,6 C 0,6 C 91 % 1031,9 hPa 0,0 l/m 0,0 km/h (0 Bft) SW 229 0 min 0,0 UV-I 0 W/m 1,3 C 2,6 C 0,0 km/h (0 Bft)
06.10.2022 23:30 2,3 C 0,6 C 90 % 1031,9 hPa 0,0 l/m 0,0 km/h (0 Bft) SW 229 0 min 0,0 UV-I 0 W/m 0,8 C 2,3 C 0,0 km/h (0 Bft)
06.10.2022 23:33 2,3 C 0,6 C 91 % 1032,0 hPa 0,0 l/m 0,0 km/h (0 Bft) SW 229 0 min 0,0 UV-I 0 W/m 1,0 C 2,3 C 0,0 km/h (0 Bft)
06.10.2022 23:36 2,4 C 0,6 C 91 % 1032,0 hPa 0,0 l/m 0,0 km/h (0 Bft) SW 229 0 min 0,0 UV-I 0 W/m 1,1 C 2,4 C 0,0 km/h (0 Bft)
06.10.2022 23:39 2,6 C 0,6 C 91 % 1032,0 hPa 0,0 l/m 1,2 km/h (1 Bft) SW 229 0 min 0,0 UV-I 0 W/m 1,3 C 2,6 C 3,2 km/h (1 Bft)
06.10.2022 23:42 2,7 C 0,6 C 92 % 1031,9 hPa 0,0 l/m 2,1 km/h (1 Bft) SW 229 0 min 0,0 UV-I 0 W/m 1,5 C 2,7 C 3,2 km/h (1 Bft)
06.10.2022 23:45 2,5 C 0,6 C 91 % 1031,8 hPa 0,0 l/m 1,2 km/h (1 Bft) SW 229 0 min 0,0 UV-I 0 W/m 1,2 C 2,5 C 3,2 km/h (1 Bft)
06.10.2022 23:48 2,7 C 1,1 C 92 % 1031,9 hPa 0,0 l/m 3,1 km/h (1 Bft) SW 229 0 min 0,0 UV-I 0 W/m 1,5 C 2,7 C 4,8 km/h (1 Bft)
06.10.2022 23:51 2,8 C 1,1 C 91 % 1031,8 hPa 0,0 l/m 2,5 km/h (1 Bft) SW 229 0 min 0,0 UV-I 0 W/m 1,5 C 2,8 C 3,2 km/h (1 Bft)
06.10.2022 23:54 2,8 C 1,1 C 91 % 1031,8 hPa 0,0 l/m 1,5 km/h (1 Bft) SW 229 0 min 0,0 UV-I 0 W/m 1,5 C 2,8 C 3,2 km/h (1 Bft)
06.10.2022 23:57 2,9 C 0,6 C 91 % 1031,8 hPa 0,0 l/m 0,8 km/h (0 Bft) SW 229 0 min 0,0 UV-I 0 W/m 1,6 C 2,9 C 1,6 km/h (1 Bft)
06.10.2022 23:58 2,9 C 0,6 C 92 % 1031,8 hPa 0,0 l/m 0,0 km/h (0 Bft) SW 225 0 min 0,0 UV-I 0 W/m 1,7 C 2,9 C 1,6 km/h (1 Bft)
06.10.2022 23:59 3,1 C 1,1 C 92 % 1031,8 hPa 0,0 l/m 1,6 km/h (1 Bft) SW 225 0 min 0,0 UV-I 0 W/m 1,9 C 3,1 C 1,6 km/h (1 Bft)
_ Min-Zeit 23:33 23:12 15:32 00:05 - 06:32 - - - - - 23:30 23:30 06:33
Minimum _ 2,2 C 0,6 C 57 % 1022,4 hPa - 0,0 km/h (0 Bft) - - - - - 0,8 C 2,3 C 0,0 km/h (0 Bft)
_ Max-Zeit 14:33 15:13 08:04 12:21 02:11 00:49 - - 10:50 12:52 13:07 00:29 15:17 00:49
Maximum _ 15,1 C 26,1 C 92 % 1032,4 hPa 0,2 l/m 33,8 km/h
W (5 Bft)
- - 1 min 3,0 UV-I 584 W/m 12,1 C 15,1 C 48,3 km/h
W (6 Bft)
Durchschnitt _ 10,1 C 11,1 C 80 % 1029,8 hPa #0,2 l/m 6,8 km/h (2 Bft) SW - #5:25 h 2,1 UV-I 310 W/m 6,6 C 8,8 C 10,3 km/h (2 Bft)